[[{"header":{"parameterUnit":"m.s-1","parameterCategory":1,"la1":30.6,"la2":29.2853,"lo1":-89.7004,"lo2":-87.6739,"dy":0.0162,"dx":0.0183,"nx":112,"ny":82,"refTime":"2023-09-29T00:00:00:Z","depth":0,"parameterNumber":2,"parameterNumberName":"U-component_of_WINDS"},"data":[0.0,0.0,0.0,0.0,0.0,0.0,0.0,0.0,0.0,0.0,0.0,0.0,0.0,0.0,0.0,0.0,0.0,0.0,0.0,0.0,0.0,0.0,0.0,0.0,0.0,0.0,0.0,0.0,0.0,0.0,0.0,0.0,0.0,0.0,0.0,0.0,0.0,0.0,0.0,0.0,0.0,0.0,0.0,0.0,0.0,0.0,0.0,0.0,0.0,0.0,0.0,0.0,0.0,0.0,0.0,0.0,0.0,0.0,0.0,0.0,0.0,0.0,0.0,0.0,0.0,0.0,0.0,0.0,0.0,0.0,0.0,0.0,0.0,0.0,0.0,0.0,0.0,0.0,0.0,0.0,0.0,0.0,0.0,0.0,0.0,0.0,0.0,0.0,0.0,0.0,1.8005,1.8638,1.9386,1.9972,2.0215,1.9737,1.904,1.8142,0.0,0.0,0.0,0.0,0.0,0.0,0.0,0.0,0.0,0.0,0.0,0.0,0.0,0.0,0.0,0.0,0.0,0.0,0.0,0.0,0.0,0.0,0.0,0.0,0.0,0.0,0.0,0.0,0.0,0.0,0.0,0.0,0.0,0.0,0.0,0.0,0.0,0.0,0.0,0.0,0.0,0.0,0.0,0.0,0.0,0.0,0.0,0.0,0.0,0.0,0.0,0.0,0.0,0.0,0.0,0.0,0.0,0.0,0.0,0.0,0.0,0.0,0.0,0.0,0.0,0.0,0.0,0.0,0.0,0.0,0.0,0.0,0.0,0.0,0.0,0.0,0.0,0.0,0.0,0.0,0.0,0.0,0.0,0.0,0.0,0.0,0.0,0.0,0.0,0.0,0.0,0.0,0.0,0.0,0.0,0.0,0.0,0.0,0.0,0.0,0.0,0.0,0.0,0.0,1.8675,1.9524,1.99,2.0067,1.9886,1.9997,1.9458,1.8015,0.0,0.0,0.0,0.0,0.0,0.0,0.0,0.0,0.0,0.0,0.0,0.0,0.0,0.0,0.0,0.0,0.0,0.0,0.0,0.0,0.0,0.0,0.0,0.0,0.0,0.0,0.0,0.0,0.0,0.0,0.0,0.0,0.0,0.0,0.0,0.0,0.0,0.0,0.0,0.0,0.0,0.0,0.0,0.0,0.0,0.0,0.0,0.0,0.0,0.0,0.0,0.0,0.0,0.0,0.0,0.0,0.0,0.0,0.0,0.0,0.0,0.0,0.0,0.0,0.0,0.0,0.0,0.0,0.0,0.0,0.0,0.0,0.0,0.0,0.0,0.0,0.0,0.0,0.0,0.0,0.0,0.0,0.0,0.0,0.0,0.0,0.0,0.0,0.0,0.0,0.0,0.0,0.0,0.0,0.0,0.0,0.0,0.0,0.0,0.0,0.0,0.0,0.0,1.8664,1.9203,1.976,1.992,2.0006,2.008,2.0009,1.9546,1.8515,1.7329,0.0,0.0,0.0,0.0,0.0,0.0,0.0,0.0,0.0,0.0,0.0,0.0,0.0,0.0,0.0,0.0,0.0,0.0,0.0,0.0,0.0,0.0,0.0,0.0,0.0,0.0,0.0,0.0,0.0,0.0,0.0,0.0,0.0,0.0,0.0,0.0,0.0,0.0,0.0,0.0,0.0,0.0,0.0,0.0,0.0,0.0,0.0,0.0,0.0,0.0,0.0,0.0,0.0,0.0,0.0,0.0,0.0,0.0,0.0,0.0,0.0,0.0,0.0,0.0,0.0,0.0,0.0,0.0,0.0,0.0,0.0,0.0,0.0,0.0,0.0,0.0,0.0,0.0,0.0,0.0,0.0,0.0,0.0,0.0,0.0,0.0,0.0,0.0,0.0,0.0,0.0,0.0,0.0,0.0,0.0,0.0,0.0,0.0,0.0,0.0,0.0,0.0,1.9401,1.9481,1.9679,1.976,1.9891,2.009,1.9848,1.943,1.8807,1.8035,0.0,0.0,0.0,0.0,0.0,0.0,0.0,0.0,0.0,0.0,0.0,0.0,0.0,0.0,0.0,0.0,0.0,0.0,0.0,0.0,0.0,0.0,0.0,0.0,0.0,0.0,0.0,0.0,0.0,0.0,0.0,0.0,0.0,0.0,0.0,0.0,0.0,0.0,0.0,0.0,0.0,0.0,0.0,0.0,0.0,0.0,0.0,0.0,0.0,0.0,0.0,0.0,0.0,0.0,0.0,0.0,0.0,0.0,0.0,0.0,0.0,0.0,0.0,0.0,0.0,0.0,0.0,0.0,0.0,0.0,0.0,0.0,0.0,0.0,0.0,0.0,0.0,0.0,0.0,0.0,0.0,0.0,0.0,0.0,0.0,0.0,0.0,0.0,0.0,0.0,0.0,0.0,0.0,0.0,0.0,0.0,0.0,0.0,0.0,0.0,0.0,0.0,1.9401,1.9401,1.9428,1.9639,1.9722,1.947,1.9391,1.9092,1.847,1.8135,0.0,0.0,0.0,0.0,0.0,0.0,0.0,0.0,0.0,0.0,0.0,0.0,0.0,0.0,0.0,0.0,0.0,0.0,0.0,0.0,0.0,0.0,0.0,0.0,0.0,0.0,0.0,0.0,0.0,0.0,0.0,0.0,0.0,0.0,0.0,0.0,0.0,0.0,0.0,0.0,0.0,0.0,0.0,0.0,0.0,0.0,0.0,0.0,0.0,0.0,0.0,0.0,0.0,0.0,0.0,0.0,0.0,0.0,0.0,0.0,0.0,0.0,0.0,0.0,0.0,0.0,0.0,0.0,0.0,0.0,0.0,0.0,0.0,0.0,0.0,0.0,0.0,0.0,0.0,0.0,0.0,0.0,0.0,0.0,0.0,0.0,0.0,0.0,0.0,0.0,0.0,0.0,0.0,0.0,0.0,0.0,0.0,0.0,0.0,0.0,0.0,0.0,1.9401,1.9401,0.0,1.9495,1.9522,1.9401,1.9378,1.9099,1.8428,0.0,0.0,0.0,0.0,0.0,0.0,0.0,0.0,0.0,0.0,0.0,0.0,0.0,0.0,0.0,0.0,0.0,0.0,0.0,0.0,0.0,0.0,0.0,0.0,0.0,0.0,0.0,0.0,0.0,0.0,0.0,0.0,0.0,0.0,0.0,0.0,0.0,0.0,0.0,0.0,0.0,0.0,0.0,0.0,0.0,0.0,0.0,0.0,0.0,0.0,0.0,0.0,0.0,0.0,0.0,0.0,0.0,0.0,0.0,0.0,0.0,0.0,0.0,0.0,0.0,0.0,0.0,0.0,0.0,0.0,0.0,0.0,0.0,0.0,0.0,0.0,0.0,0.0,0.0,0.0,0.0,0.0,0.0,0.0,0.0,0.0,0.0,0.0,0.0,0.0,0.0,0.0,0.0,0.0,0.0,0.0,0.0,0.0,0.0,0.0,0.0,0.0,1.9332,1.9401,1.9401,0.0,1.9401,1.9401,1.9401,1.9301,1.9039,1.859,0.0,0.0,0.0,0.0,0.0,0.0,0.0,0.0,0.0,0.0,0.0,0.0,0.0,0.0,0.0,0.0,0.0,0.0,0.0,0.0,0.0,0.0,0.0,0.0,0.0,0.0,0.0,0.0,0.0,0.0,0.0,0.0,0.0,0.0,0.0,0.0,0.0,0.0,0.0,0.0,0.0,0.0,0.0,0.0,0.0,0.0,0.0,0.0,0.0,0.0,0.0,0.0,0.0,0.0,0.0,0.0,0.0,0.0,0.0,0.0,0.0,0.0,0.0,0.0,0.0,0.0,0.0,0.0,0.0,0.0,0.0,0.0,0.0,0.0,0.0,0.0,0.0,0.0,0.0,0.0,0.0,0.0,0.0,0.0,0.0,0.0,0.0,0.0,0.0,0.0,0.0,0.0,0.0,0.0,0.0,0.0,0.0,0.0,0.0,0.0,0.0,0.0,1.9361,1.9401,1.9401,1.9401,1.9401,1.9401,1.9401,1.9084,1.891,0.0,0.0,0.0,0.0,0.0,0.0,0.0,0.0,0.0,0.0,0.0,0.0,0.0,0.0,0.0,0.0,0.0,0.0,0.0,0.0,0.0,0.0,0.0,0.0,0.0,0.0,0.0,0.0,0.0,0.0,0.0,0.0,0.0,0.0,0.0,0.0,0.0,0.0,0.0,0.0,0.0,0.0,0.0,0.0,0.0,0.0,0.0,0.0,0.0,0.0,0.0,0.0,0.0,0.0,0.0,0.0,0.0,0.0,0.0,0.0,0.0,0.0,0.0,0.0,0.0,0.0,0.0,0.0,0.0,0.0,0.0,0.0,0.0,0.0,0.0,0.0,0.0,0.0,0.0,0.0,0.0,0.0,0.0,0.0,0.0,0.0,0.0,0.0,0.0,0.0,0.0,0.0,0.0,0.0,0.0,0.0,0.0,0.0,0.0,0.0,0.0,0.0,0.0,1.9388,1.9401,1.9401,1.9401,1.9401,1.9401,1.9401,1.9301,1.9156,1.891,0.0,0.0,0.0,0.0,0.0,0.0,0.0,0.0,0.0,0.0,0.0,0.0,0.0,0.0,0.0,0.0,0.0,0.0,0.0,0.0,0.0,0.0,0.0,0.0,0.0,0.0,0.0,0.0,0.0,0.0,0.0,0.0,0.0,0.0,0.0,0.0,0.0,0.0,0.0,0.0,0.0,0.0,0.0,0.0,0.0,0.0,0.0,0.0,0.0,0.0,0.0,0.0,0.0,0.0,0.0,0.0,0.0,0.0,0.0,0.0,0.0,0.0,0.0,0.0,0.0,0.0,0.0,0.0,0.0,0.0,0.0,0.0,0.0,0.0,0.0,0.0,0.0,0.0,0.0,0.0,0.0,0.0,0.0,0.0,0.0,0.0,0.0,0.0,0.0,0.0,0.0,0.0,0.0,0.0,0.0,0.0,0.0,0.0,0.0,0.0,0.0,0.0,1.9575,1.9639,1.972,1.972,1.972,1.972,1.972,1.972,1.9607,1.9269,0.0,0.0,0.0,0.0,0.0,0.0,0.0,0.0,0.0,0.0,0.0,0.0,0.0,0.0,0.0,0.0,0.0,0.0,0.0,0.0,0.0,0.0,0.0,0.0,0.0,0.0,0.0,0.0,0.0,0.0,0.0,0.0,0.0,0.0,0.0,0.0,0.0,0.0,0.0,0.0,0.0,0.0,0.0,0.0,0.0,0.0,0.0,0.0,0.0,0.0,0.0,0.0,0.0,0.0,0.0,0.0,0.0,0.0,0.0,0.0,0.0,0.0,0.0,0.0,0.0,0.0,0.0,0.0,0.0,0.0,0.0,0.0,0.0,0.0,0.0,0.0,0.0,0.0,0.0,0.0,0.0,0.0,0.0,0.0,0.0,0.0,0.0,0.0,0.0,0.0,0.0,0.0,0.0,0.0,0.0,0.0,0.0,0.0,0.0,0.0,0.0,0.0,1.984,2.0037,2.0197,2.0197,2.0197,2.0197,2.0197,2.0197,2.009,1.9853,0.0,0.0,0.0,0.0,0.0,0.0,0.0,0.0,0.0,0.0,0.0,0.0,0.0,0.0,0.0,0.0,0.0,0.0,0.0,0.0,0.0,0.0,0.0,0.0,0.0,0.0,0.0,0.0,0.0,0.0,0.0,0.0,0.0,0.0,0.0,0.0,0.0,0.0,0.0,0.0,0.0,0.0,0.0,0.0,0.0,0.0,0.0,0.0,0.0,0.0,0.0,0.0,0.0,0.0,0.0,0.0,0.0,0.0,0.0,0.0,1.8685,0.0,0.0,0.0,0.0,0.0,0.0,0.0,0.0,0.0,0.0,0.0,0.0,0.0,0.0,0.0,0.0,0.0,0.0,0.0,0.0,0.0,0.0,0.0,0.0,0.0,0.0,0.0,0.0,0.0,0.0,0.0,0.0,0.0,0.0,0.0,0.0,0.0,0.0,0.0,0.0,0.0,2.0104,2.0157,2.0197,2.0197,2.0197,2.0197,2.0197,2.0197,2.0184,2.0117,2.0104,0.0,0.0,0.0,0.0,0.0,0.0,0.0,0.0,0.0,0.0,0.0,0.0,0.0,0.0,0.0,0.0,0.0,0.0,0.0,0.0,0.0,0.0,0.0,0.0,0.0,0.0,0.0,0.0,0.0,0.0,0.0,0.0,0.0,0.0,0.0,0.0,0.0,0.0,0.0,0.0,0.0,0.0,0.0,0.0,0.0,0.0,0.0,0.0,0.0,0.0,0.0,0.0,0.0,0.0,0.0,0.0,0.0,0.0,0.0,0.0,1.9048,0.0,0.0,0.0,0.0,0.0,0.0,0.0,0.0,0.0,0.0,0.0,0.0,0.0,0.0,0.0,0.0,0.0,0.0,0.0,0.0,0.0,0.0,0.0,0.0,0.0,0.0,0.0,0.0,0.0,0.0,0.0,0.0,0.0,0.0,0.0,0.0,0.0,0.0,0.0,0.0,2.0441,2.0695,2.0815,2.0637,2.0788,2.0802,2.0637,2.0624,2.0601,2.0454,2.0441,0.0,0.0,0.0,0.0,0.0,0.0,0.0,0.0,0.0,0.0,0.0,0.0,0.0,0.0,0.0,0.0,0.0,0.0,0.0,0.0,0.0,0.0,0.0,0.0,0.0,0.0,0.0,0.0,0.0,0.0,0.0,0.0,0.0,0.0,0.0,0.0,0.0,0.0,0.0,0.0,0.0,0.0,0.0,0.0,0.0,0.0,0.0,0.0,0.0,0.0,0.0,0.0,0.0,2.1686,2.185,2.2147,2.2147,2.2175,2.2079,2.1166,2.0396,1.9704,0.0,0.0,0.0,0.0,0.0,0.0,0.0,0.0,0.0,0.0,0.0,0.0,0.0,0.0,0.0,0.0,0.0,0.0,0.0,0.0,0.0,0.0,0.0,0.0,0.0,2.0323,2.0455,0.0,0.0,0.0,0.0,0.0,0.0,0.0,0.0,0.0,0.0,0.0,0.0,2.086,2.1288,2.1515,2.1283,2.1515,2.1555,2.1283,2.1216,2.1082,2.0873,2.0806,2.0765,0.0,0.0,0.0,0.0,0.0,0.0,0.0,0.0,0.0,0.0,0.0,0.0,0.0,0.0,0.0,0.0,0.0,0.0,0.0,0.0,0.0,0.0,0.0,0.0,0.0,0.0,0.0,0.0,0.0,0.0,0.0,0.0,1.9946,1.936,0.0,0.0,0.0,0.0,0.0,0.0,0.0,0.0,0.0,0.0,0.0,0.0,0.0,2.0988,2.107,2.1051,2.138,2.2039,2.2039,2.2295,2.2777,2.2777,2.2794,2.2754,2.2613,0.0,2.1222,2.0266,0.0,0.0,0.0,0.0,0.0,0.0,0.0,0.0,0.0,0.0,0.0,0.0,0.0,0.0,0.0,0.0,0.0,0.0,0.0,0.0,0.0,0.0,2.1344,2.1344,2.1577,2.175,0.0,2.0917,2.0197,2.0197,0.0,0.0,0.0,0.0,0.0,0.0,0.0,0.0,2.1435,2.1542,2.1662,2.1844,2.1911,2.1943,2.1903,2.1676,2.1515,2.1475,2.1189,2.1042,2.1052,2.1324,0.0,0.0,0.0,0.0,0.0,0.0,0.0,0.0,0.0,0.0,0.0,0.0,0.0,0.0,0.0,0.0,0.0,0.0,0.0,0.0,0.0,0.0,0.0,0.0,0.0,0.0,0.0,0.0,0.0,2.0477,2.0656,2.0184,2.04,2.04,0.0,0.0,0.0,0.0,0.0,0.0,0.0,0.0,0.0,2.1923,2.2076,2.2236,2.2388,2.2378,2.2624,2.3044,2.2856,2.3004,2.3423,2.3423,2.3421,2.3415,2.3415,2.3177,2.2741,2.1457,2.0779,2.0406,0.0,0.0,0.0,0.0,1.9934,2.0396,2.0278,2.0206,0.0,0.0,0.0,0.0,0.0,0.0,0.0,0.0,0.0,0.0,0.0,0.0,0.0,2.2044,2.2291,2.2519,2.2519,2.1937,2.1363,0.0,2.1007,2.0922,2.0762,0.0,0.0,0.0,0.0,2.1502,2.1796,2.197,2.2031,2.1991,2.2124,2.2164,2.2004,2.1903,2.1823,2.1823,2.1555,2.1395,2.1395,2.151,2.1596,0.0,0.0,0.0,0.0,0.0,0.0,0.0,0.0,0.0,0.0,0.0,0.0,0.0,0.0,0.0,0.0,0.0,0.0,0.0,0.0,0.0,0.0,0.0,0.0,0.0,0.0,0.0,0.0,2.0941,2.1306,2.1189,2.1423,2.135,0.0,0.0,0.0,0.0,0.0,0.0,2.1961,2.2124,2.2397,2.272,2.3057,2.3294,2.3501,2.3625,2.3798,2.4015,2.3767,2.3821,2.4138,2.4138,2.4178,2.4222,2.4222,2.4205,2.4022,2.2545,2.1838,2.1582,2.0987,2.0948,2.1143,2.0961,2.1052,2.13,2.1402,2.144,2.1453,2.1561,0.0,2.0805,2.054,0.0,0.0,0.0,0.0,2.2325,2.2325,2.2539,2.2779,2.2859,2.3046,2.3255,2.3335,2.314,2.2752,0.0,2.1743,2.1622,2.1376,0.0,0.0,0.0,0.0,2.1917,2.2211,2.2472,2.2592,2.2458,2.2632,2.2672,2.2492,2.2331,2.2238,2.2238,2.1903,2.1703,2.1703,2.1764,2.1833,2.1833,0.0,0.0,0.0,0.0,0.0,0.0,0.0,0.0,0.0,0.0,0.0,0.0,0.0,0.0,0.0,0.0,0.0,0.0,0.0,0.0,0.0,0.0,0.0,0.0,0.0,0.0,0.0,0.0,0.0,2.2431,2.2504,0.0,0.0,0.0,0.0,2.1971,2.2247,2.26,2.2907,2.2882,2.3017,2.3318,2.3625,2.3758,2.3772,2.4298,2.4556,2.4569,2.4532,2.473,2.501,2.501,2.517,2.5424,2.5424,2.5264,2.4917,2.3705,2.3212,2.3137,2.2521,2.2506,2.2772,2.2705,2.2893,2.3225,2.3519,2.3625,2.3585,2.3284,2.2564,2.1781,2.1495,2.1632,0.0,0.0,2.2772,2.3225,2.3225,2.3474,2.3768,2.4048,2.4128,2.4209,2.4452,2.4492,2.4066,0.0,2.2151,2.1964,2.1951,0.0,2.1951,2.1997,2.2205,2.2485,2.2813,2.3086,2.338,2.3696,2.3723,2.3736,2.3723,2.3188,2.2853,2.2853,2.2318,2.1964,2.1964,2.2279,2.2462,2.2462,2.279,0.0,0.0,0.0,0.0,0.0,0.0,0.0,0.0,0.0,0.0,0.0,0.0,0.0,0.0,0.0,0.0,0.0,0.0,0.0,0.0,0.0,0.0,0.0,0.0,0.0,0.0,0.0,0.0,2.2517,2.2712,0.0,2.2803,2.2999,2.2981,2.2602,2.3248,2.3619,2.3521,2.3806,2.4044,2.4152,2.4469,2.4646,2.4646,2.501,2.5197,2.5197,2.5197,2.5251,2.5358,2.5358,2.5411,2.5518,2.5518,2.5451,2.5331,2.4903,2.4479,2.4119,2.3904,2.39,2.3986,2.3984,2.4024,2.4146,2.4252,2.4329,2.4275,2.3981,2.355,2.3099,2.2993,2.3033,2.3187,2.3479,2.3728,2.3928,2.4079,2.4396,2.4673,2.4743,2.4917,2.5077,2.517,2.505,2.477,2.4235,2.3629,2.3073,2.2886,2.2686,2.2653,2.2819,2.2905,2.3113,2.3442,2.3541,2.3647,2.379,2.3803,2.3803,2.3803,2.3603,2.3402,2.318,2.2779,2.2492,2.2271,2.2217,2.2188,2.2188,2.2504,2.2678,0.0,0.0,0.0,0.0,0.0,0.0,0.0,0.0,0.0,0.0,0.0,0.0,0.0,0.0,0.0,0.0,0.0,0.0,0.0,0.0,0.0,0.0,0.0,0.0,0.0,0.0,2.2857,2.3228,2.3493,2.3621,2.3659,2.3901,2.3839,2.3492,2.4237,2.4611,2.4392,2.4917,2.5224,2.5224,2.5518,2.5665,2.5665,2.5959,2.6106,2.6106,2.6106,2.6106,2.6106,2.6106,2.6106,2.6106,2.6106,2.6106,2.6106,2.6106,2.5879,2.5478,2.5053,2.4893,2.4893,2.4893,2.4893,2.4893,2.4893,2.4893,2.4853,2.4596,2.4369,2.4231,2.4088,2.4128,2.4285,2.4449,2.4569,2.4716,2.501,2.5224,2.5462,2.5625,2.5812,2.5985,2.6079,2.5959,2.585,2.585,2.4863,2.3995,2.3772,2.3594,2.3527,2.3705,2.3825,2.3995,2.4231,2.4338,2.4356,2.4356,2.4356,2.4352,2.4258,2.4115,2.3941,2.3599,2.3247,2.2926,2.2705,2.2445,2.2318,2.2318,2.251,2.2621,2.2654,0.0,0.0,0.0,0.0,0.0,0.0,0.0,0.0,0.0,0.0,0.0,0.0,0.0,0.0,0.0,0.0,0.0,0.0,0.0,0.0,0.0,0.0,0.0,2.3018,2.3046,2.3473,2.4651,2.4804,2.4947,2.5212,2.5244,2.5059,2.469,2.5224,2.5558,2.5558,2.6106,2.6413,2.6413,2.6694,2.6854,2.6854,2.7148,2.7336,2.7336,2.7336,2.7336,2.7336,2.7336,2.7336,2.7336,2.7336,2.7336,2.7336,2.7336,2.7336,2.7215,2.6026,2.5571,2.5571,2.5571,2.5571,2.5571,2.5571,2.5558,2.5504,2.5224,2.5168,2.5064,2.4746,2.489,2.5117,2.5168,2.5331,2.5625,2.5957,2.6038,2.6185,2.6707,2.6841,2.6907,2.7242,2.7309,2.7309,2.7309,2.5879,2.4679,2.4666,2.4666,2.4653,2.4653,2.493,0.0,2.5155,2.5371,2.5545,2.5545,2.5531,2.5411,2.5168,2.4836,2.4506,2.4249,2.3652,2.3332,2.3332,2.3073,2.2934,2.2934,2.2957,2.2943,2.2929,0.0,0.0,0.0,0.0,0.0,0.0,0.0,0.0,0.0,0.0,0.0,0.0,0.0,0.0,0.0,0.0,0.0,0.0,0.0,0.0,0.0,2.3061,2.3502,2.3249,2.3626,2.42,2.4941,2.5202,2.5448,2.5749,2.5978,2.6022,2.5905,2.6253,2.6427,2.6427,2.6814,2.7068,2.7068,2.7308,2.7455,2.7455,2.7791,2.7938,2.7938,2.7938,2.7938,2.7938,2.7938,2.7938,2.7938,2.7938,2.7938,2.7938,2.7938,2.7938,2.7871,2.7122,2.6827,2.6827,2.6827,2.6827,2.6827,2.6827,2.664,2.6453,2.6373,2.6199,2.6012,2.5932,2.5959,2.6066,2.6279,2.64,2.6533,2.6867,2.6948,2.6988,2.7148,2.7148,2.7202,2.7282,2.7309,2.7309,2.7309,2.6921,2.648,2.6253,2.6052,2.5905,2.5905,2.5972,0.0,2.6026,2.6092,2.6146,2.6146,2.5959,2.5837,2.5757,2.5438,2.5144,2.4863,2.4489,2.4239,2.4239,2.3995,2.3834,2.3834,2.3825,2.3749,0.0,0.0,0.0,0.0,0.0,0.0,0.0,0.0,0.0,0.0,0.0,0.0,0.0,0.0,0.0,0.0,0.0,0.0,0.0,0.0,0.0,0.0,2.3874,2.4377,2.4408,2.4647,2.5006,2.5583,2.5879,2.6172,2.6519,2.6814,2.6934,2.6934,2.7335,2.7562,2.7562,2.7856,2.8003,2.8003,2.8177,2.8257,2.8257,2.843,2.8524,2.8524,2.8524,2.8524,2.8524,2.8524,2.8524,0.0,2.8524,2.8524,2.8524,2.8524,2.8524,0.0,0.0,0.0,0.0,0.0,2.7309,2.7309,2.7309,2.7148,2.7001,2.7001,2.6894,2.68,2.68,2.68,2.6787,2.6961,2.7001,2.7081,2.7375,2.7483,2.7523,2.7643,2.767,2.767,2.767,2.767,2.767,2.767,2.767,0.0,2.7402,2.7028,2.68,2.68,2.68,2.68,2.68,2.68,2.68,2.68,2.6653,2.6493,2.6372,2.6052,0.0,0.0,0.0,2.477,2.4599,2.4439,0.0,0.0,0.0,2.4302,2.4142,0.0,0.0,0.0,2.3865,2.3747,0.0,0.0,0.0,0.0,0.0,0.0,0.0,0.0,0.0,0.0,0.0,0.0,0.0,0.0,0.0,0.0,2.4844,2.5436,2.6051,2.5932,2.5985,2.648,2.68,2.7081,2.7429,2.7682,2.7856,2.7856,2.835,2.8657,2.8657,0.0,0.0,0.0,0.0,2.9041,2.9041,2.9081,2.9095,2.9095,2.9095,2.9095,2.9095,2.9095,2.9095,2.9095,2.9095,2.9095,2.9095,2.9095,2.9081,2.8961,2.8177,2.7856,2.7816,2.7562,2.7483,2.7456,2.7456,0.0,0.0,2.7403,2.7403,2.7403,2.7403,2.7403,2.7403,2.7403,2.7403,2.7469,2.7682,2.7749,2.7816,2.8125,2.8179,2.8179,2.8179,2.8179,2.8179,2.8179,2.8179,2.8179,2.8179,2.775,2.7403,2.7403,2.7403,2.7403,2.7403,2.7403,2.7403,2.7403,0.0,0.0,2.6947,2.6653,2.6412,2.6158,2.565,2.5197,2.4853,2.4879,2.4866,2.4799,2.4799,2.4759,2.4693,2.4693,2.4839,2.5117,2.4556,2.4315,0.0,0.0,0.0,0.0,0.0,0.0,0.0,0.0,0.0,0.0,0.0,0.0,0.0,0.0,0.0,2.4861,2.5447,2.6118,2.6934,2.7416,2.763,2.7455,2.775,2.8045,2.8323,2.8604,2.8735,2.8735,2.8841,2.8908,2.8908,2.8961,2.9001,2.9001,2.9272,2.9392,2.9392,2.9633,2.9753,2.9753,0.0,0.0,2.9753,2.9753,2.9753,2.9753,2.9753,2.9753,2.9753,2.9753,2.9606,2.9352,2.8895,2.8735,2.8735,2.8668,2.8551,2.835,2.835,2.8219,2.8018,2.8018,2.8018,2.8018,2.8018,2.8018,0.0,2.8018,2.8018,2.8031,2.8085,2.8098,2.8112,2.8165,2.8179,2.8179,2.8179,2.8179,2.8179,2.8179,2.8179,2.8179,2.8179,2.8085,2.8018,2.8018,2.8018,2.8018,2.8018,2.8018,2.8018,2.8018,2.7804,2.7589,2.7535,2.7268,2.7108,2.7055,2.6948,2.6707,2.6373,2.6627,2.6533,2.6066,2.6052,2.5812,2.5344,2.5344,2.5371,2.5424,2.5077,2.5037,0.0,0.0,0.0,0.0,0.0,0.0,0.0,0.0,0.0,0.0,0.0,2.3791,2.4383,0.0,2.5033,2.6024,2.6586,2.7135,2.7829,2.831,2.8484,2.819,2.8417,2.8657,2.8804,2.9085,2.9259,2.9259,2.9348,2.9428,2.9428,2.9428,2.9428,2.9428,2.9619,2.97,2.97,2.9847,2.9913,2.9913,2.9913,2.9913,2.9913,2.9913,2.9913,2.9913,2.9913,2.9913,2.9913,2.9913,2.9833,2.9686,2.9539,2.9255,2.9001,2.9001,2.8908,2.8775,2.8775,2.8724,2.8564,2.8417,2.8419,2.8419,2.8419,2.8419,2.8446,2.8551,2.8591,2.8591,2.8591,2.8484,2.8419,2.8419,2.8299,2.8179,2.8179,2.8179,2.8179,2.8179,2.8179,2.8179,2.8179,2.8179,2.8179,2.8179,2.8179,2.8179,2.8179,2.8179,2.8179,2.8179,2.8045,2.7965,2.7965,2.7655,2.7415,2.7322,2.7309,2.7242,2.7054,2.7229,2.7162,2.6881,2.6867,2.668,2.6386,2.6386,2.6386,2.6386,2.6239,2.6051,0.0,0.0,0.0,0.0,0.0,0.0,0.0,2.3559,2.3734,2.4323,2.4263,2.4485,2.5626,2.5655,2.5984,2.7349,2.7722,2.8083,2.8698,2.8978,2.9058,2.8885,2.9018,2.9108,2.9161,2.9432,2.9566,2.9566,2.978,2.9913,2.9913,2.9913,2.9913,2.9913,2.9913,2.9913,2.9913,2.9913,2.9913,2.9913,2.9913,2.9913,2.9913,2.9913,2.9913,2.9913,2.9913,2.9913,2.9913,2.9913,2.9913,2.9913,2.9913,2.9588,2.9161,2.9161,2.9135,2.9081,2.9081,2.9041,2.8961,2.8764,2.8684,2.8684,2.8684,2.8684,2.8738,2.8935,2.9001,2.9001,2.9001,2.8775,2.8604,2.8604,2.8406,2.8179,2.8179,2.8179,2.8179,2.8179,2.8179,2.8179,2.8179,2.8179,2.8179,2.8179,2.8179,2.8179,2.8179,2.8179,2.8179,2.8179,2.8179,2.8179,2.8179,2.7965,2.7682,2.7496,2.7483,2.7483,2.7483,2.7483,2.7443,2.7389,2.7389,2.7362,2.7309,2.7309,2.7309,2.7309,2.7309,2.6921,2.3447,2.3199,2.3079,2.3331,2.3381,2.3487,0.0,2.4191,2.435,2.4916,2.5164,2.5583,2.6493,2.6881,2.7376,2.8297,2.8484,2.8711,2.9299,2.9419,2.9513,2.974,2.9566,2.9539,2.9793,2.9847,2.9873,2.9873,2.99,2.9913,2.9913,2.9913,2.9913,2.9913,2.9913,2.9913,2.9913,2.9913,2.9913,2.9913,2.9913,2.9913,2.9913,2.9913,2.9913,2.9913,2.9913,2.9913,2.9913,2.9913,2.9913,2.9913,2.9913,2.9873,2.982,2.982,2.9659,2.9432,2.9432,2.9259,2.8988,2.8961,2.8948,2.8948,2.8948,2.8948,2.8948,2.8988,2.9001,2.9001,2.9001,2.8775,2.8604,2.8604,2.8406,2.8179,2.8179,2.8179,2.8179,2.8179,2.8179,2.8179,2.8179,2.8179,2.8179,2.8179,2.8179,2.8179,2.8179,2.8179,2.8179,2.8179,2.8179,2.8179,2.8179,2.8152,2.8125,2.8085,2.8085,2.8085,2.8085,2.8085,2.7965,2.7655,2.7655,2.7522,2.7309,2.7309,2.7309,2.7309,2.7309,2.7255,2.3728,2.3507,2.337,2.3997,2.411,2.4254,2.4865,2.5158,2.5478,2.6246,2.6478,2.68,2.7696,2.7963,2.8283,2.9005,2.9112,2.9259,2.9673,2.974,2.978,2.99,2.9806,2.978,2.99,2.9913,2.9913,2.9913,2.9913,2.9913,2.9913,2.9913,2.9913,2.9913,2.9913,2.9913,2.9913,3.0087,3.0181,3.0181,3.0022,2.9978,2.9965,2.969,2.9462,2.9294,2.9138,2.9105,2.9105,2.9105,2.9105,2.9105,2.9105,2.9105,2.915,2.9689,2.9847,2.974,2.974,2.9659,2.9482,2.9352,2.9299,2.9299,2.9299,2.9299,2.9339,2.9499,2.9508,2.9508,2.9508,2.9339,2.9112,2.9112,2.8885,2.8657,2.8657,2.8657,2.8657,2.8657,2.8657,2.8657,2.8657,2.8657,2.8657,2.8657,2.8406,2.8179,2.8179,2.8179,2.8179,2.8179,2.8179,2.8179,2.8179,2.8179,2.8179,2.8179,2.8179,2.8179,2.8179,2.8179,2.8125,2.8005,2.8005,2.7938,2.7817,2.7817,2.7817,2.7817,2.7817,2.7817,2.3927,2.3839,2.3812,2.4707,2.4864,2.5039,2.5825,2.6159,2.6613,2.7496,2.7684,2.7883,2.8698,2.8845,2.9018,2.9526,2.9606,2.9673,2.9887,2.9913,2.9887,2.9806,2.986,2.9887,2.9806,2.9873,2.9913,2.9913,2.9913,2.9953,3.0034,3.0034,2.9984,2.9928,2.9928,2.9883,2.9747,2.9958,3.0109,3.0063,2.9905,2.9824,2.9824,2.944,2.9187,2.8996,2.8792,2.8703,2.8703,2.8627,2.8589,2.8589,2.8513,2.8474,2.8565,2.924,2.951,2.951,2.951,2.951,2.9483,2.9272,2.9206,2.9251,2.9371,2.9429,2.9468,2.9815,2.9913,2.9913,2.9913,2.97,2.9486,2.9486,2.9259,2.8945,2.8814,2.8814,2.877,2.8653,2.8609,2.864,2.877,2.8814,2.8857,2.9001,2.8671,2.8433,2.8433,2.8433,2.8433,2.8433,2.8433,2.8433,2.8433,2.8433,2.8433,2.8433,2.8433,2.8433,2.8433,2.8433,2.8393,2.8312,2.8312,2.8272,2.8179,2.8179,2.8179,2.8179,2.8179,2.8232,2.4214,2.4228,2.4369,2.5251,2.5478,2.5785,2.6988,2.7255,2.7523,2.8377,2.8564,2.8751,2.9352,2.9459,2.9553,2.986,2.99,2.99,2.9913,2.9913,2.9806,2.9526,2.9753,2.9806,2.9526,2.9753,2.9913,2.9913,2.9913,3.0047,3.0373,3.0386,3.0246,3.003,2.9983,2.9798,2.9322,2.9335,2.9335,2.9335,2.9347,2.9301,2.9301,2.9301,2.9301,2.9288,2.9276,2.9276,2.9263,2.8996,2.8881,2.8856,2.8576,2.8474,2.8474,2.852,2.852,2.852,2.852,2.852,2.852,2.852,2.8507,2.8597,2.9079,2.9214,2.9304,2.9779,2.9913,2.9913,2.9913,2.97,2.9486,2.9486,2.9259,2.8871,2.8422,2.8321,2.8203,2.7735,2.7648,2.7766,2.8247,2.8321,2.8465,2.8945,2.8988,2.8961,2.8961,2.8961,2.8961,2.8961,2.8961,2.8961,2.8961,2.8961,2.8961,2.8961,2.8961,2.8961,2.8961,2.8961,2.8841,2.8604,2.8591,2.8444,2.8179,2.8179,2.8179,2.8179,2.8179,2.8353,2.4632,2.4924,2.5331,2.6413,2.6827,2.7175,2.7976,2.831,2.8524,2.8788,2.8855,2.8855,2.8898,2.9058,2.9219,2.9268,2.9499,2.97,2.9887,2.9913,2.9887,2.978,2.986,2.9873,2.978,2.986,0.0,2.9913,2.9784,2.9761,2.9853,2.9762,2.9628,2.9533,2.9533,2.944,2.9301,2.9479,2.9581,2.9581,2.9441,2.9198,2.8818,2.8622,2.8583,2.8583,2.8398,2.8324,2.8312,2.8226,2.8189,2.8177,2.8091,2.8054,2.8054,2.8054,2.8054,2.8097,2.8375,2.8474,2.8474,2.8474,2.8474,2.852,2.87,2.8745,2.879,2.8925,2.897,2.897,2.897,2.8905,2.8828,2.8828,2.8763,2.8641,2.8462,2.8418,2.8373,2.8239,2.8195,2.8303,2.8661,2.8687,2.8796,2.917,2.9096,2.9001,2.9001,2.9001,2.9001,2.9001,2.9001,2.9001,2.9001,2.9001,2.9001,2.9001,2.9001,2.9001,2.9001,2.9001,2.8948,2.8855,2.8855,2.8801,2.8738,2.8738,2.8738,2.8738,2.8738,2.8791,2.5342,2.5838,2.64,2.7468,2.7883,2.8177,2.8778,2.8935,2.9028,2.9135,2.9032,2.8788,2.8644,2.8764,2.8825,2.8757,2.9022,2.9269,2.938,2.9375,2.9335,2.923,2.9309,2.9375,2.9375,2.9467,2.9623,2.9758,2.9521,2.9442,2.9648,2.9491,2.9398,2.9312,2.9325,2.9231,2.9043,2.9218,2.9305,2.9305,2.9205,2.8956,2.8572,2.8439,2.8355,2.8343,2.8174,2.8101,2.8089,2.7993,2.7956,2.7944,2.7848,2.7811,2.7811,2.7811,2.7811,2.7856,2.8161,2.8265,2.8265,2.8265,2.8265,2.8265,2.846,2.8506,2.8552,2.8734,2.8703,2.8652,2.8742,2.8703,2.8652,2.8754,2.878,2.8734,2.8552,2.8506,2.846,2.8265,2.8265,2.8373,2.8687,2.8896,2.9098,2.9276,2.919,2.9126,2.9126,2.9126,2.9126,2.9126,2.9259,2.9361,2.9361,2.9433,2.9513,2.9513,2.9375,2.9308,2.9308,2.9308,2.9255,2.9205,2.9205,2.9108,2.9001,2.9001,2.9001,2.9001,2.9001,2.9055,2.6213,2.6921,2.759,2.843,2.8657,2.8791,2.9352,2.9259,2.9095,2.9392,2.8978,2.8534,2.8508,2.8494,2.8416,2.8217,2.8473,2.8639,2.8501,2.8487,2.8398,2.8086,2.8347,2.8513,2.8467,2.8709,2.9057,2.954,0.0,2.9115,2.9636,2.9652,2.9602,2.9388,2.94,2.9112,2.8644,2.8632,2.862,2.862,2.862,2.862,2.862,2.862,2.862,2.862,2.862,2.862,2.8608,2.8331,2.8222,2.8198,2.7956,2.786,2.786,2.786,2.786,2.786,2.786,2.7836,2.7811,2.7811,2.7811,2.7858,2.8337,2.8477,2.857,2.9069,2.9018,2.8879,2.9145,2.9018,2.8937,2.9145,2.9208,2.9069,2.857,2.8477,2.8337,2.7905,2.7824,2.7976,2.8396,2.8921,2.9246,2.9246,2.9246,2.9293,2.9301,2.9301,2.9301,2.9301,2.9685,2.9963,2.9963,3.0221,3.0335,3.0335,3.0069,2.9877,2.9877,2.9864,2.9717,2.9482,2.9468,2.9278,2.8998,2.9011,2.9068,2.9068,2.9081,2.9242,2.7121,2.7802,2.843,2.9098,2.9259,2.9299,2.9446,2.9419,2.9272,2.8911,2.8281,2.763,2.7184,2.6856,2.671,2.6867,2.7273,2.7772,2.815,2.857,2.8754,2.8691,2.892,2.9098,2.9085,2.8791,2.8731,0.0,2.8943,2.8959,2.9096,2.9159,2.9128,2.9104,2.9104,2.9055,2.891,2.8717,2.862,2.862,2.862,2.862,2.862,2.862,2.862,2.862,2.862,2.862,2.8572,2.8548,2.8512,2.8512,2.8439,2.8415,2.8415,2.8415,2.8415,2.8415,2.8415,2.8149,2.7811,2.7811,2.7811,2.7811,2.7951,2.7998,2.7998,2.8138,2.8136,2.8099,2.8172,2.8136,2.8099,2.8172,2.8185,2.8138,2.7998,2.7998,2.7951,2.7811,2.7968,2.8148,2.8243,2.8567,2.8796,2.8796,2.8796,2.8886,2.9259,2.9301,2.9301,2.9301,2.9394,2.9487,2.9487,2.9561,2.9569,2.9569,2.9505,2.9453,2.9453,2.926,2.9118,2.9041,2.8835,2.8873,2.9152,2.9362,2.9647,3.0034,2.9839,2.9801,2.8043,2.8631,2.9098,2.9553,2.9579,2.9446,2.9312,2.8954,2.8476,2.8055,2.7255,2.6574,2.6238,2.6085,2.6055,2.6251,2.6725,2.7241,2.7705,2.8054,2.829,2.8414,2.8551,2.87,2.8812,2.8543,2.8527,0.0,2.8723,2.8698,2.8931,2.8995,2.9067,2.9188,2.9188,2.9188,2.9188,2.9043,2.897,2.897,2.897,2.897,2.8958,2.885,2.8801,2.8789,0.0,2.862,2.862,2.862,2.862,2.862,2.862,2.862,2.862,2.862,2.862,2.862,2.862,2.8427,2.8174,2.8174,2.8174,2.8174,2.8174,2.8174,2.8174,2.8174,2.8077,2.8005,2.8137,2.8077,2.8017,2.8137,2.8174,2.8174,2.8174,2.8174,2.8174,2.8174,2.8282,2.8391,2.8391,2.8524,2.862,2.862,2.862,2.8703,2.8966,2.8976,2.8976,2.8976,2.9199,2.9341,2.9341,2.9415,2.9479,2.9479,2.9365,2.9301,2.9301,2.9148,2.9072,2.9072,2.892,2.898,2.9241,2.9396,2.9611,2.9913,2.9746,2.9685,2.8828,2.9312,2.9606,2.986,2.97,2.9392,2.8971,2.8139,2.733,2.6963,2.6141,2.5458,2.5458,2.5605,2.5794,2.5887,2.6346,2.6842,2.7254,2.7377,2.7534,2.7824,2.7896,2.8029,2.8282,2.8306,2.8524,2.9031,2.8632,2.8572,2.9043,2.9103,2.9224,2.9453,2.9453,2.9441,2.9405,2.9405,2.9405,2.9405,2.9405,2.9405,2.9393,2.9139,2.9019,2.9006,0.0,0.0,2.862,2.862,2.862,2.862,2.862,2.862,2.862,2.862,2.862,2.862,2.862,2.862,2.862,2.862,2.862,2.862,2.862,2.862,2.862,2.862,2.8403,2.8211,2.8416,2.8296,2.8128,2.8368,2.838,2.8428,2.8476,2.8476,2.8476,2.8428,2.838,2.8428,2.8476,2.8476,2.8524,2.8572,2.862,2.8572,2.8524,2.8572,2.862,2.862,2.9004,2.928,2.928,2.9437,2.9536,2.9536,2.9355,2.9229,2.9229,2.9191,2.9166,2.9166,2.9128,2.9115,2.9208,2.9246,2.9318,2.9352,2.9356,2.9322,2.9299,2.9619,2.986,2.99,2.97,2.9251,2.8372,2.7653,2.6911,2.6023,2.5221,2.4686,2.4686,2.4575,2.4571,2.4804,2.5313,2.5899,2.6665,2.7102,2.7594,2.8077,2.8343,2.8584,2.885,2.8874,2.9006,0.0,2.9248,2.9236,2.9332,2.9538,2.9682,2.9731,2.9731,2.9622,2.9405,2.9405,2.9405,2.9405,2.9405,2.9405,2.9393,2.9139,2.9019,2.9006,2.8741,0.0,2.862,2.862,2.862,2.862,2.862,2.862,2.862,2.862,2.862,2.862,2.862,2.862,2.862,2.862,2.862,2.862,2.862,2.862,2.862,2.862,2.8248,2.7876,2.7923,2.7611,2.7299,2.7345,2.7357,2.7453,2.7839,2.7935,2.7839,2.7453,2.7357,2.7501,2.7887,2.7935,2.8079,2.8524,2.862,2.8428,2.7983,2.8332,2.862,2.862,2.8668,2.8716,2.8716,2.8764,2.8787,2.8787,2.8751,2.8726,2.8726,2.8495,2.8373,2.8373,2.8154,2.8231,2.8663,2.8934,2.9234,2.9644,2.946,2.9382,2.9593,2.9806,2.9913,2.9913,2.9402,2.8666,2.7745,2.6713,2.5687,2.4777,2.4269,2.3925,2.3925,2.4203,2.4439,2.4559,2.515,2.5825,2.6499,2.7042,2.7618,2.8137,2.8572,2.8874,2.9006,2.9139,2.9332,2.9586,2.961,2.961,2.961,2.9864,3.002,3.002,3.002,2.9948,2.9827,2.9827,2.9827,2.9827,2.9827,2.9743,2.9598,2.9332,2.9139,2.9006,2.8741,0.0,2.862,2.862,2.862,2.862,2.862,2.862,2.862,2.862,2.862,2.862,2.862,2.862,2.862,2.862,2.862,2.862,2.862,2.862,2.862,2.862,2.8236,2.7791,2.7791,2.7249,2.6766,2.7007,2.7104,2.7152,2.7405,2.7201,2.7056,2.7104,2.6863,2.6911,2.7694,2.7791,2.7983,2.8524,2.838,2.8079,2.7839,2.7666,2.7652,2.7802,2.7839,2.7839,2.7839,2.7839,2.7839,2.7839,2.7839,2.7935,2.8187,2.8057,2.8129,2.8427,2.8294,2.8329,2.8566,2.87,2.8904,2.9142,2.9039,2.9004,2.9753,2.9913,2.9855,2.9699,2.9022,2.8087,2.6993,2.5732,2.4579,2.3671,2.341,2.333,2.333,2.3969,2.4499,2.4499,2.5126,2.5825,2.6415,2.6957,2.7546,2.8137,2.8681,2.9031,2.9091,2.9332,2.9598,2.9864,2.9888,2.9888,2.9888,3.0093,3.0214,3.0214,3.0214,3.0214,3.0214,3.0214,3.0214,3.0214,3.0214,3.0069,2.9791,2.9526,2.926,2.9006,2.8741,0.0,0.0,2.862,2.862,2.862,2.862,2.862,2.862,2.862,2.862,2.862,2.862,2.862,2.862,2.862,2.862,2.862,2.862,2.862,2.862,2.862,2.8139,2.7646,2.7501,2.6669,2.5895,2.6331,2.6573,2.6718,2.6621,2.6234,2.604,2.6379,2.6089,2.6137,2.7115,2.7405,2.7669,2.8259,2.7873,2.7497,2.7313,2.6506,2.601,2.601,2.6438,2.6659,2.6506,2.6457,2.6532,2.6573,2.6669,2.7007,2.7646,2.7742,2.8031,2.8572,2.862,2.862,2.862,2.862,2.862,2.862,2.862,2.8656,2.9753,2.9913,2.9757,2.9091,2.8657,2.7918,2.5999,2.5048,2.4214,2.3042,2.2975,2.3118,2.3118,2.3731,2.4234,2.4234,2.4704,2.5343,2.6146,2.668,2.7353,2.8113,2.8681,2.9103,2.9344,2.961,2.9876,3.0153,3.0177,3.0177,3.0177,3.0202,3.0214,3.0214,3.0214,3.0214,3.0214,3.0214,3.0214,3.0214,3.0214,3.0069,2.9791,2.9526,2.926,2.9006,2.8741,0.0,0.0,2.862,2.862,2.862,2.862,2.862,2.862,2.862,2.862,2.862,2.862,2.862,2.862,2.862,2.862,2.862,2.862,2.862,2.862,2.862,2.7887,2.7056,2.6573,2.5313,2.4194,2.4253,2.4984,2.5518,2.5032,2.4876,2.473,2.4351,2.4253,2.4546,2.5518,2.61,2.6674,2.7376,2.7067,2.6458,2.5734,2.4657,2.3606,2.2643,2.4287,2.5202,2.4501,2.4491,2.4595,2.4914,2.5399,2.6078,2.7104,2.7598,2.8031,2.8572,2.862,2.862,2.862,2.862,2.862,2.862,2.862,2.8753,2.9446,2.9556,2.9386,2.8919,2.8147,2.7131,2.5512,2.4603,2.3772,2.2685,2.2659,2.2901,2.3058,2.3562,2.3957,2.3957,2.4403,2.4981,2.562,2.6162,2.6894,2.786,2.8584,2.9115,2.9381,2.9791,3.0093,3.0202,3.0214,3.0214,3.0214,3.0214,3.0214,3.0214,3.0214,3.0214,3.0214,3.0214,3.0214,3.0214,3.0214,2.9984,2.9562,2.9453,2.9175,2.8777,2.8669,0.0,0.0,2.862,2.862,2.862,2.862,2.862,2.862,2.862,2.862,2.862,2.862,2.838,2.8128,2.8128,2.7935,2.7742,2.8031,2.8128,2.8031,2.7791,2.6922,2.61,2.5858,2.4924,2.3863,2.317,2.3863,2.4448,2.3902,2.3621,2.3523,2.3671,2.3523,2.3809,2.5207,2.5296,2.5426,2.6056,2.5422,2.4607,2.3987,2.3055,2.2013,2.0901,2.1997,2.2694,2.2419,2.2409,2.2631,2.3104,2.3938,2.5088,2.6518,2.7365,2.8211,2.9042,2.9091,2.9091,2.9091,2.9091,2.9091,2.9091,2.9091,2.9151,2.8848,2.8991,2.8825,2.8274,2.7466,2.6406,2.4952,2.4165,2.3414,2.2502,2.2574,2.2864,2.3084,2.3478,2.38,2.38,2.4246,2.4752,2.521,2.5873,2.6653,2.7486,2.8427,2.9091,2.9272,2.9851,3.0214,3.0214,3.0214,3.0214,3.0214,3.0214,3.0214,3.0214,3.0214,3.0214,3.0214,3.0214,3.0214,3.0214,3.0214,2.9835,2.9158,2.9158,2.8773,2.8187,0.0,0.0,0.0,2.8187,2.8187,2.8187,2.8187,2.8187,2.8187,2.8187,2.8187,2.8187,2.8187,2.7791,2.7357,2.7438,2.7025,2.6502,2.6763,2.7073,2.7223,2.6662,2.5511,2.4438,2.4094,2.3503,2.2774,2.2033,2.2675,2.3316,2.2774,2.2342,2.2154,2.2553,2.2415,2.2658,2.3966,2.3966,2.3875,2.4176,2.344,2.2659,2.2198,2.1311,2.0323,1.9394,1.9687,2.0051,2.035,2.035,2.0689,2.1346,2.2406,2.3806,2.5658,2.6915,2.8069,2.9158,2.9306,2.9405,2.9405,2.9405,2.9405,2.9405,2.9405,2.9405,2.781,2.8169,2.8108,2.6915,2.6412,2.5788,2.4174,2.3607,2.3198,2.2465,2.2707,2.3121,2.3082,2.3478,2.38,2.38,2.4246,2.468,2.4969,2.5921,2.6692,2.6957,2.821,2.9019,2.9019,2.9743,3.0214,3.0214,3.0214,0.0,3.0214,3.0214,3.0214,3.0214,3.0214,3.0214,3.0214,3.0214,3.0214,3.0214,3.0214,2.9634,2.8626,2.8626,2.8038,0.0,0.0,0.0,0.0,2.7115,2.7115,2.7115,2.7115,2.7115,2.7115,2.7115,2.7115,2.7115,2.7115,2.6766,2.6364,2.6571,2.5901,2.4958,2.4637,2.5381,2.6133,2.5296,2.362,2.1875,2.0832,2.0536,2.0536,2.0536,2.1337,2.1994,2.1438,2.0891,2.0536,2.0536,2.0536,2.0688,2.1245,2.1801,2.2015,2.1694,2.1157,2.0719,2.0375,1.9313,1.8432,1.7863,1.7339,1.7433,1.8366,1.8403,1.8798,1.9691,2.0739,2.2305,2.4528,2.6168,2.7512,2.8576,2.9109,2.9405,2.9405,2.9405,2.9405,2.9405,2.9405,2.9405,2.7224,2.7281,2.6927,2.6542,2.5905,2.5057,2.3816,2.3475,2.3186,2.2465,2.2574,2.2864,2.3084,2.3333,2.3655,2.4017,2.421,2.4547,2.5174,2.5716,2.627,2.6909,2.815,2.9236,2.9779,3.0069,3.0061,2.9694,2.9643,2.9503,2.9147,2.9096,2.9452,3.0163,3.0214,3.0011,2.9643,2.9643,2.9408,2.8817,2.8817,2.8299,2.7324,2.7324,0.0,0.0,0.0,0.0,0.0,2.6003,2.6003,2.5954,2.5593,2.5448,2.5448,2.5049,2.5009,2.5107,2.5107,2.4856,2.4455,2.4167,2.3598,2.2866,2.2017,2.2797,2.37,2.2318,2.1477,2.0773,1.9666,1.9674,1.9886,1.9471,1.9928,2.0334,1.9776,1.9618,1.9604,1.9604,1.97,1.9986,2.0511,2.0451,2.0313,2.0163,1.9651,1.9155,1.8634,1.8275,1.7863,1.7293,1.7083,1.7115,1.7433,1.7433,1.7718,1.8344,2.0133,2.198,2.3827,2.6183,2.797,2.9092,2.9658,2.996,2.996,2.996,2.996,2.996,2.996,2.996,2.6056,2.6127,2.5864,2.57,2.5009,2.4198,2.3478,2.3225,2.2983,2.2417,2.2586,2.2889,2.3058,2.3345,2.3668,2.3993,2.421,2.4511,2.5017,2.5572,2.6343,2.7451,2.8451,2.9332,3.0141,3.0011,2.9745,2.944,2.8982,0.0,2.8013,2.7758,2.7849,2.8359,2.9135,2.9338,2.8779,2.8675,2.8183,2.7269,2.7231,2.6588,2.5518,2.5518,0.0,0.0,0.0,0.0,0.0,2.4097,2.4038,2.3989,2.3443,2.3248,2.3268,2.2924,2.2911,2.3093,2.3093,2.2838,2.2457,2.2176,2.1648,2.0892,1.9817,2.0425,2.1281,2.0273,1.9761,1.9355,1.8644,1.8747,1.8909,1.8541,1.8901,1.9158,1.8593,1.8573,1.8648,1.8648,1.8782,1.8955,1.9276,1.9059,1.8798,1.8589,1.823,1.7863,1.7549,1.7503,1.7346,1.7031,1.6978,1.6978,1.6978,1.6978,1.7346,1.8073,1.9783,2.1656,2.3512,2.6046,2.7951,2.9084,2.9808,3.0214,3.0214,3.0214,3.0214,3.0214,3.0214,3.0214,0.0,2.4881,2.4896,2.4497,2.3876,2.3357,2.3118,2.2864,0.0,2.2357,2.2719,2.3082,2.3082,2.3478,2.3812,2.3784,2.4217,2.4554,2.4525,2.5449,2.6699,2.8284,2.8704,2.9185,3.004,2.9643,2.9288,2.9186,2.8155,0.0,2.6662,2.6097,2.5584,2.5059,2.7082,2.79,2.7469,2.7239,2.6591,2.5539,2.5281,2.4516,2.3315,2.3315,0.0,0.0,0.0,0.0,0.0,2.1643,2.1446,2.1406,2.0875,2.0742,2.0866,2.0816,2.0878,2.0983,2.0983,2.0697,2.0384,2.0568,2.0011,1.9112,1.8073,1.8381,1.9089,1.9037,1.8425,1.7758,1.7758,1.7758,1.7758,1.7758,1.8118,1.8327,1.7863,1.7758,1.7758,1.7758,1.7758,1.7758,1.7758,1.7758,1.7549,1.7083,1.6978,1.6978,1.6978,1.6978,1.6978,1.6978,1.6978,1.6978,1.6978,1.6978,1.7451,1.8484,1.9642,2.1301,2.3428,2.5687,2.744,2.8586,2.9655,3.0214,3.0214,3.0214,3.0214,3.0214,3.0214,3.0214,2.3913,0.0,2.4288,2.4289,2.3953,2.3416,0.0,2.2731,2.2611,2.2357,2.2719,2.3082,2.3082,2.3478,2.3752,2.366,2.3927,2.4074,2.3951,2.4769,2.5959,2.7291,2.7636,2.8099,2.8924,2.8841,2.8269,2.6969,2.6251,2.5265,2.3822,2.3254,2.2892,2.2788,2.3306,2.4003,2.5022,2.4545,2.3851,2.2831,2.2376,2.175,2.0869,2.0869,0.0,0.0,0.0,0.0,1.9922,1.9824,1.9858,1.9942,1.9393,1.9306,1.9349,1.8952,1.8908,1.9063,1.9063,1.9037,1.8997,1.8626,1.8096,1.7556,1.7293,1.7632,1.8015,1.7656,1.737,1.7188,1.7188,1.7188,1.7188,1.7188,1.7293,1.7346,1.7241,1.7188,1.7188,1.7188,1.7188,1.7188,1.7188,1.7188,1.7136,1.7031,1.6978,1.6978,1.6978,1.6978,1.6978,1.6978,1.6978,1.6978,1.6978,1.6978,1.7293,1.7968,1.9433,2.1093,2.2892,2.5532,2.744,2.8586,2.9655,3.0214,3.0214,3.0214,3.0214,3.0214,3.0214,3.0214,2.3683,2.3799,2.3842,2.387,2.3593,2.3139,2.2614,2.2514,2.2502,2.2478,2.2804,2.3118,2.3212,2.3562,2.3728,2.3468,2.3563,2.3546,2.3248,2.3663,2.4489,2.5755,2.6194,2.6706,0.0,2.7236,2.6504,2.5409,2.44,2.315,2.1751,2.1128,2.0712,2.0452,2.0378,2.1114,2.265,2.2294,2.1539,2.0458,2.0116,1.9577,1.8944,1.8944,1.8795,0.0,0.0,0.0,1.8507,1.8286,1.8321,1.837,1.7892,1.7763,1.7851,1.755,1.7599,1.7742,1.7742,1.7792,1.7811,1.7556,1.7241,1.6978,1.6978,1.7188,1.7346,1.7083,1.6978,1.6978,1.6978,1.6978,1.6978,1.6978,1.6978,1.6978,1.6978,1.6978,1.6978,1.6978,1.6978,1.6978,1.6978,1.6978,1.6978,1.6978,1.6978,1.6978,1.6978,1.6978,1.6978,1.6978,1.6978,1.6978,1.6978,1.6978,1.7346,1.8118,1.9537,2.1145,2.3108,2.5584,2.7645,2.9299,2.9909,3.0214,3.0214,3.0214,3.0214,3.0214,3.0214,3.0214,2.343,2.3438,2.3299,2.3362,2.3154,2.2781,2.2371,2.2332,2.2417,2.2647,2.2937,2.3215,2.3366,2.3592,2.3584,2.3155,2.2909,2.2695,2.2275,2.2222,2.264,2.382,2.4376,2.5005,2.5926,2.5206,2.446,2.3906,2.2486,2.1145,1.9991,1.9417,1.8903,1.838,1.8255,1.8831,2.02,2.0122,1.9545,1.8525,1.8229,1.7912,1.7474,1.7474,1.7474,0.0,0.0,0.0,1.7468,1.7106,1.6983,1.6989,1.6663,1.6601,1.6736,1.6736,1.687,1.6978,1.6978,1.6978,1.6978,1.6978,1.6978,1.6978,1.6978,1.6978,1.6978,1.6978,1.6978,1.6978,1.6978,1.6978,1.6978,1.6978,1.6978,1.6978,1.6978,1.6978,1.6978,1.6978,1.6978,1.6978,1.6978,1.6978,1.6978,1.6978,1.6978,1.6978,1.6978,1.6978,1.6978,1.6978,1.6978,1.7031,1.7136,1.7188,1.7706,1.8798,1.979,2.1457,2.3996,2.6046,2.8104,3.0163,3.0214,3.0214,3.0214,3.0214,3.0214,3.0214,3.0214,3.0214,2.253,2.2278,2.203,2.3126,2.3154,2.2781,2.2371,2.2478,2.2647,2.2683,2.3043,2.3366,2.3402,2.3353,2.315,2.2673,2.1488,2.0609,2.063,2.0462,2.0604,2.1456,2.2204,2.2853,2.3315,2.3207,2.2709,2.1656,2.0512,1.9373,1.8222,1.7653,1.7346,1.7241,1.722,1.7186,1.7172,1.7466,1.7515,1.7205,1.6686,1.6431,1.6331,1.6331,1.6331,1.6331,0.0,1.6407,1.6531,1.6451,1.6558,1.6731,1.6707,1.6809,1.6944,1.6944,1.6958,1.6978,1.6978,1.6978,1.6978,1.6978,1.6978,1.6978,1.6978,1.6978,1.6978,1.6978,1.6978,1.6978,1.6978,1.6978,1.6978,1.6978,1.6978,1.6978,1.6978,1.6978,1.6978,1.6978,1.6978,1.6978,1.6978,1.6978,1.6978,1.6978,1.6978,1.6978,1.6978,1.6978,1.6978,1.6978,1.6978,1.7188,1.7653,1.8073,1.885,1.9955,2.0216,2.2123,2.62,2.7656,2.8943,3.0163,3.0214,3.0214,3.0214,3.0214,3.0214,3.0214,3.0214,3.0214,2.1412,2.109,2.0725,2.1842,2.2135,2.2145,2.1874,2.1916,2.208,2.2373,2.2619,2.2791,2.292,2.2993,2.2684,2.1648,2.0119,1.902,1.8841,1.8563,1.8681,1.9495,0.0,2.0579,2.12,2.1036,2.0561,1.9783,1.9007,0.0,1.7398,1.7136,1.6978,1.6978,1.6897,1.6748,1.6524,1.6628,1.6576,1.6474,1.6232,1.6083,1.6083,1.6083,1.6083,1.609,0.0,1.6246,1.632,1.6483,1.6574,1.6709,1.6842,1.6917,1.6978,1.6978,1.6978,1.6978,1.6978,1.6978,1.6978,1.6978,1.6978,1.6978,1.6978,1.6978,1.6978,1.6978,1.6978,1.6978,1.6978,1.6978,1.6978,1.6978,1.6978,1.6978,1.6978,1.6978,1.6978,1.6978,1.6978,1.6978,1.6978,1.6978,1.6978,1.6978,1.6978,1.6978,1.6978,1.6978,1.6978,1.6978,1.7241,1.7653,1.817,1.9,2.0148,2.1561,2.2236,2.3987,2.7184,2.8167,2.9096,3.0163,3.0214,3.0214,3.0214,3.0214,3.0214,3.0214,3.0214,3.0214,2.0097,1.9748,1.9305,2.01,2.0782,2.1261,2.1277,2.1325,2.1556,2.1953,2.2077,2.218,2.2413,2.246,2.1958,2.0456,1.9004,1.7913,1.7447,1.7054,1.7074,1.7881,1.824,1.8655,1.9398,1.9127,1.8715,1.8424,1.7915,0.0,1.7031,1.6978,1.6978,1.6978,1.6863,1.6682,1.6527,1.6429,1.6266,1.6083,1.6083,1.6083,1.6083,1.6083,1.6083,1.609,1.6246,1.6327,1.6381,1.6588,1.6716,1.6815,1.6937,1.6978,1.6978,1.6978,1.6978,1.6978,1.6978,1.6978,1.6978,1.6978,1.6978,1.6978,1.6978,1.6978,1.6978,1.6978,1.6978,1.6978,1.6978,1.6978,1.6978,1.6978,1.6978,1.6978,1.6978,1.6978,1.6978,1.6978,1.6978,1.6978,1.6978,1.6978,1.6978,1.6978,1.6978,1.6978,1.6978,1.6978,1.6978,1.6978,1.7503,1.823,1.9321,2.0564,2.202,2.3686,2.4203,2.544,2.7594,2.8269,2.9096,3.0163,3.0214,3.0214,3.0214,3.0214,3.0214,3.0214,3.0214,3.0214,1.8513,1.8007,1.7433,1.808,1.9281,2.0397,2.0775,2.1168,2.149,2.1523,2.1763,2.1941,2.1952,2.1578,2.0763,1.9258,1.8324,1.747,1.6753,1.6272,1.615,1.6588,1.7116,1.7609,1.7918,1.7901,1.7901,1.7863,0.0,0.0,1.6978,1.6978,1.6978,1.6978,1.6971,1.689,1.6682,1.6533,1.6361,1.6083,1.6083,1.6083,1.6083,1.6083,1.6083,1.609,1.6246,1.6381,1.6517,1.6628,1.6836,1.6965,1.6978,1.6978,1.6978,1.6978,1.6978,1.6978,1.6978,1.6978,1.6978,1.6978,1.6978,1.6978,1.6978,1.6978,1.6978,1.6978,1.6978,1.6978,1.6978,1.6978,1.6978,1.6978,1.6978,1.6978,1.6978,1.6978,1.6978,1.6978,1.6978,1.6978,1.6978,1.6978,1.6978,1.6978,1.6978,1.6978,1.6978,1.6978,1.6978,1.6978,1.7503,1.885,2.1509,2.3272,2.4873,2.6508,2.5214,2.5419,2.7594,2.8269,2.9096,3.0163,3.0214,3.0214,3.0214,3.0214,3.0214,3.0214,3.0214,3.0214,1.7045,1.6824,1.6465,1.6907,1.7533,1.8308,1.9065,1.9494,1.9785,2.0015,2.0136,2.0246,2.0386,1.9703,1.8929,1.8442,1.7522,1.6761,1.6349,1.6143,1.6123,1.6476,1.6677,1.6955,1.7266,1.7293,1.7293,1.7293,0.0,0.0,1.6978,1.689,1.6883,1.6978,1.6795,1.6666,1.6554,1.6463,1.6286,1.6083,1.6083,1.6083,1.6083,1.6083,1.6137,1.6232,1.6381,1.6473,1.6621,1.6829,1.6931,1.6978,1.6978,1.6978,1.6978,1.6978,1.6978,1.6978,1.6978,1.6978,1.6978,1.6978,1.6978,1.6978,1.6978,1.6978,1.6978,1.6978,1.6978,1.6978,1.6978,1.6978,1.6978,1.6978,1.6978,1.6978,1.6978,1.6978,1.6978,1.6978,1.6978,1.6978,1.6978,1.6978,1.6978,1.6978,1.6978,1.6978,1.6978,1.6978,1.6978,1.6978,1.8125,1.9835,2.2279,2.3738,2.5337,2.7338,2.6826,2.7122,2.8677,2.8982,2.944,3.0214,3.0214,3.0214,3.0214,3.0214,3.0214,3.0214,3.0214,3.0214,1.5938,1.5769,1.551,1.5776,1.5926,1.6185,1.7048,1.7796,1.8344,1.8569,1.8654,1.8693,1.8709,1.818,1.7722,1.7655,1.6939,1.6321,1.6141,1.6083,1.6178,1.6422,1.6497,1.6625,1.6883,1.6951,1.6978,1.6978,1.6978,0.0,0.0,1.6757,1.6723,1.6836,1.6632,1.6524,1.6524,1.6381,1.6259,1.6151,1.6103,1.6083,1.6083,1.613,1.6212,1.632,1.651,1.6601,1.6709,1.6917,1.6978,1.6978,1.6978,1.6978,1.6978,1.6978,1.6978,1.6978,1.6978,1.6978,1.6978,1.6978,1.6978,1.6978,1.6978,1.6978,1.6978,1.6978,1.6978,1.6978,1.6978,1.6978,1.6978,1.6978,1.6978,1.6978,1.6978,1.6978,1.6978,1.6978,1.6978,1.6978,1.6978,1.6978,1.6978,1.6978,1.6978,1.6978,1.6978,1.6978,1.7136,1.7444,1.885,2.0668,2.284,2.4254,2.5861,2.7911,2.8167,2.8575,2.9389,2.9389,2.9643,3.0214,3.0214,3.0214,3.0214,3.0214,3.0214,3.0214,3.0214,3.0214,1.5232,1.4846,1.4446,1.4571,1.4386,1.4323,1.4779,1.6308,1.754,1.7416,1.7505,1.7447,1.7068,1.727,1.7315,1.6845,1.6589,1.6321,1.6141,1.6083,1.6137,1.6293,1.6435,1.6527,1.6682,1.689,1.6978,1.6978,1.6978,0.0,0.0,1.6696,1.6621,1.6473,1.6517,1.6517,1.6517,1.6381,1.6307,1.6307,1.6157,1.6083,1.609,1.6239,1.6307,1.6327,1.6574,1.6696,1.6709,1.6917,1.6978,1.6978,1.6978,1.6978,1.6978,1.6978,1.6978,1.6978,1.6978,1.6978,1.6978,1.6978,1.6978,1.6978,1.6978,1.6978,1.6978,1.6978,1.6978,1.6978,1.6978,1.6978,1.6978,1.6978,1.6978,1.6978,1.6978,1.6978,1.6978,1.6978,1.6978,1.6978,1.6978,1.6978,1.6978,1.6978,1.6978,1.6978,1.6978,1.6978,1.7398,1.8484,1.9634,2.1197,2.3428,2.5141,2.6785,2.8484,2.9084,2.9389,2.9389,2.9389,2.9643,3.0214,3.0214,3.0214,3.0214,3.0214,3.0214,3.0214,3.0214,3.0214,1.4702,1.46,1.4445,1.4138,1.429,1.4521,1.4485,1.5305,1.6121,1.641,1.6496,1.6573,1.656,1.649,1.6378,1.6465,1.6223,1.6055,1.6105,1.6083,1.6137,1.6293,1.6435,1.6527,1.6682,1.689,1.6978,1.6978,1.6876,0.0,0.0,1.65,1.6463,1.6517,1.632,1.6266,1.6374,1.6225,1.6151,1.6151,1.6212,1.6185,1.609,1.6239,1.6368,1.6469,1.6615,1.6757,1.6917,1.6965,1.6978,1.6978,1.6978,1.6978,1.6978,1.6978,1.6978,1.6978,1.6978,1.6978,1.6978,1.6978,1.6978,1.6978,1.6978,1.6978,1.6978,1.6978,1.6978,1.6978,1.6978,1.6978,1.6978,1.6978,1.6978,1.6978,1.6978,1.6978,1.6978,1.6978,1.6978,1.6978,1.6978,1.6978,1.6978,1.6978,1.6978,1.6978,1.6978,1.7346,1.7811,1.8536,1.9947,2.1613,2.3428,2.478,2.6426,2.8484,2.8739,2.9197,2.9909,2.996,3.0061,3.0214,3.0214,3.0214,3.0214,3.0214,3.0214,3.0214,3.0214,3.0214,1.4747,1.4587,1.4377,1.4124,1.4153,1.44,1.4861,1.5246,1.5645,1.6054,1.6162,1.617,1.6207,1.5981,1.5875,1.6112,1.5986,1.5956,1.6062,1.6083,1.6117,1.6205,1.6395,1.6506,1.6601,1.6795,1.689,1.689,1.6696,0.0,0.0,1.6408,1.632,1.6347,1.6178,1.6123,1.6218,1.613,1.6083,1.6083,1.6239,1.6259,1.6178,1.6388,1.6479,1.6567,1.6775,1.6897,1.6978,1.6978,1.6978,1.6978,1.6978,1.6978,1.6978,1.6978,1.6978,1.6978,1.6978,1.6978,1.6978,1.6978,1.6978,1.6978,1.6978,1.6978,1.6978,1.6978,1.6978,1.6978,1.6978,1.6978,1.6978,1.6978,1.6978,1.6978,1.6978,1.6978,1.6978,1.6978,1.6978,1.6978,1.6978,1.6978,1.6978,1.6978,1.6978,1.7083,1.7293,1.7811,1.8484,1.9477,2.1085,2.2746,2.4451,2.5594,2.7042,2.8779,2.8943,2.9299,3.0163,3.0214,3.0214,3.0214,3.0214,3.0214,3.0214,3.0214,3.0214,3.0214,3.0214,3.0214,1.521,1.4758,1.4336,1.4393,1.4103,1.4172,1.572,1.596,1.5959,1.6286,1.6241,1.6131,1.5977,1.5759,1.5703,1.5901,1.5922,1.5976,1.6062,1.6083,1.609,1.6103,1.6347,1.6524,1.6524,1.6608,1.6689,1.6675,1.6533,0.0,0.0,1.6293,1.6225,1.609,1.6083,1.6083,1.6083,1.6083,1.609,1.6103,1.6259,1.6334,1.6361,1.6574,1.6702,1.673,1.6917,1.6978,1.6978,1.6978,1.6978,1.6978,1.6978,1.6978,1.6978,1.6978,1.6978,1.6978,1.6978,1.6978,1.6978,1.6978,1.6978,1.6978,1.6978,1.6978,1.6978,1.6978,1.6978,1.6978,1.6978,1.6978,1.6978,1.6978,1.6978,1.6978,1.6978,1.6978,1.6978,1.6978,1.6978,1.6978,1.6978,1.6978,1.6978,1.6978,1.7031,1.7293,1.7811,1.8432,1.9477,2.1093,2.2788,2.4441,2.6046,2.7184,2.8257,2.9338,2.9389,2.9643,3.0163,3.0214,3.0214,3.0214,3.0214,3.0214,3.0214,3.0214,3.0214,3.0214,3.0214,3.0214,1.5193,1.5177,1.5221,1.449,1.4707,1.5321,1.618,1.6718,1.7079,1.7311,1.6758,1.623,1.6403,1.6105,1.5859,1.6008,1.6085,1.6092,1.6076,1.6083,1.6123,1.6246,1.6415,1.6524,1.6524,1.6608,1.6648,1.6527,0.0,0.0,1.6313,1.6198,1.6117,1.6083,1.6083,1.6083,1.6083,1.6083,1.6144,0.0,1.6408,1.6486,1.6608,1.6669,1.6815,1.6931,1.6965,1.6978,1.6978,1.6978,1.6978,1.6978,1.6978,1.6978,1.6978,1.6978,1.6978,1.6978,1.6978,1.6978,1.6978,1.6978,1.6978,1.6978,1.6978,1.6978,1.6978,1.6978,1.6978,1.6978,1.6978,1.6978,1.6978,1.6978,1.6978,1.6978,1.6978,1.6978,1.6978,1.6978,1.6978,1.6978,1.6978,1.6978,1.6978,1.6978,1.7346,1.7811,1.838,1.9686,2.1041,2.2288,2.4296,2.5892,2.6662,2.7758,2.8677,2.9338,2.9389,2.9643,3.0163,3.0214,3.0214,3.0214,3.0214,3.0214,3.0214,3.0214,3.0214,3.0214,3.0214,3.0214,1.5668,1.5659,1.5719,1.5244,1.5676,1.637,1.7049,1.7561,1.7931,1.8153,1.7325,1.664,1.66,1.6258,1.6037,1.6069,1.6083,1.6083,1.6083,1.6083,1.6137,1.6293,1.6374,1.6449,1.6517,1.653,1.6503,1.6429,1.6286,1.6198,1.6198,1.6123,1.6083,1.6083,1.6083,1.6083,1.6083,1.6151,1.6232,1.6313,1.6479,1.6662,1.6863,1.6863,1.6904,1.6978,1.6978,1.6978,1.6978,1.6978,1.6978,1.6978,1.6978,1.6978,1.6978,1.6978,1.6978,1.6978,1.6978,1.6978,1.6978,1.6978,1.6978,1.6978,1.6978,1.6978,1.6978,1.6978,1.6978,1.6978,1.6978,1.6978,1.6978,1.6978,1.6978,1.6978,1.6978,1.6978,1.6978,1.6978,1.6978,1.6978,1.6978,1.6978,1.6978,1.6978,1.7451,1.8177,1.9261,2.0877,2.2538,2.4193,2.6149,2.7531,2.8053,2.888,2.9503,2.9745,2.9796,2.9909,3.0214,3.0214,3.0214,3.0214,3.0214,3.0214,3.0214,3.0214,3.0214,3.0214,3.0214,3.0214,1.6327,1.6121,1.6131,1.6362,1.6806,1.7371,1.7916,1.8217,1.8398,1.8432,1.7677,1.693,1.6699,1.6341,1.6083,1.6083,1.6083,1.6083,1.6083,1.6083,1.6137,1.6293,1.6307,1.6354,1.6476,1.6381,1.63,1.6273,1.6151,1.6083,1.6083,1.6083,1.6083,1.6083,1.6083,1.6083,1.6083,1.6232,1.632,1.6347,1.6594,1.6856,1.6978,1.6978,1.6978,1.6978,1.6978,1.6978,1.6978,1.6978,1.6978,1.6978,1.6978,1.6978,1.6978,1.6978,1.6978,1.6978,1.6978,1.6978,1.6978,1.6978,1.6978,1.6978,1.6978,1.6978,1.6978,1.6978,1.6978,1.6978,1.6978,1.6978,1.6978,1.6978,1.6978,1.6978,1.6978,1.6978,1.6978,1.6978,1.6978,1.6978,1.6978,1.6978,1.6978,1.6978,1.7601,1.8641,2.0244,2.2063,2.3977,2.6046,2.7736,2.892,2.9338,2.9909,3.0214,3.0214,3.0214,3.0214,3.0214,3.0214,3.0214,3.0214,3.0214,3.0214,3.0214,3.0214,3.0214,3.0214,3.0214,3.0214,1.6684,1.6452,1.6767,1.777,1.8112,1.8221,1.8201,1.8298,1.8216,1.748,1.6952,1.6706,1.6856,1.646,1.6083,1.6083,1.6083,1.6083,1.6083,1.6083,1.6137,1.6293,1.6307,1.632,1.6334,1.632,1.6252,1.6123,1.6096,1.6083,1.6083,1.6083,1.6083,1.6083,1.6083,1.6083,1.6083,1.6232,1.6374,1.6497,1.6802,1.6958,1.6978,1.6978,1.6978,1.6978,1.6978,1.6978,1.6978,1.6978,1.6978,1.6978,1.6978,1.6978,1.6978,1.6978,1.6978,1.6978,1.6978,1.6978,1.6978,1.6978,1.6978,1.6978,1.6978,1.6978,1.6978,1.6978,1.6978,1.6978,1.6978,1.6978,1.6978,1.6978,1.6978,1.6978,1.6978,1.6978,1.6978,1.6978,1.6978,1.6978,1.6978,1.6978,1.6978,1.6978,1.8282,1.9678,2.0816,2.3296,2.5419,2.6662,2.8308,2.9338,2.9389,2.9909,3.0214,3.0214,3.0214,3.0214,3.0214,3.0214,3.0214,3.0214,3.0214,3.0214,3.0214,3.0214,3.0214,3.0214,3.0214,3.0214,1.7758,1.7491,1.7656,1.9017,1.9491,1.9653,1.9667,1.973,1.9616,1.8984,1.8397,1.792,1.7452,1.7417,1.7516,1.7806,1.7615,1.7417,1.7417,1.6921,1.6579,1.6739,1.6433,1.6218,1.63,1.6232,1.6151,1.609,1.6083,1.6083,1.6083,1.6083,1.6083,1.6083,1.6083,1.6123,1.6205,1.6354,1.6544,1.6781,1.6917,1.6978,1.6978,1.6978,1.6978,1.6978,1.6978,1.6978,1.6978,1.6978,1.6978,1.6978,1.6978,1.6978,1.6978,1.6978,1.6978,1.6978,1.6978,1.6978,1.6978,1.6978,1.6978,1.6978,1.6978,1.6978,1.6978,1.6978,1.6978,1.6978,1.6978,1.6978,1.6978,1.6978,1.6978,1.6978,1.6978,1.6978,1.6978,1.6978,1.6978,1.7083,1.7398,1.7451,1.7653,1.8282,1.9529,2.0929,2.2331,2.4647,2.661,2.7758,2.9033,2.9858,2.9858,3.0061,3.0214,3.0214,3.0214,3.0214,3.0214,3.0214,3.0214,3.0214,3.0214,3.0214,3.0214,3.0214,3.0214,3.0214,3.0214,3.0214,1.895,1.8836,1.8878,2.0414,2.0871,2.0986,2.1125,2.1048,2.0826,2.0458,2.0024,1.9577,1.9182,1.8993,1.9042,1.9528,1.933,1.9042,1.8894,1.8103,1.7404,1.7285,1.6693,1.6273,1.6239,1.6151,1.6083,1.6083,1.6083,1.6083,1.6083,1.6083,1.6083,1.6083,1.6083,1.6157,1.6307,1.649,1.6714,1.6978,1.6978,1.6978,1.6978,1.6978,1.6978,1.6978,1.6978,1.6978,1.6978,1.6978,1.6978,1.6978,1.6978,1.6978,1.6978,1.6978,1.6978,1.6978,1.6978,1.6978,1.6978,1.6978,1.6978,1.6978,1.6978,1.6978,1.6978,1.6978,1.6978,1.6978,1.6978,1.6978,1.6978,1.6978,1.6978,1.6978,1.6978,1.6978,1.6978,1.6978,1.6978,1.7188,1.7706,1.7915,1.838,1.9522,2.0729,2.2132,2.3841,2.5841,2.7542,2.8677,2.9655,3.0214,3.0214,3.0214,3.0214,3.0214,3.0214,3.0214,3.0214,3.0214,3.0214,3.0214,3.0214,3.0214,3.0214,3.0214,3.0214,3.0214,3.0214,3.0214,2.0028,2.0334,2.0546,2.2085,2.2146,2.1888,2.2096,2.1558,2.1002,2.0976,2.1021,2.1463,2.2672,2.129,2.0119,2.0652,2.0701,2.0513,1.9971,1.9429,1.8746,1.7779,1.7176,1.6672,1.6139,1.609,1.6083,1.6083,1.6083,1.6083,1.6083,1.6083,1.6083,1.6083,1.6083,1.6157,1.6307,1.654,1.677,1.6978,1.6978,1.6978,1.6978,1.6978,1.6978,1.6978,1.6978,1.6978,1.6978,1.6978,1.6978,1.6978,1.6978,1.6978,1.6978,1.6978,1.6978,1.6978,1.6978,1.6978,1.6978,1.6978,1.6978,1.6978,1.6978,1.6978,1.6978,1.6978,1.6978,1.6978,1.6978,1.6978,1.6978,1.6978,1.6978,1.6978,1.6978,1.6978,1.6978,1.6978,1.6978,1.7188,1.7706,1.8222,1.8955,2.0095,2.1656,2.3315,2.5018,2.6723,2.8167,2.9237,2.9858,3.0214,3.0214,3.0214,3.0214,3.0214,3.0214,3.0214,3.0214,3.0214,3.0214,3.0214,3.0214,3.0214,3.0214,3.0214,3.0214,3.0214,3.0214,3.0214,2.1085,2.1549,2.1841,2.2799,2.3143,2.3259,2.3348,2.3249,2.3171,2.3344,2.3265,2.3531,2.4715,2.3597,2.2769,2.3648,2.3258,2.2622,2.2133,2.071,1.933,1.8309,1.7466,1.6672,1.6133,1.6083,1.6083,1.6083,1.6083,1.6083,1.6083,1.6083,1.6083,1.6083,1.6083,1.6198,1.6442,1.6748,1.6924,1.6978,1.6978,1.6978,1.6978,1.6978,1.6978,1.6978,1.6978,1.6978,1.6978,1.6978,1.6978,1.6978,1.6978,1.6978,1.6978,1.6978,1.6978,1.6978,1.6978,1.6978,1.6978,1.6978,1.6978,1.6978,1.6978,1.6978,1.6978,1.6978,1.6978,1.6978,1.6978,1.6978,1.6978,1.6978,1.7241,1.7496,1.7496,1.7241,1.7083,1.7451,1.7496,1.7915,1.9172,1.9843,2.0729,2.2175,2.3832,2.5275,2.62,2.7798,2.8982,2.9338,2.9909,3.0214,3.0214,3.0214,3.0214,3.0214,3.0214,3.0214,3.0214,3.0214,3.0214,3.0214,3.0214,3.0214,3.0214,3.0214,3.0214,3.0214,3.0214,3.0214,2.2007,2.2508,2.2742,2.3416,2.3728,2.389,2.4063,2.4166,2.4275,2.4643,2.4703,2.5032,2.6095,2.5611,2.5265,2.5933,2.5275,2.4487,2.3805,2.2035,2.0267,1.8894,1.7813,1.6871,1.6182,1.6083,1.6083,1.6083,1.6083,0.0,1.6083,1.6083,1.6083,1.6083,1.613,1.6273,1.6517,1.6775,1.6931,1.6978,1.6978,1.6978,1.6978,1.6978,1.6978,1.6978,1.6978,1.6978,1.6978,1.6978,1.6978,1.6978,1.6978,1.6978,1.6978,1.6978,1.6978,1.6978,1.6978,1.6978,1.6978,1.6978,1.6978,1.6978,1.6978,1.6978,1.6978,1.6978,1.6978,1.6978,1.6978,1.6978,1.6978,1.6978,1.7398,1.7863,1.802,1.7968,1.7915,1.8275,1.8641,1.9321,2.0625,2.1457,2.2444,2.3945,2.543,2.661,2.7389,2.8614,2.9491,2.9643,3.0011,3.0214,3.0214,3.0214,3.0214,3.0214,3.0214,3.0214,3.0214,3.0214,3.0214,3.0214,3.0214,3.0214,3.0214,3.0214,3.0214,3.0214,3.0214,3.0214,0.0,0.0,0.0,2.4044,2.3901,2.3757,2.4191,2.4156,2.4146,2.4648,2.5138,2.5823,2.6818,2.7216,2.7331,2.7143,2.6669,2.5954,2.4886,2.3365,2.1603,1.9478,1.8309,1.7275,1.6182,1.6083,1.6083,1.6083,1.6083,1.6083,1.6083,1.6083,1.6083,1.6083,1.6232,1.6381,1.6517,1.6621,1.6777,1.6978,1.6978,1.6978,1.6978,1.6978,1.6978,1.6978,1.6978,1.6978,1.6978,1.6978,1.6978,1.6978,1.6978,1.6978,1.6978,1.6978,1.6978,1.6978,1.6978,1.6978,1.6978,1.6978,1.6978,1.6978,1.6978,1.6978,1.6978,1.6978,1.6978,1.6978,1.6978,1.6978,1.6978,1.6978,1.7398,1.7968,1.8536,1.9156,1.9574,1.9574,2.0452,2.1388,2.1977,2.3014,2.41,2.5192,2.6313,2.7389,2.8484,2.9084,2.9643,3.0163,3.0214,3.0214,3.0214,3.0214,3.0214,3.0214,3.0214,3.0214,3.0214,3.0214,3.0214,3.0214,3.0214,3.0214,3.0214,3.0214,3.0214,3.0214,3.0214,3.0214,2.3466,0.0,0.0,0.0,0.0,0.0,2.4214,2.4484,2.4828,2.516,2.5635,2.6202,2.6874,2.7231,2.7448,2.7569,2.721,2.6621,2.5944,2.3853,2.175,1.9971,1.8548,1.7275,1.6182,1.6083,1.6083,0.0,1.6083,1.6083,1.6083,1.6083,1.6083,1.6083,1.6232,1.6381,1.6517,1.6621,1.6777,1.6978,1.6978,1.6978,1.6978,1.6978,1.6978,1.6978,1.6978,1.6978,1.6978,1.6978,1.6978,1.6978,1.6978,1.6978,1.6978,1.6978,1.6978,1.6978,1.6978,1.6978,1.6978,1.6978,1.6978,1.6978,1.6978,1.6978,1.6978,1.6978,1.6978,1.6978,1.6978,1.6978,1.6978,1.6978,1.7706,1.8641,1.9626,2.0929,2.1769,2.1405,2.2166,2.3202,2.4245,2.5275,2.6211,2.6928,2.8002,2.8829,2.9135,2.9655,3.0061,3.0163,3.0214,3.0214,3.0214,3.0214,3.0214,3.0214,3.0214,3.0214,3.0214,3.0214,3.0214,3.0214,3.0214,3.0214,3.0214,3.0214,3.0214,3.0214,3.0214,3.0214,2.3852,2.4044,2.4052,2.3852,0.0,0.0,2.4029,2.4439,2.4873,2.5029,2.5572,2.6218,2.6716,2.6893,2.7055,2.7471,2.6932,2.6399,2.6164,2.4439,2.2576,2.0848,1.9487,1.816,1.6878,1.6573,1.6325,1.6133,1.6083,1.6083,1.6083,1.6083,1.6083,1.6083,1.6171,1.6313,1.6517,1.656,1.6768,1.6978,1.6978,1.6978,1.6978,1.6978,1.6978,1.6978,1.6978,1.6978,1.6978,1.6978,1.6978,1.6978,1.6978,1.6978,1.6978,1.6978,1.6978,1.6978,1.6978,1.6978,1.6978,1.6978,1.6978,1.6978,1.6978,1.6978,1.6978,1.6978,1.6978,1.6978,1.6978,1.6978,1.7083,1.7293,1.817,1.9261,2.0408,2.2123,2.3479,2.3367,2.4245,2.5265,2.6149,2.7031,2.7707,2.8013,2.8829,2.9389,2.9389,2.9858,3.0214,3.0214,3.0214,3.0214,3.0214,3.0214,3.0214,3.0214,3.0214,3.0214,3.0214,3.0214,3.0214,3.0214,3.0214,3.0214,3.0214,3.0214,3.0214,3.0214,3.0214,3.0214,2.4048,2.4242,0.0,0.0,0.0,0.0,2.38,2.4186,2.4547,2.4547,2.5162,2.5861,2.6367,2.6309,2.6323,2.6851,2.6165,2.5644,2.5886,2.4918,2.3589,2.1951,2.0764,1.9454,1.7989,1.7303,1.6772,1.6232,1.6133,1.6083,1.6083,1.6083,1.6083,1.6083,1.6083,1.6218,1.6497,1.6497,1.6653,1.6958,1.6958,1.6965,1.6978,1.6978,1.6978,1.6978,1.6978,1.6978,1.6978,1.6978,1.6978,1.6978,1.6978,1.6978,1.6978,1.6978,1.6978,1.6978,1.6978,1.6978,1.6978,1.6978,1.6978,1.6978,1.6978,1.6978,1.6978,1.6978,1.6978,1.6978,1.6978,1.7031,1.7241,1.7758,1.8798,1.9999,2.1145,2.3065,2.477,2.543,2.6354,2.7133,2.7645,2.8218,2.8637,2.8688,2.9084,2.944,2.9491,2.9909,3.0214,3.0214,3.0214,3.0214,3.0214,3.0214,3.0214,3.0214,3.0214,3.0214,3.0214,3.0214,3.0214,3.0214,3.0214,3.0214,3.0214,3.0214,3.0214,3.0214,3.0214,3.0214,0.0,0.0,0.0,0.0,0.0,0.0,2.38,2.4041,2.427,2.427,2.474,2.5258,2.5572,2.5489,2.5454,2.576,2.5499,2.5502,2.6114,2.4577,2.3269,2.2928,2.1401,1.9947,1.8785,1.7985,1.7318,1.6772,1.6325,1.6083,1.6083,1.6083,1.6083,1.6083,1.6083,1.6171,1.6347,1.6347,1.6503,1.6743,1.6743,1.6863,1.6978,1.6978,1.6978,1.6978,1.6978,1.6978,1.6978,1.6978,1.6978,1.6978,1.6978,1.6978,1.6978,1.6978,1.6978,1.6978,1.6978,1.6978,1.6978,1.6978,1.6978,1.6978,1.6978,1.6978,1.6978,1.6978,1.6978,1.6978,1.6978,1.7346,1.7758,1.8327,1.9634,2.1197,2.2755,2.4151,2.5553,2.7031,2.7491,2.7656,2.7758,2.8229,2.8739,2.9186,2.9338,2.9542,3.0011,3.0163,3.0214,3.0214,3.0214,3.0214,3.0214,3.0214,3.0214,3.0214,3.0214,3.0214,3.0214,3.0214,3.0214,3.0214,3.0214,3.0214,3.0214,3.0214,3.0214,3.0214,3.0214,3.0214,0.0,0.0,0.0,2.396,0.0,0.0,0.0,2.4005,2.4198,2.4198,2.4511,2.4873,2.515,2.4847,2.463,2.4928,2.472,2.4687,2.5341,2.4717,2.4057,2.3652,2.2565,2.1339,2.0001,1.9151,1.8216,1.7013,1.6374,1.6083,1.6083,1.6083,1.6083,1.6083,1.6083,1.6157,1.6307,1.6381,1.6479,1.6702,1.6777,1.6904,1.6978,1.6978,1.6978,1.6978,1.6978,1.6978,1.6978,1.6978,1.6978,1.6978,1.6978,1.6978,1.6978,1.6978,1.6978,1.6978,1.6978,1.6978,1.6978,1.6978,1.6978,1.6978,1.6978,1.6978,1.6978,1.6978,1.7188,1.7398,1.7398,1.802,1.885,1.9686,2.1137,2.2642,2.379,2.5131,2.6262,2.6837,2.7144,2.7513,2.8127,2.8433,2.8688,2.8931,2.9237,2.9491,2.9745,3.0011,3.0214,3.0214,3.0214,3.0214,3.0214,3.0214,3.0214,3.0214,3.0214,3.0214,3.0214,3.0214,3.0214,3.0214,3.0214,3.0214,3.0214,3.0214,3.0214,3.0214,3.0214,3.0214,0.0,0.0,0.0,0.0,0.0,2.392,0.0,0.0,0.0,2.4113,2.4294,2.4523,2.48,2.4343,2.4023,2.4364,2.4008,2.3872,0.0,2.4616,0.0,2.4202,2.3664,2.2797,2.1422,2.0215,1.8785,1.706,1.6411,1.6035,1.6035,1.6069,1.6083,1.6083,1.6083,1.6157,1.6307,1.6422,1.652,1.6702,1.6876,1.6951,1.6978,1.6978,1.6978,1.6978,1.6978,1.6978,1.6978,1.6978,1.6978,1.6978,1.6978,1.6978,1.6978,1.6978,1.6978,1.6978,1.6978,1.6978,1.6978,1.6978,1.6978,1.6978,1.6978,1.6978,1.7031,1.7136,1.7549,1.802,1.8222,1.9112,2.0252,2.1353,2.2797,2.409,2.4667,2.5851,2.6621,2.617,2.6437,2.7052,2.8076,2.828,2.8331,2.8433,2.888,2.9288,2.9389,2.9858,3.0214,3.0214,3.0214,3.0214,3.0214,3.0214,3.0214,3.0214,3.0214,3.0214,3.0214,3.0214,3.0214,3.0214,3.0214,3.0214,3.0214,3.0214,3.0214,3.0214,3.0214,3.0214,0.0,0.0,0.0,0.0,2.4412,0.0,0.0,0.0,2.3848,2.3848,0.0,2.3969,2.4234,0.0,0.0,2.4331,2.3792,2.3478,2.3731,2.3698,2.3857,2.4622,2.4077,2.3375,2.2766,2.0339,1.8311,1.7169,1.6335,1.5928,1.5928,1.6058,1.6083,1.6083,1.6083,1.6157,1.6307,1.6327,1.6476,1.6696,1.6716,1.6849,1.6978,1.6978,1.6978,1.6978,1.6978,1.6978,1.6978,1.6978,1.6978,1.6978,1.6978,1.6978,1.6978,1.6978,1.6978,1.6978,1.6978,1.6978,1.6978,1.6978,1.6978,1.6978,1.6978,1.6978,1.7083,1.7601,1.8125,1.8746,1.973,2.0877,2.1977,2.3065,2.4203,2.5244,2.581,2.6067,2.617,2.6118,2.617,2.6386,2.7001,2.7104,2.7257,2.7809,2.8331,2.8841,2.9338,2.9858,3.0214,3.0214,3.0214,3.0214,3.0214,3.0214,3.0214,3.0214,3.0214,3.0214,3.0214,3.0214,3.0214,3.0214,3.0214,3.0214,3.0214,3.0214,3.0214,3.0214,3.0214,3.0214,0.0,0.0,0.0,0.0,0.0,0.0,2.4252,0.0,2.4492,0.0,0.0,0.0,0.0,0.0,0.0,0.0,2.3836,2.3742,0.0,0.0,2.3874,2.3981,0.0,0.0,2.1578,1.9569,1.801,1.7206,1.6271,1.5764,1.5901,1.5962,1.6037,1.6076,1.6083,1.611,1.6178,1.6347,1.6497,1.6567,1.6795,1.6917,1.6978,1.6978,1.6978,1.6978,1.6978,1.6978,1.6978,1.6978,1.6978,1.6978,1.6978,1.6978,1.6978,1.6978,1.6978,1.6978,1.6978,1.6978,1.6978,1.6978,1.6978,1.6978,1.6978,1.7241,1.7601,1.8118,1.9112,2.0304,2.144,2.259,2.3738,2.4812,2.543,2.5851,2.6067,2.5851,2.5543,2.5244,2.5192,2.5347,2.5861,2.6488,2.7001,2.7257,2.8025,2.8688,2.888,2.9655,3.0214,3.0214,3.0214,3.0214,3.0214,3.0214,3.0214,3.0214,3.0214,3.0214,3.0214,3.0214,3.0214,3.0214,3.0214,3.0214,3.0214,3.0214,3.0214,3.0214,3.0214,3.0214,2.4057,0.0,0.0,0.0,0.0,0.0,0.0,0.0,0.0,0.0,0.0,0.0,0.0,0.0,0.0,0.0,0.0,2.3838,0.0,2.3686,0.0,0.0,0.0,0.0,0.0,1.893,1.7804,1.731,1.6179,1.5622,1.5772,1.586,1.5956,1.6064,1.6062,1.6103,1.6144,1.6395,1.6544,1.6533,1.6856,1.6978,1.6978,1.6978,1.6978,1.6978,1.6978,1.6978,1.6978,1.6978,1.6978,1.6978,1.6978,1.6978,1.6978,1.6978,1.6978,1.6978,1.6978,1.6978,1.6978,1.6978,1.6978,1.7031,1.7188,1.7503,1.7968,1.885,2.0051,2.1457,2.2901,2.3883,2.477,2.5851,2.5892,2.5645,2.545,2.4873,2.4245,2.3677,2.3686,2.3996,2.4522,2.5913,2.6939,2.7104,2.8127,2.8841,2.8841,2.9655,3.0214,3.0214,3.0214,3.0214,3.0214,3.0214,3.0214,3.0214,3.0214,3.0214,3.0214,3.0214,3.0214,3.0214,3.0214,3.0214,3.0214,3.0214,3.0214,3.0214,3.0214,3.0214,0.0,0.0,0.0,2.4957,0.0,0.0,0.0,0.0,2.4612,0.0,0.0,0.0,0.0,0.0,0.0,0.0,0.0,0.0,0.0,0.0,0.0,0.0,0.0,0.0,0.0,1.8772,1.7758,1.7437,1.6142,1.5418,1.5425,1.5696,1.5901,1.5908,1.6051,1.6151,1.63,1.6449,1.6598,1.6696,1.6904,1.6978,1.6978,1.6978,1.6978,1.6978,1.6978,1.6978,1.6978,1.6978,1.6978,1.6978,1.6978,1.6978,1.6978,1.6978,1.6978,1.6978,1.6978,1.6978,1.6978,1.6978,1.6978,1.7083,1.7601,1.7811,1.8125,1.9798,2.0685,2.1613,2.3841,2.4461,2.478,2.5861,2.5295,2.4409,2.379,2.2858,2.1925,2.1336,2.1656,2.2236,2.2806,2.5121,2.7082,2.7656,2.8677,2.9389,2.9389,2.9858,3.0214,3.0214,3.0214,3.0214,3.0214,3.0214,3.0214,3.0214,3.0214,3.0214,3.0214,3.0214,3.0214,3.0214,3.0214,3.0214,3.0214,3.0214,3.0214,3.0214,3.0214,3.0214,0.0,0.0,2.3627,2.2892,0.0,0.0,0.0,0.0,0.0,0.0,0.0,0.0,0.0,0.0,0.0,0.0,0.0,0.0,0.0,0.0,0.0,0.0,0.0,0.0,0.0,0.0,1.6446,1.6162,1.5398,1.5052,1.5248,1.5404,1.5595,1.5894,1.5956,1.6051,1.6157,1.6402,1.6493,1.6554,1.6856,1.6978,1.6978,1.6978,1.6978,1.6978,1.6978,1.6978,1.6978,1.6978,1.6978,1.6978,1.6978,1.6978,1.6978,1.6978,1.6978,1.6978,1.6978,1.6978,1.6978,1.6978,1.6978,1.7083,1.7653,1.8073,1.8693,2.0364,2.1509,2.2651,2.4512,2.478,2.4564,2.4915,2.3883,2.2703,2.2072,2.1085,2.0408,2.052,2.1041,2.1821,2.3117,2.5028,2.658,2.7133,2.8167,2.8982,2.9338,2.9858,3.0214,3.0214,3.0214,3.0214,3.0214,3.0214,3.0214,3.0214,3.0214,3.0214,3.0214,3.0383,3.0467,3.0467,3.0648,3.0648,3.0467,3.0467,3.0383,3.0214,3.0214,3.0214,2.1959,2.2302,0.0,2.2003,2.2056,0.0,2.304,0.0,0.0,0.0,0.0,0.0,0.0,0.0,0.0,0.0,0.0,0.0,0.0,2.0095,0.0,0.0,0.0,0.0,0.0,1.5988,1.5606,1.5493,1.5006,1.4775,0.0,0.0,1.5364,1.5656,1.5723,1.5852,1.6051,1.6293,1.6469,1.6524,1.6836,1.6978,1.6978,1.6978,1.6978,1.6978,1.6978,1.6978,1.6978,1.6978,1.6978,1.6978,1.6978,1.6978,1.6978,1.6978,1.6978,1.6978,1.6978,1.6978,1.6978,1.6978,1.6978,1.7083,1.7653,1.817,1.8955,2.0625,2.1769,2.2858,2.4306,2.4151,2.3583,2.3573,2.2279,2.0929,2.0348,1.9522,1.9007,1.9328,1.9999,2.1041,2.2755,2.4409,2.5964,2.7287,2.8269,2.9096,2.9593,3.0011,3.0214,3.0214,3.0214,3.0214,3.0214,3.0214,3.0214,3.0214,3.0214,3.0214,3.0214,3.0467,3.0612,3.0612,3.0865,3.0865,3.0612,3.0612,3.0467,3.0214,3.0214,3.0214]},{"header":{"parameterUnit":"m.s-1","parameterCategory":1,"la1":30.6,"la2":29.2853,"lo1":-89.7004,"lo2":-87.6739,"dy":0.0162,"dx":0.0183,"nx":112,"ny":82,"refTime":"2023-09-29T00:00:00:Z","depth":0,"parameterNumber":3,"parameterNumberName":"V-component_of_WINDS"},"data":[0.0,0.0,0.0,0.0,0.0,0.0,0.0,0.0,0.0,0.0,0.0,0.0,0.0,0.0,0.0,0.0,0.0,0.0,0.0,0.0,0.0,0.0,0.0,0.0,0.0,0.0,0.0,0.0,0.0,0.0,0.0,0.0,0.0,0.0,0.0,0.0,0.0,0.0,0.0,0.0,0.0,0.0,0.0,0.0,0.0,0.0,0.0,0.0,0.0,0.0,0.0,0.0,0.0,0.0,0.0,0.0,0.0,0.0,0.0,0.0,0.0,0.0,0.0,0.0,0.0,0.0,0.0,0.0,0.0,0.0,0.0,0.0,0.0,0.0,0.0,0.0,0.0,0.0,0.0,0.0,0.0,0.0,0.0,0.0,0.0,0.0,0.0,0.0,0.0,0.0,5.2383,5.2451,5.3718,5.4503,5.4246,5.4505,5.4049,5.2501,0.0,0.0,0.0,0.0,0.0,0.0,0.0,0.0,0.0,0.0,0.0,0.0,0.0,0.0,0.0,0.0,0.0,0.0,0.0,0.0,0.0,0.0,0.0,0.0,0.0,0.0,0.0,0.0,0.0,0.0,0.0,0.0,0.0,0.0,0.0,0.0,0.0,0.0,0.0,0.0,0.0,0.0,0.0,0.0,0.0,0.0,0.0,0.0,0.0,0.0,0.0,0.0,0.0,0.0,0.0,0.0,0.0,0.0,0.0,0.0,0.0,0.0,0.0,0.0,0.0,0.0,0.0,0.0,0.0,0.0,0.0,0.0,0.0,0.0,0.0,0.0,0.0,0.0,0.0,0.0,0.0,0.0,0.0,0.0,0.0,0.0,0.0,0.0,0.0,0.0,0.0,0.0,0.0,0.0,0.0,0.0,0.0,0.0,0.0,0.0,0.0,0.0,0.0,0.0,5.2645,5.3917,5.4861,5.5133,5.4451,5.5034,5.4854,5.3452,0.0,0.0,0.0,0.0,0.0,0.0,0.0,0.0,0.0,0.0,0.0,0.0,0.0,0.0,0.0,0.0,0.0,0.0,0.0,0.0,0.0,0.0,0.0,0.0,0.0,0.0,0.0,0.0,0.0,0.0,0.0,0.0,0.0,0.0,0.0,0.0,0.0,0.0,0.0,0.0,0.0,0.0,0.0,0.0,0.0,0.0,0.0,0.0,0.0,0.0,0.0,0.0,0.0,0.0,0.0,0.0,0.0,0.0,0.0,0.0,0.0,0.0,0.0,0.0,0.0,0.0,0.0,0.0,0.0,0.0,0.0,0.0,0.0,0.0,0.0,0.0,0.0,0.0,0.0,0.0,0.0,0.0,0.0,0.0,0.0,0.0,0.0,0.0,0.0,0.0,0.0,0.0,0.0,0.0,0.0,0.0,0.0,0.0,0.0,0.0,0.0,0.0,0.0,5.2524,5.312,5.4289,5.473,5.4781,5.4338,5.4697,5.4533,5.3487,5.3432,0.0,0.0,0.0,0.0,0.0,0.0,0.0,0.0,0.0,0.0,0.0,0.0,0.0,0.0,0.0,0.0,0.0,0.0,0.0,0.0,0.0,0.0,0.0,0.0,0.0,0.0,0.0,0.0,0.0,0.0,0.0,0.0,0.0,0.0,0.0,0.0,0.0,0.0,0.0,0.0,0.0,0.0,0.0,0.0,0.0,0.0,0.0,0.0,0.0,0.0,0.0,0.0,0.0,0.0,0.0,0.0,0.0,0.0,0.0,0.0,0.0,0.0,0.0,0.0,0.0,0.0,0.0,0.0,0.0,0.0,0.0,0.0,0.0,0.0,0.0,0.0,0.0,0.0,0.0,0.0,0.0,0.0,0.0,0.0,0.0,0.0,0.0,0.0,0.0,0.0,0.0,0.0,0.0,0.0,0.0,0.0,0.0,0.0,0.0,0.0,0.0,0.0,5.3214,5.3434,5.4069,5.4289,5.4283,5.4001,5.4257,5.4117,5.3386,5.361,0.0,0.0,0.0,0.0,0.0,0.0,0.0,0.0,0.0,0.0,0.0,0.0,0.0,0.0,0.0,0.0,0.0,0.0,0.0,0.0,0.0,0.0,0.0,0.0,0.0,0.0,0.0,0.0,0.0,0.0,0.0,0.0,0.0,0.0,0.0,0.0,0.0,0.0,0.0,0.0,0.0,0.0,0.0,0.0,0.0,0.0,0.0,0.0,0.0,0.0,0.0,0.0,0.0,0.0,0.0,0.0,0.0,0.0,0.0,0.0,0.0,0.0,0.0,0.0,0.0,0.0,0.0,0.0,0.0,0.0,0.0,0.0,0.0,0.0,0.0,0.0,0.0,0.0,0.0,0.0,0.0,0.0,0.0,0.0,0.0,0.0,0.0,0.0,0.0,0.0,0.0,0.0,0.0,0.0,0.0,0.0,0.0,0.0,0.0,0.0,0.0,0.0,5.3214,5.3214,5.3287,5.3959,5.4095,5.3314,5.4007,5.4196,5.3545,5.3617,0.0,0.0,0.0,0.0,0.0,0.0,0.0,0.0,0.0,0.0,0.0,0.0,0.0,0.0,0.0,0.0,0.0,0.0,0.0,0.0,0.0,0.0,0.0,0.0,0.0,0.0,0.0,0.0,0.0,0.0,0.0,0.0,0.0,0.0,0.0,0.0,0.0,0.0,0.0,0.0,0.0,0.0,0.0,0.0,0.0,0.0,0.0,0.0,0.0,0.0,0.0,0.0,0.0,0.0,0.0,0.0,0.0,0.0,0.0,0.0,0.0,0.0,0.0,0.0,0.0,0.0,0.0,0.0,0.0,0.0,0.0,0.0,0.0,0.0,0.0,0.0,0.0,0.0,0.0,0.0,0.0,0.0,0.0,0.0,0.0,0.0,0.0,0.0,0.0,0.0,0.0,0.0,0.0,0.0,0.0,0.0,0.0,0.0,0.0,0.0,0.0,0.0,5.3214,5.3214,0.0,5.3471,5.3544,5.3214,5.3513,5.3655,5.3518,0.0,0.0,0.0,0.0,0.0,0.0,0.0,0.0,0.0,0.0,0.0,0.0,0.0,0.0,0.0,0.0,0.0,0.0,0.0,0.0,0.0,0.0,0.0,0.0,0.0,0.0,0.0,0.0,0.0,0.0,0.0,0.0,0.0,0.0,0.0,0.0,0.0,0.0,0.0,0.0,0.0,0.0,0.0,0.0,0.0,0.0,0.0,0.0,0.0,0.0,0.0,0.0,0.0,0.0,0.0,0.0,0.0,0.0,0.0,0.0,0.0,0.0,0.0,0.0,0.0,0.0,0.0,0.0,0.0,0.0,0.0,0.0,0.0,0.0,0.0,0.0,0.0,0.0,0.0,0.0,0.0,0.0,0.0,0.0,0.0,0.0,0.0,0.0,0.0,0.0,0.0,0.0,0.0,0.0,0.0,0.0,0.0,0.0,0.0,0.0,0.0,0.0,5.3115,5.3214,5.3214,0.0,5.3214,5.3214,5.3214,5.3209,5.3303,5.342,0.0,0.0,0.0,0.0,0.0,0.0,0.0,0.0,0.0,0.0,0.0,0.0,0.0,0.0,0.0,0.0,0.0,0.0,0.0,0.0,0.0,0.0,0.0,0.0,0.0,0.0,0.0,0.0,0.0,0.0,0.0,0.0,0.0,0.0,0.0,0.0,0.0,0.0,0.0,0.0,0.0,0.0,0.0,0.0,0.0,0.0,0.0,0.0,0.0,0.0,0.0,0.0,0.0,0.0,0.0,0.0,0.0,0.0,0.0,0.0,0.0,0.0,0.0,0.0,0.0,0.0,0.0,0.0,0.0,0.0,0.0,0.0,0.0,0.0,0.0,0.0,0.0,0.0,0.0,0.0,0.0,0.0,0.0,0.0,0.0,0.0,0.0,0.0,0.0,0.0,0.0,0.0,0.0,0.0,0.0,0.0,0.0,0.0,0.0,0.0,0.0,0.0,5.3104,5.3214,5.3214,5.3214,5.3214,5.3214,5.3214,5.3246,5.3308,0.0,0.0,0.0,0.0,0.0,0.0,0.0,0.0,0.0,0.0,0.0,0.0,0.0,0.0,0.0,0.0,0.0,0.0,0.0,0.0,0.0,0.0,0.0,0.0,0.0,0.0,0.0,0.0,0.0,0.0,0.0,0.0,0.0,0.0,0.0,0.0,0.0,0.0,0.0,0.0,0.0,0.0,0.0,0.0,0.0,0.0,0.0,0.0,0.0,0.0,0.0,0.0,0.0,0.0,0.0,0.0,0.0,0.0,0.0,0.0,0.0,0.0,0.0,0.0,0.0,0.0,0.0,0.0,0.0,0.0,0.0,0.0,0.0,0.0,0.0,0.0,0.0,0.0,0.0,0.0,0.0,0.0,0.0,0.0,0.0,0.0,0.0,0.0,0.0,0.0,0.0,0.0,0.0,0.0,0.0,0.0,0.0,0.0,0.0,0.0,0.0,0.0,0.0,5.3177,5.3214,5.3214,5.3214,5.3214,5.3214,5.3214,5.3209,5.3261,5.3308,0.0,0.0,0.0,0.0,0.0,0.0,0.0,0.0,0.0,0.0,0.0,0.0,0.0,0.0,0.0,0.0,0.0,0.0,0.0,0.0,0.0,0.0,0.0,0.0,0.0,0.0,0.0,0.0,0.0,0.0,0.0,0.0,0.0,0.0,0.0,0.0,0.0,0.0,0.0,0.0,0.0,0.0,0.0,0.0,0.0,0.0,0.0,0.0,0.0,0.0,0.0,0.0,0.0,0.0,0.0,0.0,0.0,0.0,0.0,0.0,0.0,0.0,0.0,0.0,0.0,0.0,0.0,0.0,0.0,0.0,0.0,0.0,0.0,0.0,0.0,0.0,0.0,0.0,0.0,0.0,0.0,0.0,0.0,0.0,0.0,0.0,0.0,0.0,0.0,0.0,0.0,0.0,0.0,0.0,0.0,0.0,0.0,0.0,0.0,0.0,0.0,0.0,5.3691,5.3959,5.4179,5.4179,5.4179,5.4179,5.4179,5.4179,5.4054,5.376,0.0,0.0,0.0,0.0,0.0,0.0,0.0,0.0,0.0,0.0,0.0,0.0,0.0,0.0,0.0,0.0,0.0,0.0,0.0,0.0,0.0,0.0,0.0,0.0,0.0,0.0,0.0,0.0,0.0,0.0,0.0,0.0,0.0,0.0,0.0,0.0,0.0,0.0,0.0,0.0,0.0,0.0,0.0,0.0,0.0,0.0,0.0,0.0,0.0,0.0,0.0,0.0,0.0,0.0,0.0,0.0,0.0,0.0,0.0,0.0,0.0,0.0,0.0,0.0,0.0,0.0,0.0,0.0,0.0,0.0,0.0,0.0,0.0,0.0,0.0,0.0,0.0,0.0,0.0,0.0,0.0,0.0,0.0,0.0,0.0,0.0,0.0,0.0,0.0,0.0,0.0,0.0,0.0,0.0,0.0,0.0,0.0,0.0,0.0,0.0,0.0,0.0,5.4509,5.5144,5.5585,5.5585,5.5585,5.5585,5.5585,5.5585,5.5291,5.4546,0.0,0.0,0.0,0.0,0.0,0.0,0.0,0.0,0.0,0.0,0.0,0.0,0.0,0.0,0.0,0.0,0.0,0.0,0.0,0.0,0.0,0.0,0.0,0.0,0.0,0.0,0.0,0.0,0.0,0.0,0.0,0.0,0.0,0.0,0.0,0.0,0.0,0.0,0.0,0.0,0.0,0.0,0.0,0.0,0.0,0.0,0.0,0.0,0.0,0.0,0.0,0.0,0.0,0.0,0.0,0.0,0.0,0.0,0.0,0.0,5.1687,0.0,0.0,0.0,0.0,0.0,0.0,0.0,0.0,0.0,0.0,0.0,0.0,0.0,0.0,0.0,0.0,0.0,0.0,0.0,0.0,0.0,0.0,0.0,0.0,0.0,0.0,0.0,0.0,0.0,0.0,0.0,0.0,0.0,0.0,0.0,0.0,0.0,0.0,0.0,0.0,0.0,5.5328,5.5475,5.5585,5.5585,5.5585,5.5585,5.5585,5.5585,5.5548,5.5365,5.5328,0.0,0.0,0.0,0.0,0.0,0.0,0.0,0.0,0.0,0.0,0.0,0.0,0.0,0.0,0.0,0.0,0.0,0.0,0.0,0.0,0.0,0.0,0.0,0.0,0.0,0.0,0.0,0.0,0.0,0.0,0.0,0.0,0.0,0.0,0.0,0.0,0.0,0.0,0.0,0.0,0.0,0.0,0.0,0.0,0.0,0.0,0.0,0.0,0.0,0.0,0.0,0.0,0.0,0.0,0.0,0.0,0.0,0.0,0.0,0.0,5.2511,0.0,0.0,0.0,0.0,0.0,0.0,0.0,0.0,0.0,0.0,0.0,0.0,0.0,0.0,0.0,0.0,0.0,0.0,0.0,0.0,0.0,0.0,0.0,0.0,0.0,0.0,0.0,0.0,0.0,0.0,0.0,0.0,0.0,0.0,0.0,0.0,0.0,0.0,0.0,0.0,5.6161,5.6859,5.7189,5.6796,5.7116,5.7152,5.6796,5.676,5.6602,5.6198,5.6161,0.0,0.0,0.0,0.0,0.0,0.0,0.0,0.0,0.0,0.0,0.0,0.0,0.0,0.0,0.0,0.0,0.0,0.0,0.0,0.0,0.0,0.0,0.0,0.0,0.0,0.0,0.0,0.0,0.0,0.0,0.0,0.0,0.0,0.0,0.0,0.0,0.0,0.0,0.0,0.0,0.0,0.0,0.0,0.0,0.0,0.0,0.0,0.0,0.0,0.0,0.0,0.0,0.0,5.6864,5.7387,5.8361,5.8361,5.8434,5.847,5.6518,5.5471,5.4974,0.0,0.0,0.0,0.0,0.0,0.0,0.0,0.0,0.0,0.0,0.0,0.0,0.0,0.0,0.0,0.0,0.0,0.0,0.0,0.0,0.0,0.0,0.0,0.0,0.0,5.6412,5.6488,0.0,0.0,0.0,0.0,0.0,0.0,0.0,0.0,0.0,0.0,0.0,0.0,5.7214,5.8389,5.9013,5.8474,5.9013,5.9123,5.8474,5.829,5.7923,5.7251,5.7068,5.6667,0.0,0.0,0.0,0.0,0.0,0.0,0.0,0.0,0.0,0.0,0.0,0.0,0.0,0.0,0.0,0.0,0.0,0.0,0.0,0.0,0.0,0.0,0.0,0.0,0.0,0.0,0.0,0.0,0.0,0.0,0.0,0.0,5.0962,5.0352,0.0,0.0,0.0,0.0,0.0,0.0,0.0,0.0,0.0,0.0,0.0,0.0,0.0,5.6042,5.6262,5.7061,5.7856,5.8652,5.8652,5.9432,6.092,6.092,6.1372,6.2095,6.1814,0.0,5.7331,5.664,0.0,0.0,0.0,0.0,0.0,0.0,0.0,0.0,0.0,0.0,0.0,0.0,0.0,0.0,0.0,0.0,0.0,0.0,0.0,0.0,0.0,0.0,5.8742,5.8742,5.9281,5.9758,0.0,5.7567,5.5585,5.5585,0.0,0.0,0.0,0.0,0.0,0.0,0.0,0.0,5.8792,5.9086,5.9416,6.0015,6.0199,6.0187,6.0077,5.9453,5.9013,5.8902,5.8217,5.7813,5.7643,5.6751,0.0,0.0,0.0,0.0,0.0,0.0,0.0,0.0,0.0,0.0,0.0,0.0,0.0,0.0,0.0,0.0,0.0,0.0,0.0,0.0,0.0,0.0,0.0,0.0,0.0,0.0,0.0,0.0,0.0,5.1004,5.1774,5.0995,5.1623,5.1623,0.0,0.0,0.0,0.0,0.0,0.0,0.0,0.0,0.0,5.6648,5.7886,5.8787,5.9189,6.0152,6.1019,6.1738,6.1849,6.2461,6.3597,6.3597,6.3806,6.4224,6.4224,6.3355,6.185,5.9864,5.8779,5.833,0.0,0.0,0.0,0.0,5.7791,5.7796,5.8788,5.9102,0.0,0.0,0.0,0.0,0.0,0.0,0.0,0.0,0.0,0.0,0.0,0.0,0.0,6.0566,6.1141,6.1765,6.1765,6.0272,5.8694,0.0,5.7618,5.7483,5.7042,0.0,0.0,0.0,0.0,5.8976,5.9783,6.026,6.0529,6.0419,6.0786,6.0896,6.0456,6.0077,5.9857,5.9857,5.9123,5.8682,5.8682,5.7724,5.7191,0.0,0.0,0.0,0.0,0.0,0.0,0.0,0.0,0.0,0.0,0.0,0.0,0.0,0.0,0.0,0.0,0.0,0.0,0.0,0.0,0.0,0.0,0.0,0.0,0.0,0.0,0.0,0.0,5.1912,5.2733,5.2528,5.3023,5.301,0.0,0.0,0.0,0.0,0.0,0.0,5.7303,5.8203,5.9018,5.9773,6.0857,6.1686,6.2234,6.3397,6.4291,6.4877,6.4969,6.5448,6.6206,6.6206,6.6316,6.6549,6.6549,6.6389,6.5999,6.2794,6.1139,6.0525,5.9782,5.9465,5.9396,5.9709,5.976,5.9838,6.0754,6.1072,6.1109,6.1527,0.0,6.0962,6.0185,0.0,0.0,0.0,0.0,6.1337,6.1337,6.1924,6.2585,6.2805,6.3319,6.3783,6.4004,6.3576,6.2511,0.0,5.9636,5.9306,5.8731,0.0,0.0,0.0,0.0,6.0114,6.0921,6.1741,6.2071,6.1704,6.2181,6.2291,6.1692,6.1251,6.0994,6.0994,6.0077,5.9526,5.9526,5.8796,5.8396,5.8396,0.0,0.0,0.0,0.0,0.0,0.0,0.0,0.0,0.0,0.0,0.0,0.0,0.0,0.0,0.0,0.0,0.0,0.0,0.0,0.0,0.0,0.0,0.0,0.0,0.0,0.0,0.0,0.0,0.0,5.5607,5.5788,0.0,0.0,0.0,0.0,5.7424,5.8239,5.9066,5.9869,6.0797,6.1664,6.247,6.4147,6.5055,6.5092,6.6646,6.7467,6.7504,6.7517,6.7944,6.8715,6.8715,6.9155,6.9853,6.9853,6.9412,6.8458,6.5241,6.3882,6.3785,6.3051,6.2684,6.2671,6.3566,6.3873,6.3919,6.4727,6.502,6.491,6.4189,6.2953,6.1615,6.0805,6.1087,0.0,0.0,6.2671,6.3919,6.3919,6.4494,6.5301,6.6072,6.6292,6.6512,6.7297,6.7407,6.6232,0.0,6.086,6.0346,6.0309,0.0,6.0309,6.0334,6.1006,6.1777,6.2572,6.3429,6.4237,6.4995,6.5068,6.5105,6.5068,6.36,6.2683,6.2683,6.1215,6.0346,6.0346,6.0188,6.0079,6.0079,5.9955,0.0,0.0,0.0,0.0,0.0,0.0,0.0,0.0,0.0,0.0,0.0,0.0,0.0,0.0,0.0,0.0,0.0,0.0,0.0,0.0,0.0,0.0,0.0,0.0,0.0,0.0,0.0,0.0,5.7716,5.8311,0.0,5.9114,5.9624,5.9966,6.0151,6.187,6.3066,6.3436,6.4746,6.5616,6.5909,6.7,6.76,6.76,6.8715,6.9229,6.9229,6.9229,6.9376,6.9669,6.9669,6.9816,7.011,7.011,6.9926,6.9596,6.8421,6.737,6.6379,6.6124,6.6001,6.6012,6.6345,6.6455,6.6452,6.6746,6.6843,6.6696,6.5888,6.4923,6.4006,6.3712,6.3823,6.4141,6.4617,6.5191,6.5742,6.6269,6.7026,6.7674,6.7981,6.8458,6.8898,6.9155,6.8825,6.8054,6.6586,6.4811,6.3392,6.2879,6.2328,6.2132,6.2695,6.3038,6.3503,6.4297,6.4677,6.4971,6.5251,6.5288,6.5288,6.5288,6.4738,6.4187,6.3686,6.2585,6.1692,6.119,6.0628,6.0347,6.0347,6.0188,5.9956,0.0,0.0,0.0,0.0,0.0,0.0,0.0,0.0,0.0,0.0,0.0,0.0,0.0,0.0,0.0,0.0,0.0,0.0,0.0,0.0,0.0,0.0,0.0,0.0,0.0,0.0,5.8967,6.0708,6.1401,6.1938,6.255,6.3085,6.3442,6.3572,6.5587,6.6823,6.6903,6.8458,6.9302,6.9302,7.011,7.0513,7.0513,7.1321,7.1725,7.1725,7.1725,7.1725,7.1725,7.1725,7.1725,7.1725,7.1725,7.1725,7.1725,7.1725,7.1101,7.0,6.8949,6.8508,6.8508,6.8508,6.8508,6.8508,6.8508,6.8508,6.8398,6.7577,6.6953,6.6463,6.6182,6.6292,6.6609,6.7173,6.7504,6.7907,6.8715,6.9302,6.9839,7.0403,7.0917,7.1394,7.1651,7.1321,7.0903,7.0903,6.8311,6.5925,6.5424,6.4824,6.464,6.5241,6.5571,6.5925,6.6463,6.6756,6.6916,6.6916,6.6916,6.6793,6.6536,6.6256,6.5778,6.4947,6.387,6.2989,6.2487,6.1667,6.1215,6.1215,6.0811,6.0603,6.0591,0.0,0.0,0.0,0.0,0.0,0.0,0.0,0.0,0.0,0.0,0.0,0.0,0.0,0.0,0.0,0.0,0.0,0.0,0.0,0.0,0.0,0.0,0.0,6.0161,6.0234,6.145,6.4639,6.504,6.5738,6.7433,6.763,6.7698,6.7834,6.9302,7.022,7.022,7.1725,7.2569,7.2569,7.334,7.378,7.378,7.4588,7.4977,7.4977,7.4977,7.4977,7.4977,7.4977,7.4977,7.4977,7.4977,7.4977,7.4977,7.4977,7.4977,7.4647,7.1505,7.0257,7.0257,7.0257,7.0257,7.0257,7.0257,7.022,7.0073,6.9302,6.9032,6.8862,6.8104,6.8385,6.9009,6.9032,6.9596,7.0403,7.1197,7.1417,7.1821,7.3377,7.3744,7.3927,7.472,7.4903,7.4903,7.4903,7.1101,6.7921,6.7884,6.7884,6.7847,6.7847,6.8495,0.0,6.8995,6.9706,7.0183,7.0183,7.0146,6.9816,6.9032,6.8238,6.7444,6.6623,6.5094,6.4213,6.4213,6.3392,6.2903,6.2903,6.202,6.1567,6.1531,0.0,0.0,0.0,0.0,0.0,0.0,0.0,0.0,0.0,0.0,0.0,0.0,0.0,0.0,0.0,0.0,0.0,0.0,0.0,0.0,0.0,6.1272,6.2651,6.2078,6.298,6.4725,6.7492,6.8312,6.9095,7.015,7.0773,7.1132,7.1174,7.2129,7.273,7.273,7.367,7.4243,7.4243,7.5028,7.5432,7.5432,7.6225,7.6628,7.6628,7.6628,7.6628,7.6628,7.6628,7.6628,7.6628,7.6628,7.6628,7.6628,7.6628,7.6628,7.6445,7.439,7.3582,7.3582,7.3582,7.3582,7.3582,7.3582,7.3193,7.2679,7.2459,7.1982,7.1468,7.1248,7.1321,7.1615,7.2202,7.2532,7.2899,7.3692,7.3913,7.4023,7.4463,7.4588,7.461,7.483,7.4903,7.4903,7.4903,7.3839,7.2753,7.2129,7.1578,7.1174,7.1174,7.1358,0.0,7.1505,7.1688,7.1835,7.1835,7.1321,7.0866,7.0646,6.9889,6.9082,6.8311,6.7283,6.6709,6.6709,6.5925,6.5485,6.5485,6.5238,6.4809,0.0,0.0,0.0,0.0,0.0,0.0,0.0,0.0,0.0,0.0,0.0,0.0,0.0,0.0,0.0,0.0,0.0,0.0,0.0,0.0,0.0,0.0,6.4388,6.6076,6.6273,6.6809,6.8009,7.0169,7.1101,7.1908,7.2738,7.3546,7.4001,7.4001,7.5102,7.5726,7.5726,7.6533,7.6937,7.6937,7.7414,7.7635,7.7635,7.8112,7.8369,7.8369,7.8369,7.8369,7.8369,7.8369,7.8369,0.0,7.8369,7.8369,7.8369,7.8369,7.8369,0.0,0.0,0.0,0.0,0.0,7.4903,7.4903,7.4903,7.4588,7.4184,7.4184,7.3891,7.3509,7.3509,7.3509,7.3597,7.4074,7.4184,7.4404,7.5212,7.538,7.5491,7.5821,7.5894,7.5894,7.5894,7.5894,7.5894,7.5894,7.5894,0.0,7.5285,7.4258,7.3509,7.3509,7.3509,7.3509,7.3509,7.3509,7.3509,7.3509,7.3105,7.2665,7.2334,7.1578,0.0,0.0,0.0,6.8054,6.77,6.726,0.0,0.0,0.0,6.6769,6.6329,0.0,0.0,0.0,6.3724,6.3727,0.0,0.0,0.0,0.0,0.0,0.0,0.0,0.0,0.0,0.0,0.0,0.0,0.0,0.0,0.0,0.0,6.7569,6.9765,7.1454,7.1248,7.1394,7.2753,7.3634,7.4404,7.5234,7.6056,7.6533,7.6533,7.7892,7.8736,7.8736,0.0,0.0,0.0,0.0,7.9926,7.9926,8.0036,8.0073,8.0073,8.0073,8.0073,8.0073,8.0073,8.0073,8.0073,8.0073,8.0073,8.0073,8.0073,8.0036,7.9706,7.7414,7.6533,7.6423,7.5726,7.538,7.5307,7.5307,0.0,0.0,7.516,7.516,7.516,7.516,7.516,7.516,7.516,7.516,7.5344,7.6056,7.624,7.6423,7.7142,7.7289,7.7289,7.7289,7.7289,7.7289,7.7289,7.7289,7.7289,7.7289,7.6114,7.516,7.516,7.516,7.516,7.516,7.516,7.516,7.516,0.0,0.0,7.4037,7.323,7.2445,7.1747,7.0353,6.9229,6.8398,6.8471,6.8435,6.8251,6.8251,6.8141,6.7958,6.7958,6.8361,6.9009,6.7467,6.6806,0.0,0.0,0.0,0.0,0.0,0.0,0.0,0.0,0.0,0.0,0.0,0.0,0.0,0.0,0.0,6.773,6.9678,7.1637,7.3876,7.5197,7.5784,7.5432,7.6114,7.6922,7.7818,7.8589,7.9082,7.9082,7.9376,7.9559,7.9559,7.9706,7.9816,7.9816,8.0424,8.0755,8.0755,8.1415,8.1746,8.1746,0.0,0.0,8.1746,8.1746,8.1746,8.1746,8.1746,8.1746,8.1746,8.1746,8.1342,8.0645,7.9522,7.9082,7.9082,7.8898,7.8442,7.7892,7.7892,7.7399,7.6848,7.6848,7.6848,7.6848,7.6848,7.6848,0.0,7.6848,7.6848,7.6885,7.7032,7.7069,7.7105,7.7252,7.7289,7.7289,7.7289,7.7289,7.7289,7.7289,7.7289,7.7289,7.7289,7.7032,7.6848,7.6848,7.6848,7.6848,7.6848,7.6848,7.6848,7.6848,7.6261,7.5799,7.5652,7.4918,7.4353,7.4206,7.3913,7.3377,7.2583,7.3156,7.2899,7.1615,7.1578,7.0917,6.9633,6.9633,6.9706,6.9853,6.8898,6.8788,0.0,0.0,0.0,0.0,0.0,0.0,0.0,0.0,0.0,0.0,0.0,6.321,6.5324,0.0,6.8083,7.138,7.2922,7.4426,7.646,7.7781,7.8259,7.7451,7.8075,7.8736,7.914,7.991,8.0388,8.0388,8.0771,8.0991,8.0991,8.0991,8.0991,8.0991,8.1379,8.1599,8.1599,8.2003,8.2186,8.2186,8.2186,8.2186,8.2186,8.2186,8.2186,8.2186,8.2186,8.2186,8.2186,8.2186,8.1966,8.1562,8.1158,8.0514,7.9816,7.9816,7.9559,7.9192,7.9192,7.8919,7.8479,7.8075,7.7949,7.7949,7.7949,7.7949,7.8023,7.8442,7.8552,7.8552,7.8552,7.8259,7.7949,7.7949,7.7619,7.7289,7.7289,7.7289,7.7289,7.7289,7.7289,7.7289,7.7289,7.7289,7.7289,7.7289,7.7289,7.7289,7.7289,7.7289,7.7289,7.7289,7.6922,7.6702,7.6702,7.5983,7.5322,7.494,7.4903,7.472,7.4331,7.4683,7.45,7.3729,7.3692,7.3303,7.2496,7.2496,7.2496,7.2496,7.2092,7.1454,0.0,0.0,0.0,0.0,0.0,0.0,0.0,6.1878,6.2438,6.4094,6.4785,6.6036,6.9113,6.9893,7.127,7.5014,7.6166,7.7157,7.8846,7.9617,7.9837,7.936,7.9727,8.011,8.0257,8.0865,8.1232,8.1232,8.1819,8.2186,8.2186,8.2186,8.2186,8.2186,8.2186,8.2186,8.2186,8.2186,8.2186,8.2186,8.2186,8.2186,8.2186,8.2186,8.2186,8.2186,8.2186,8.2186,8.2186,8.2186,8.2186,8.2186,8.2186,8.1432,8.0257,8.0257,8.0183,8.0036,8.0036,7.9926,7.9706,7.9029,7.8809,7.8809,7.8809,7.8809,7.8956,7.9633,7.9816,7.9816,7.9816,7.9192,7.8589,7.8589,7.7913,7.7289,7.7289,7.7289,7.7289,7.7289,7.7289,7.7289,7.7289,7.7289,7.7289,7.7289,7.7289,7.7289,7.7289,7.7289,7.7289,7.7289,7.7289,7.7289,7.7289,7.6702,7.6056,7.5417,7.538,7.538,7.538,7.538,7.527,7.5124,7.5124,7.505,7.4903,7.4903,7.4903,7.4903,7.4903,7.3839,5.9239,5.9463,5.9928,6.0878,6.1109,6.1487,0.0,6.4061,6.5128,6.6751,6.8326,7.0169,7.2665,7.3729,7.5087,7.7745,7.8259,7.8883,8.0498,8.0828,8.1085,8.1709,8.1232,8.1158,8.1856,8.2003,8.2076,8.2076,8.215,8.2186,8.2186,8.2186,8.2186,8.2186,8.2186,8.2186,8.2186,8.2186,8.2186,8.2186,8.2186,8.2186,8.2186,8.2186,8.2186,8.2186,8.2186,8.2186,8.2186,8.2186,8.2186,8.2186,8.2186,8.2076,8.1929,8.1929,8.1489,8.0865,8.0865,8.0388,7.9779,7.9706,7.9669,7.9669,7.9669,7.9669,7.9669,7.9779,7.9816,7.9816,7.9816,7.9192,7.8589,7.8589,7.7913,7.7289,7.7289,7.7289,7.7289,7.7289,7.7289,7.7289,7.7289,7.7289,7.7289,7.7289,7.7289,7.7289,7.7289,7.7289,7.7289,7.7289,7.7289,7.7289,7.7289,7.7215,7.7142,7.7032,7.7032,7.7032,7.7032,7.7032,7.6702,7.5983,7.5983,7.5616,7.4903,7.4903,7.4903,7.4903,7.4903,7.4757,6.1017,6.1438,6.1991,6.3758,6.4592,6.5414,6.7062,6.8078,6.9293,7.1382,7.2379,7.3634,7.6093,7.6827,7.7708,7.969,7.9984,8.0388,8.1525,8.1709,8.1819,8.215,8.1893,8.1819,8.215,8.2186,8.2186,8.2186,8.2186,8.2186,8.2186,8.2186,8.2186,8.2186,8.2186,8.2186,8.2186,8.2663,8.292,8.292,8.3476,8.3783,8.3746,8.3843,8.3634,8.3155,8.2713,8.2476,8.2476,8.2476,8.2476,8.2476,8.2476,8.2476,8.246,8.2267,8.2003,8.1709,8.1709,8.1489,8.1138,8.0645,8.0498,8.0498,8.0498,8.0498,8.0608,8.1048,8.1211,8.1211,8.1211,8.0608,7.9984,7.9984,7.936,7.8736,7.8736,7.8736,7.8736,7.8736,7.8736,7.8736,7.8736,7.8736,7.8736,7.8736,7.7913,7.7289,7.7289,7.7289,7.7289,7.7289,7.7289,7.7289,7.7289,7.7289,7.7289,7.7289,7.7289,7.7289,7.7289,7.7289,7.7142,7.6812,7.6812,7.6628,7.6298,7.6298,7.6298,7.6298,7.6298,7.6298,6.2741,6.3442,6.4328,6.6746,6.7853,6.8912,7.0954,7.1872,7.2995,7.5417,7.5931,7.6607,7.8846,7.925,7.9727,8.1122,8.1342,8.1525,8.2113,8.2186,8.2113,8.1893,8.2039,8.2113,8.1893,8.2076,8.2186,8.2186,8.2186,8.2296,8.2517,8.2517,8.2659,8.2929,8.2929,8.2945,8.2994,8.3582,8.386,8.3876,8.4596,8.4956,8.4956,8.5048,8.4764,8.421,8.3619,8.3361,8.3361,8.3139,8.3028,8.3028,8.2807,8.2696,8.2665,8.2428,8.2332,8.2332,8.2332,8.2332,8.2259,8.167,8.1486,8.147,8.1386,8.1406,8.1517,8.2056,8.2186,8.2186,8.2186,8.1599,8.1012,8.1012,8.0388,7.9795,7.9842,7.9842,7.9858,7.9942,7.9958,7.9905,7.9858,7.9842,7.9827,7.9816,7.8772,7.7986,7.7986,7.7986,7.7986,7.7986,7.7986,7.7986,7.7986,7.7986,7.7986,7.7986,7.7986,7.7986,7.7986,7.7986,7.7876,7.7656,7.7656,7.7546,7.7289,7.7289,7.7289,7.7289,7.7289,7.7436,6.4762,6.5673,6.6953,6.9376,7.0,7.0844,7.4023,7.4757,7.5491,7.7965,7.8479,7.8993,8.0645,8.0938,8.1195,8.2039,8.215,8.215,8.2186,8.2186,8.1893,8.1122,8.1746,8.1893,8.1122,8.1746,8.2186,8.2186,8.2186,8.2553,8.3308,8.3344,8.3811,8.4801,8.4817,8.4882,8.5007,8.5044,8.5044,8.5044,8.508,8.5096,8.5096,8.5096,8.5096,8.506,8.5023,8.5023,8.4986,8.421,8.3878,8.3804,8.2991,8.2696,8.2696,8.268,8.268,8.268,8.268,8.268,8.268,8.268,8.2643,8.2612,8.2402,8.2355,8.2323,8.2235,8.2186,8.2186,8.2186,8.1599,8.1012,8.1012,8.0388,7.9863,7.9983,7.9977,8.006,8.0265,8.0295,8.0213,8.0045,7.9977,7.9967,7.9795,7.9779,7.9706,7.9706,7.9706,7.9706,7.9706,7.9706,7.9706,7.9706,7.9706,7.9706,7.9706,7.9706,7.9706,7.9706,7.9706,7.9376,7.8589,7.8552,7.8148,7.7289,7.7289,7.7289,7.7289,7.7289,7.7766,6.7106,6.8247,6.9596,7.2569,7.3707,7.4661,7.6864,7.7781,7.8369,7.9229,7.9412,7.9412,7.9396,7.9837,8.0277,8.055,8.1048,8.1599,8.2113,8.2186,8.2113,8.1819,8.2039,8.2076,8.1819,8.2039,0.0,8.2186,8.2814,8.3321,8.3578,8.4191,8.4694,8.5016,8.5016,8.5048,8.5096,8.5614,8.5909,8.5909,8.6576,8.6947,8.7074,8.648,8.6205,8.6205,8.5649,8.5426,8.5389,8.513,8.5019,8.4982,8.4722,8.4611,8.4611,8.4611,8.4611,8.4432,8.3143,8.2696,8.2696,8.2696,8.2696,8.268,8.2618,8.2602,8.2586,8.2539,8.2523,8.2523,8.2523,8.2339,8.2118,8.2118,8.1934,8.1728,8.179,8.1806,8.1821,8.1868,8.1883,8.2052,8.2507,8.2581,8.275,8.324,8.1318,7.9816,7.9816,7.9816,7.9816,7.9816,7.9816,7.9816,7.9816,7.9816,7.9816,7.9816,7.9816,7.9816,7.9816,7.9816,7.9669,7.9412,7.9412,7.9265,7.8956,7.8956,7.8956,7.8956,7.8956,7.9103,6.9509,7.0991,7.2532,7.5469,7.6607,7.7414,7.9066,7.9633,7.989,8.0183,7.9764,7.9229,7.8699,7.9029,7.9465,7.9821,8.0556,8.1381,8.2254,8.238,8.227,8.1975,8.2196,8.238,8.238,8.2638,8.2789,8.2741,8.3365,8.4014,8.4604,8.5196,8.5683,8.6042,8.6079,8.6111,8.6175,8.6693,8.6952,8.6952,8.7603,8.7974,8.81,8.7527,8.7267,8.723,8.6709,8.6486,8.6449,8.6152,8.6041,8.6004,8.5706,8.5595,8.5595,8.5595,8.5595,8.5416,8.4164,8.3716,8.3716,8.3716,8.3716,8.3716,8.3691,8.3676,8.366,8.3598,8.3361,8.3213,8.3471,8.3361,8.3213,8.3508,8.3582,8.3598,8.366,8.3676,8.3691,8.3716,8.3716,8.3886,8.4357,8.4368,8.4506,8.5023,8.315,8.1681,8.1681,8.1681,8.1681,8.1681,8.1633,8.1638,8.1638,8.128,8.1085,8.1085,8.0844,8.0661,8.0661,8.0661,8.0514,8.0241,8.0241,8.011,7.9816,7.9816,7.9816,7.9816,7.9816,7.9963,7.2018,7.3839,7.5674,7.8112,7.8736,7.9103,8.0645,8.0388,8.0073,8.0755,7.9617,7.8531,7.8458,7.8421,7.874,7.9682,8.0545,8.1439,8.248,8.2733,8.2474,8.1714,8.2326,8.2807,8.2822,8.3524,8.3941,8.3855,0.0,8.4706,8.6221,8.6422,8.6893,8.7831,8.7868,8.7964,8.8158,8.8121,8.8084,8.8084,8.8084,8.8084,8.8084,8.8084,8.8084,8.8084,8.8084,8.8084,8.8047,8.7192,8.6858,8.6784,8.6041,8.5743,8.5743,8.5743,8.5743,8.5743,8.5743,8.5669,8.5595,8.5595,8.5595,8.558,8.5464,8.5417,8.5386,8.5176,8.4574,8.4168,8.4944,8.4574,8.4189,8.4944,8.5128,8.5176,8.5386,8.5417,8.5464,8.5564,8.5632,8.5624,8.5485,8.535,8.5239,8.5239,8.5239,8.5223,8.5096,8.5096,8.5096,8.5096,8.5005,8.4907,8.4907,8.4027,8.3487,8.3487,8.2753,8.2366,8.2366,8.2329,8.1925,8.1138,8.1101,8.0713,7.9942,7.9979,8.0,8.0,8.0036,8.0477,7.4515,7.6387,7.8112,7.9947,8.0388,8.0498,8.0901,8.0828,8.0424,7.9433,7.8498,7.7487,7.6236,7.6103,7.6486,7.7341,7.8648,8.0087,8.1609,8.2828,8.3508,8.3324,8.3988,8.4506,8.4469,8.4817,8.5249,0.0,8.5879,8.608,8.6487,8.7784,8.8658,8.8912,8.8912,8.8928,8.8976,8.8381,8.8084,8.8084,8.8084,8.8084,8.8084,8.8084,8.8084,8.8084,8.8084,8.8084,8.81,8.7861,8.775,8.775,8.7527,8.7452,8.7452,8.7452,8.7452,8.7452,8.7452,8.6635,8.5595,8.5595,8.5595,8.5595,8.5549,8.5534,8.5534,8.5488,8.5324,8.5213,8.5436,8.5324,8.5213,8.5436,8.5473,8.5488,8.5534,8.5534,8.5549,8.5595,8.6078,8.6471,8.644,8.6951,8.7328,8.7328,8.7328,8.6804,8.5276,8.5096,8.5096,8.5096,8.5064,8.5032,8.5032,8.48,8.4673,8.4673,8.4488,8.4341,8.4341,8.3788,8.3382,8.3161,8.2571,8.2102,8.1755,8.2343,8.2573,8.2517,8.3251,8.3721,7.7047,7.8662,7.9947,8.1195,8.1269,8.0901,8.0534,7.9958,7.9175,7.7874,7.6832,7.583,7.4871,7.509,7.5803,7.7057,7.8588,8.0393,8.2503,8.354,8.4244,8.4614,8.5021,8.5466,8.5799,8.593,8.6511,0.0,8.7105,8.7031,8.7736,8.8743,8.9459,8.983,8.983,8.983,8.983,8.9384,8.9161,8.9161,8.9161,8.9161,8.9124,8.879,8.8641,8.8604,0.0,8.8084,8.8084,8.8084,8.8084,8.8084,8.8084,8.8084,8.8084,8.8084,8.8084,8.8084,8.8084,8.749,8.6709,8.6709,8.6709,8.6709,8.6709,8.6709,8.6709,8.6709,8.6412,8.6189,8.6598,8.6412,8.6226,8.6598,8.6709,8.6709,8.6709,8.6709,8.6709,8.6709,8.7044,8.7378,8.7378,8.7787,8.8084,8.8084,8.8084,8.7687,8.6571,8.6444,8.6444,8.6444,8.6328,8.628,8.628,8.5883,8.5614,8.5614,8.5281,8.5096,8.5096,8.4653,8.4432,8.4432,8.3988,8.372,8.3587,8.403,8.4203,8.4179,8.4735,8.5005,7.9339,8.0534,8.1342,8.2039,8.1599,8.0755,7.9869,7.8508,7.7179,7.6273,7.4988,7.4067,7.4067,7.476,7.5851,7.751,7.9169,8.1103,8.3723,8.4257,8.474,8.5632,8.5855,8.6264,8.7044,8.7118,8.7787,8.9347,8.8121,8.7935,8.9384,8.957,8.9942,9.0647,9.0647,9.061,9.0499,9.0499,9.0499,9.0499,9.0499,9.0499,9.0462,8.9681,8.931,8.9273,0.0,0.0,8.8084,8.8084,8.8084,8.8084,8.8084,8.8084,8.8084,8.8084,8.8084,8.8084,8.8084,8.8084,8.8084,8.8084,8.8084,8.8084,8.8084,8.8084,8.8084,8.8084,8.7579,8.7149,8.7945,8.7573,8.7217,8.796,8.8162,8.8146,8.8131,8.8131,8.8131,8.8146,8.8162,8.8146,8.8131,8.8131,8.8115,8.81,8.8084,8.81,8.8115,8.81,8.8084,8.8084,8.7958,8.7826,8.7826,8.7031,8.6544,8.6544,8.5862,8.5493,8.5493,8.5382,8.5308,8.5308,8.5197,8.516,8.5128,8.5239,8.5297,8.5244,8.5408,8.5461,8.0498,8.1379,8.2039,8.215,8.1599,8.064,7.9295,7.7686,7.6125,7.4781,7.3901,7.3381,7.3381,7.4118,7.5065,7.6057,7.7617,7.9562,8.2066,8.3566,8.4926,8.6412,8.723,8.7973,8.879,8.8864,8.9273,0.0,9.0016,8.9979,9.0276,9.0907,9.1353,9.1502,9.1502,9.1167,9.0499,9.0499,9.0499,9.0499,9.0499,9.0499,9.0462,8.9681,8.931,8.9273,8.8455,0.0,8.8084,8.8084,8.8084,8.8084,8.8084,8.8084,8.8084,8.8084,8.8084,8.8084,8.8084,8.8084,8.8084,8.8084,8.8084,8.8084,8.8084,8.8084,8.8084,8.8084,8.8081,8.8076,8.8225,8.8242,8.8257,8.8406,8.8444,8.8414,8.8293,8.8263,8.8293,8.8414,8.8444,8.8399,8.8278,8.8263,8.8217,8.8115,8.8084,8.8146,8.8247,8.8177,8.8084,8.8084,8.8068,8.8053,8.8053,8.7873,8.7783,8.7783,8.7672,8.7597,8.7597,8.6892,8.6521,8.6521,8.5853,8.5457,8.5355,8.6006,8.6275,8.6094,8.6941,8.7338,8.1305,8.1893,8.2186,8.2186,8.1333,7.9979,7.7943,7.6361,7.4732,7.2731,7.2532,7.2687,7.2687,7.4076,7.5355,7.5726,7.7547,7.9628,8.1709,8.3381,8.5,8.6598,8.7935,8.8864,8.9273,8.9681,9.0276,9.1056,9.113,9.113,9.113,9.191,9.2393,9.2393,9.2393,9.2171,9.1799,9.1799,9.1799,9.1799,9.1799,9.1539,9.1093,9.0276,8.9681,8.9273,8.8455,0.0,8.8084,8.8084,8.8084,8.8084,8.8084,8.8084,8.8084,8.8084,8.8084,8.8084,8.8084,8.8084,8.8084,8.8084,8.8084,8.8084,8.8084,8.8084,8.8084,8.8084,8.8208,8.8308,8.8308,8.8436,8.8583,8.851,8.8481,8.8466,8.8429,8.8451,8.8495,8.8481,8.8554,8.8539,8.8339,8.8308,8.8247,8.8115,8.8162,8.8217,8.8293,8.8757,8.8884,8.8346,8.8293,8.8293,8.8293,8.8293,8.8293,8.8293,8.8293,8.8263,8.8223,8.7814,8.7545,8.749,8.7081,8.6864,8.6787,8.7195,8.7333,8.7254,8.7741,8.7958,8.1746,8.2186,8.2166,8.2015,8.0971,7.9314,7.6759,7.513,7.3458,7.1002,7.1253,7.1936,7.1936,7.3906,7.554,7.554,7.7473,7.9628,8.1448,8.3121,8.4778,8.6598,8.827,8.9347,8.9533,9.0276,9.1093,9.191,9.1985,9.1985,9.1985,9.2616,9.2988,9.2988,9.2988,9.2988,9.2988,9.2988,9.2988,9.2988,9.2988,9.2542,9.1688,9.087,9.0053,8.9273,8.8455,0.0,0.0,8.8084,8.8084,8.8084,8.8084,8.8084,8.8084,8.8084,8.8084,8.8084,8.8084,8.8084,8.8084,8.8084,8.8084,8.8084,8.8084,8.8084,8.8084,8.8084,8.8239,8.8354,8.8399,8.8613,8.8842,8.8714,8.8642,8.8598,8.8627,8.8742,8.8799,8.8699,8.8785,8.8771,8.8518,8.8429,8.8428,8.8447,8.8569,8.8727,8.8989,8.9843,9.0151,8.9419,8.9252,8.9105,8.8947,8.8961,8.8858,8.8642,8.8613,8.851,8.8354,8.8323,8.8232,8.81,8.8084,8.8084,8.8084,8.8084,8.8084,8.8084,8.8084,8.8195,8.1746,8.2186,8.2035,8.1445,8.0645,7.925,7.6318,7.4454,7.2632,7.0263,7.045,7.1019,7.1019,7.3038,7.4723,7.4723,7.6172,7.8141,8.0468,8.2266,8.4183,8.6524,8.827,8.957,9.0313,9.113,9.1948,9.2802,9.2876,9.2876,9.2876,9.2951,9.2988,9.2988,9.2988,9.2988,9.2988,9.2988,9.2988,9.2988,9.2988,9.2542,9.1688,9.087,9.0053,8.9273,8.8455,0.0,0.0,8.8084,8.8084,8.8084,8.8084,8.8084,8.8084,8.8084,8.8084,8.8084,8.8084,8.8084,8.8084,8.8084,8.8084,8.8084,8.8084,8.8084,8.8084,8.8084,8.8278,8.8495,8.8642,8.9009,8.932,8.9345,8.9143,8.8992,8.9129,8.9133,8.9173,8.9318,8.9345,8.9265,8.8992,8.8823,8.8978,8.9541,8.9757,9.0224,9.1245,9.1623,9.1899,9.2101,9.1641,9.1069,9.0451,9.0413,9.0021,8.9081,8.8944,8.8748,8.8481,8.8369,8.8232,8.81,8.8084,8.8084,8.8084,8.8084,8.8084,8.8084,8.8084,8.8493,8.0901,8.19,8.2127,8.1382,8.0742,7.9357,7.5699,7.4067,7.249,6.9558,6.9608,7.0351,7.0834,7.2518,7.3868,7.3868,7.5243,7.7027,7.8996,8.0668,8.2771,8.5743,8.7973,8.9607,9.0424,9.1688,9.2616,9.2951,9.2988,9.2988,9.2988,9.2988,9.2988,9.2988,9.2988,9.2988,9.2988,9.2988,9.2988,9.2988,9.2988,9.2282,9.0982,9.0647,8.9793,8.8567,8.8233,0.0,0.0,8.8084,8.8084,8.8084,8.8084,8.8084,8.8084,8.8084,8.8084,8.8084,8.8084,8.8162,8.8202,8.8202,8.8263,8.8323,8.8232,8.8202,8.8232,8.8308,8.8577,8.8823,8.8894,8.9119,8.9449,8.9591,8.9449,8.9291,8.9399,8.9918,9.0347,9.0308,9.0751,9.1039,9.0703,9.0638,9.0723,9.0869,9.1089,9.1434,9.1922,9.2683,9.3257,9.3553,9.2739,9.2089,9.1834,9.1796,9.1621,9.1181,9.0925,9.0655,9.0247,9.0034,8.9814,8.9549,8.9533,8.9533,8.9533,8.9533,8.9533,8.9533,8.9533,8.9719,7.9664,8.1024,8.1539,8.0822,8.0192,7.8778,7.4981,7.3554,7.2196,6.9125,6.9348,7.0239,7.0784,7.2258,7.3385,7.3385,7.476,7.6321,7.7733,7.9776,8.2028,8.4592,8.749,8.9533,9.009,9.1873,9.2988,9.2988,9.2988,9.2988,9.2988,9.2988,9.2988,9.2988,9.2988,9.2988,9.2988,9.2988,9.2988,9.2988,9.2988,9.2166,9.0579,9.0579,8.9718,8.8223,0.0,0.0,0.0,8.8223,8.8223,8.8223,8.8223,8.8223,8.8223,8.8223,8.8223,8.8223,8.8223,8.8308,8.8444,8.8705,8.8913,8.9111,8.9278,8.8898,8.8526,8.8941,8.9522,9.0023,9.0116,9.0271,9.0499,9.0682,9.0523,9.036,9.0499,9.1089,9.1617,9.152,9.2036,9.2379,9.2048,9.2048,9.2112,9.2236,9.2506,9.2821,9.3133,9.3941,9.4599,9.4794,9.4135,9.3579,9.3235,9.3235,9.308,9.2691,9.244,9.2049,9.155,9.1229,9.0922,9.0579,9.0531,9.0499,9.0499,9.0499,9.0499,9.0499,9.0499,9.0499,7.8127,7.9409,7.9928,7.9431,7.8652,7.7213,7.4126,7.2791,7.1527,6.9013,6.9756,7.0895,7.0908,7.2258,7.3385,7.3385,7.476,7.6098,7.699,7.9925,8.2303,8.3121,8.6821,8.931,8.931,9.1539,9.2988,9.2988,9.2988,0.0,9.2988,9.2988,9.2988,9.2988,9.2988,9.2988,9.2988,9.2988,9.2988,9.2988,9.2988,9.2231,9.0789,9.0789,8.995,0.0,0.0,0.0,0.0,8.8518,8.8518,8.8518,8.8518,8.8518,8.8518,8.8518,8.8518,8.8518,8.8518,8.8583,8.8826,8.9702,9.0142,9.0569,9.1547,9.037,8.8935,9.007,9.1331,9.2447,9.2768,9.2874,9.2874,9.2874,9.2653,9.2499,9.2629,9.2794,9.2874,9.2874,9.2874,9.284,9.2714,9.2585,9.2815,9.3733,9.3976,9.4433,9.5347,9.5727,9.5941,9.6088,9.6184,9.5809,9.476,9.4673,9.4237,9.3136,9.2829,9.2465,9.194,9.1447,9.1051,9.0805,9.0595,9.0499,9.0499,9.0499,9.0499,9.0499,9.0499,9.0499,7.5308,7.6906,7.7651,7.7495,7.7422,7.655,7.3298,7.2382,7.149,6.9013,6.9348,7.0239,7.0784,7.1812,7.2939,7.4054,7.4649,7.5689,7.7621,7.9293,8.1003,8.2972,8.6799,8.9979,9.165,9.2542,9.3037,9.3114,9.313,9.3216,9.3328,9.3344,9.3232,9.3004,9.2988,9.3054,9.313,9.313,9.2918,9.2449,9.2449,9.1668,9.0251,9.0251,0.0,0.0,0.0,0.0,0.0,8.8851,8.8851,8.8865,8.8889,8.893,8.893,8.9003,8.942,8.996,8.996,9.0395,9.107,9.139,9.1659,9.1925,9.2373,9.1862,9.1229,9.1859,9.234,9.2741,9.3022,9.306,9.3055,9.3103,9.3006,9.2918,9.3038,9.3551,9.3993,9.3993,9.4452,9.4791,9.4718,9.4691,9.4801,9.5113,9.526,9.548,9.5862,9.5971,9.6088,9.6232,9.6269,9.6145,9.5809,9.5809,9.5598,9.5202,9.472,9.4268,9.3818,9.3229,9.2749,9.2444,9.2305,9.2208,9.2208,9.2208,9.2208,9.2208,9.2208,9.2208,7.22,7.4165,7.5249,7.5305,7.5291,7.4612,7.2258,7.1478,7.0735,6.8865,6.9385,7.0314,7.0834,7.1849,7.2977,7.398,7.4649,7.5578,7.7138,7.8847,8.1226,8.4644,8.7564,9.0276,9.2765,9.3054,9.3098,9.3195,9.3338,0.0,9.3633,9.3709,9.3642,9.3488,9.3291,9.3227,9.3401,9.3065,9.2725,9.2428,9.2114,9.1407,9.0291,9.0291,0.0,0.0,0.0,0.0,0.0,8.9346,8.9322,8.9335,8.9439,8.9692,8.9969,9.0058,9.0625,9.1345,9.1345,9.1811,9.2428,9.2817,9.3303,9.3755,9.3988,9.3578,9.3106,9.3371,9.372,9.4084,9.4268,9.4247,9.4255,9.4288,9.4216,9.4164,9.4278,9.472,9.5103,9.5103,9.5514,9.5839,9.5814,9.5818,9.587,9.591,9.6019,9.6088,9.6146,9.6194,9.6222,9.6279,9.6288,9.6288,9.6288,9.6288,9.6222,9.6049,9.5631,9.5224,9.4743,9.4119,9.3611,9.3306,9.3119,9.2988,9.2988,9.2988,9.2988,9.2988,9.2988,9.2988,0.0,7.1249,7.269,7.295,7.2539,7.1886,7.1019,7.0239,0.0,6.8679,6.9794,7.0908,7.0908,7.2258,7.3423,7.3473,7.4811,7.5851,7.5902,7.8764,8.2629,8.7536,8.8837,9.0324,9.2798,9.313,9.3243,9.3275,9.355,0.0,9.3946,9.4104,9.4245,9.4346,9.3866,9.3626,9.3672,9.2885,9.2544,9.2678,9.1939,9.1297,9.0764,9.0764,0.0,0.0,0.0,0.0,0.0,8.9932,8.9979,9.0029,9.0194,9.0745,9.1518,9.153,9.2036,9.2734,9.2734,9.2878,9.3147,9.3987,9.4905,9.5807,9.6049,9.5394,9.4617,9.4627,9.5345,9.6107,9.6107,9.6107,9.6107,9.6107,9.6,9.5961,9.6088,9.6107,9.6107,9.6107,9.6107,9.6107,9.6107,9.6107,9.6146,9.6269,9.6288,9.6288,9.6288,9.6288,9.6288,9.6288,9.6288,9.6288,9.6288,9.6288,9.6203,9.5931,9.574,9.5345,9.4844,9.4217,9.3762,9.3501,9.3167,9.2988,9.2988,9.2988,9.2988,9.2988,9.2988,9.2988,6.6038,0.0,6.9429,7.0793,7.1072,7.0881,0.0,6.9831,6.9459,6.8679,6.9794,7.0908,7.0908,7.2258,7.3647,7.4333,7.5314,7.621,7.6985,7.9922,8.3601,8.7891,8.9175,9.0667,9.3152,9.3423,9.3557,9.3858,9.4061,9.4291,9.4666,9.4807,9.4895,9.492,9.4794,9.4297,9.3385,9.3229,9.2643,9.1571,9.1443,9.1031,9.0395,9.0395,0.0,0.0,0.0,0.0,9.0329,9.0351,9.0743,9.1364,9.1482,9.206,9.2769,9.2891,9.3458,9.4224,9.4224,9.4627,9.5233,9.5545,9.5885,9.6184,9.6232,9.6011,9.5742,9.5848,9.6059,9.6251,9.6251,9.6251,9.6251,9.6251,9.6232,9.6222,9.6241,9.6251,9.6251,9.6251,9.6251,9.6251,9.6251,9.6251,9.626,9.6279,9.6288,9.6288,9.6288,9.6288,9.6288,9.6288,9.6288,9.6288,9.6288,9.6288,9.6232,9.6068,9.5783,9.5391,9.4895,9.4259,9.3762,9.3501,9.3167,9.2988,9.2988,9.2988,9.2988,9.2988,9.2988,9.2988,6.4958,6.6287,6.7681,6.9078,6.9503,6.9532,6.9212,6.9162,6.9125,6.9051,7.0054,7.1019,7.1441,7.2518,7.3573,7.4148,7.5306,7.6865,7.9116,8.168,8.4532,8.7825,8.9324,9.0884,0.0,9.3252,9.3585,9.4212,9.4559,9.4832,9.5163,9.5303,9.5394,9.545,9.5107,9.4506,9.3667,9.3311,9.2606,9.157,9.1206,9.0884,9.0579,9.0579,9.061,0.0,0.0,0.0,9.0709,9.1152,9.1584,9.2092,9.2584,9.3285,9.4023,9.412,9.4667,9.5435,9.5435,9.5704,9.6098,9.6184,9.6241,9.6288,9.6288,9.6251,9.6222,9.6269,9.6288,9.6288,9.6288,9.6288,9.6288,9.6288,9.6288,9.6288,9.6288,9.6288,9.6288,9.6288,9.6288,9.6288,9.6288,9.6288,9.6288,9.6288,9.6288,9.6288,9.6288,9.6288,9.6288,9.6288,9.6288,9.6288,9.6288,9.6288,9.6222,9.6,9.5761,9.5379,9.4883,9.4245,9.3702,9.328,9.3086,9.2988,9.2988,9.2988,9.2988,9.2988,9.2988,9.2988,6.4925,6.5959,6.6836,6.7848,6.8208,6.8334,6.8469,6.8605,6.8865,6.9571,7.0462,7.1316,7.2048,7.2878,7.3537,7.4001,7.567,7.8179,8.1705,8.3661,8.5612,8.8126,8.9797,9.1326,9.2895,9.3255,9.3736,9.4564,9.5032,9.5379,9.5588,9.5706,9.5849,9.5951,9.5298,9.4669,9.4026,9.3164,9.2448,9.1822,9.1124,9.0828,9.0954,9.0954,9.0954,0.0,0.0,0.0,9.1193,9.2017,9.2477,9.2793,9.3606,9.445,9.522,9.522,9.5672,9.6288,9.6288,9.6288,9.6288,9.6288,9.6288,9.6288,9.6288,9.6288,9.6288,9.6288,9.6288,9.6288,9.6288,9.6288,9.6288,9.6288,9.6288,9.6288,9.6288,9.6288,9.6288,9.6288,9.6288,9.6288,9.6288,9.6288,9.6288,9.6288,9.6288,9.6288,9.6288,9.6288,9.6288,9.6288,9.6288,9.6279,9.626,9.6251,9.6117,9.587,9.567,9.531,9.4702,9.4119,9.3565,9.3004,9.2988,9.2988,9.2988,9.2988,9.2988,9.2988,9.2988,9.2988,6.5201,6.5865,6.6443,6.7764,6.8208,6.8334,6.8469,6.9051,6.9571,6.9682,7.092,7.2048,7.2159,7.2955,7.4125,7.5782,7.8478,8.1336,8.4108,8.5435,8.7289,9.0459,9.1605,9.2733,9.4389,9.4617,9.4818,9.5224,9.5477,9.5755,9.5981,9.6127,9.6222,9.6241,9.6126,9.5338,9.3792,9.2824,9.198,9.1164,9.1141,9.1148,9.1166,9.1166,9.1166,9.1166,0.0,9.1589,9.2281,9.2414,9.3308,9.4586,9.4749,9.5326,9.6095,9.6095,9.6172,9.6288,9.6288,9.6288,9.6288,9.6288,9.6288,9.6288,9.6288,9.6288,9.6288,9.6288,9.6288,9.6288,9.6288,9.6288,9.6288,9.6288,9.6288,9.6288,9.6288,9.6288,9.6288,9.6288,9.6288,9.6288,9.6288,9.6288,9.6288,9.6288,9.6288,9.6288,9.6288,9.6288,9.6288,9.6288,9.6288,9.6251,9.6127,9.6049,9.5859,9.5675,9.5621,9.5117,9.4076,9.374,9.3391,9.3004,9.2988,9.2988,9.2988,9.2988,9.2988,9.2988,9.2988,9.2988,6.5536,6.6133,6.6616,6.8107,6.8505,6.8666,6.9244,6.9641,7.0162,7.1094,7.1876,7.2559,7.2969,7.3765,7.5371,7.8394,8.0694,8.3005,8.5647,8.6867,8.8359,9.0742,0.0,9.2824,9.4407,9.4643,9.4947,9.5631,9.5828,0.0,9.6213,9.626,9.6288,9.6288,9.5826,9.498,9.371,9.2819,9.1955,9.11,9.1183,9.121,9.121,9.121,9.121,9.1248,0.0,9.2133,9.2556,9.348,9.4296,9.5066,9.5518,9.5942,9.6288,9.6288,9.6288,9.6288,9.6288,9.6288,9.6288,9.6288,9.6288,9.6288,9.6288,9.6288,9.6288,9.6288,9.6288,9.6288,9.6288,9.6288,9.6288,9.6288,9.6288,9.6288,9.6288,9.6288,9.6288,9.6288,9.6288,9.6288,9.6288,9.6288,9.6288,9.6288,9.6288,9.6288,9.6288,9.6288,9.6288,9.6288,9.6241,9.6127,9.5991,9.579,9.5555,9.5286,9.5131,9.4664,9.3837,9.3587,9.3344,9.3004,9.2988,9.2988,9.2988,9.2988,9.2988,9.2988,9.2988,9.2988,6.5992,6.6668,6.7326,6.8682,6.905,6.9271,7.0002,7.0436,7.106,7.2368,7.278,7.3116,7.3739,7.5071,7.7212,8.073,8.2728,8.4729,8.7217,8.825,8.94,9.1193,9.1958,9.2991,9.4554,9.4808,9.5169,9.5902,9.6078,0.0,9.6279,9.6288,9.6288,9.6288,9.5634,9.4912,9.4027,9.3172,9.2249,9.121,9.121,9.121,9.121,9.121,9.121,9.1248,9.2133,9.2595,9.2903,9.4373,9.5104,9.5365,9.6057,9.6288,9.6288,9.6288,9.6288,9.6288,9.6288,9.6288,9.6288,9.6288,9.6288,9.6288,9.6288,9.6288,9.6288,9.6288,9.6288,9.6288,9.6288,9.6288,9.6288,9.6288,9.6288,9.6288,9.6288,9.6288,9.6288,9.6288,9.6288,9.6288,9.6288,9.6288,9.6288,9.6288,9.6288,9.6288,9.6288,9.6288,9.6288,9.6288,9.6194,9.6019,9.5766,9.5466,9.5141,9.478,9.465,9.4325,9.3717,9.3557,9.3344,9.3004,9.2988,9.2988,9.2988,9.2988,9.2988,9.2988,9.2988,9.2988,6.6616,6.7644,6.8641,6.9443,6.997,7.0263,7.0275,7.1462,7.2548,7.266,7.3323,7.3922,7.3959,7.6832,7.9925,8.2188,8.484,8.7332,8.9301,8.9708,9.0722,9.3183,9.3485,9.4148,9.58,9.6001,9.6001,9.6088,0.0,0.0,9.6288,9.6288,9.6288,9.6288,9.6249,9.5788,9.4912,9.4066,9.2787,9.121,9.121,9.121,9.121,9.121,9.121,9.1248,9.2133,9.2903,9.3672,9.4604,9.548,9.6211,9.6288,9.6288,9.6288,9.6288,9.6288,9.6288,9.6288,9.6288,9.6288,9.6288,9.6288,9.6288,9.6288,9.6288,9.6288,9.6288,9.6288,9.6288,9.6288,9.6288,9.6288,9.6288,9.6288,9.6288,9.6288,9.6288,9.6288,9.6288,9.6288,9.6288,9.6288,9.6288,9.6288,9.6288,9.6288,9.6288,9.6288,9.6288,9.6288,9.6288,9.6194,9.5859,9.5298,9.4883,9.4476,9.399,9.4305,9.4249,9.3717,9.3557,9.3344,9.3004,9.2988,9.2988,9.2988,9.2988,9.2988,9.2988,9.2988,9.2988,6.7732,6.8431,6.908,7.0421,7.1314,7.1925,7.2253,7.3231,7.4326,7.5356,7.5809,7.6224,7.6753,7.9026,8.1583,8.4055,8.6365,8.8545,9.0409,9.0684,9.1441,9.3441,9.3683,9.4348,9.6078,9.6232,9.6232,9.6232,0.0,0.0,9.6288,9.5788,9.5749,9.6288,9.5249,9.4518,9.4181,9.3364,9.2364,9.121,9.121,9.121,9.121,9.121,9.1518,9.2056,9.2903,9.3719,9.4566,9.5441,9.6019,9.6288,9.6288,9.6288,9.6288,9.6288,9.6288,9.6288,9.6288,9.6288,9.6288,9.6288,9.6288,9.6288,9.6288,9.6288,9.6288,9.6288,9.6288,9.6288,9.6288,9.6288,9.6288,9.6288,9.6288,9.6288,9.6288,9.6288,9.6288,9.6288,9.6288,9.6288,9.6288,9.6288,9.6288,9.6288,9.6288,9.6288,9.6288,9.6288,9.6288,9.6288,9.6039,9.5621,9.5081,9.4767,9.4352,9.3792,9.394,9.3814,9.3432,9.3338,9.3195,9.2988,9.2988,9.2988,9.2988,9.2988,9.2988,9.2988,9.2988,9.2988,6.8522,6.9162,6.9781,7.1163,7.221,7.3193,7.44,7.5027,7.586,7.7534,7.8076,7.8428,7.9067,8.0752,8.2932,8.5581,8.7397,8.9143,9.0962,9.121,9.1748,9.3133,9.3557,9.4287,9.5749,9.6134,9.6288,9.6288,9.6288,0.0,0.0,9.5335,9.5143,9.548,9.4326,9.371,9.371,9.2903,9.221,9.1595,9.1325,9.121,9.121,9.1479,9.1941,9.2556,9.3633,9.445,9.5066,9.5942,9.6288,9.6288,9.6288,9.6288,9.6288,9.6288,9.6288,9.6288,9.6288,9.6288,9.6288,9.6288,9.6288,9.6288,9.6288,9.6288,9.6288,9.6288,9.6288,9.6288,9.6288,9.6288,9.6288,9.6288,9.6288,9.6288,9.6288,9.6288,9.6288,9.6288,9.6288,9.6288,9.6288,9.6288,9.6288,9.6288,9.6288,9.6288,9.6288,9.6288,9.626,9.6165,9.5859,9.5444,9.4907,9.4636,9.425,9.3664,9.3587,9.3464,9.3211,9.3211,9.313,9.2988,9.2988,9.2988,9.2988,9.2988,9.2988,9.2988,9.2988,9.2988,6.8883,6.9846,7.0807,7.1619,7.2532,7.3898,7.6476,7.6723,7.6932,7.8761,7.9782,8.0354,8.0515,8.191,8.3936,8.6659,8.7901,8.9143,9.0962,9.121,9.1518,9.2402,9.321,9.4027,9.4912,9.5788,9.6288,9.6288,9.6288,0.0,0.0,9.4989,9.4566,9.3719,9.3672,9.3672,9.3672,9.2903,9.2479,9.2479,9.1633,9.121,9.1248,9.2095,9.2479,9.2595,9.4296,9.4989,9.5066,9.5942,9.6288,9.6288,9.6288,9.6288,9.6288,9.6288,9.6288,9.6288,9.6288,9.6288,9.6288,9.6288,9.6288,9.6288,9.6288,9.6288,9.6288,9.6288,9.6288,9.6288,9.6288,9.6288,9.6288,9.6288,9.6288,9.6288,9.6288,9.6288,9.6288,9.6288,9.6288,9.6288,9.6288,9.6288,9.6288,9.6288,9.6288,9.6288,9.6288,9.6288,9.6213,9.5931,9.5702,9.5368,9.4844,9.4445,9.3992,9.3532,9.3306,9.3211,9.3211,9.3211,9.313,9.2988,9.2988,9.2988,9.2988,9.2988,9.2988,9.2988,9.2988,9.2988,6.9916,7.0775,7.1803,7.3377,7.4382,7.5809,7.9114,7.9199,7.9236,8.1569,8.2229,8.2612,8.3252,8.434,8.5755,8.7766,8.8883,8.9906,9.1047,9.121,9.1518,9.2402,9.321,9.4027,9.4912,9.5788,9.6288,9.6288,9.5711,0.0,0.0,9.3873,9.3364,9.3672,9.2556,9.2249,9.2864,9.2018,9.1595,9.1595,9.1941,9.1787,9.1248,9.2095,9.2826,9.3403,9.4527,9.5335,9.5942,9.6211,9.6288,9.6288,9.6288,9.6288,9.6288,9.6288,9.6288,9.6288,9.6288,9.6288,9.6288,9.6288,9.6288,9.6288,9.6288,9.6288,9.6288,9.6288,9.6288,9.6288,9.6288,9.6288,9.6288,9.6288,9.6288,9.6288,9.6288,9.6288,9.6288,9.6288,9.6288,9.6288,9.6288,9.6288,9.6288,9.6288,9.6288,9.6288,9.6288,9.6222,9.6098,9.592,9.5637,9.5274,9.4844,9.454,9.4094,9.3532,9.3454,9.3312,9.3086,9.307,9.3037,9.2988,9.2988,9.2988,9.2988,9.2988,9.2988,9.2988,9.2988,9.2988,7.0705,7.1695,7.2693,7.4175,7.5442,7.7223,8.0674,8.1516,8.1918,8.3072,8.4125,8.4919,8.5111,8.6227,8.7517,8.8824,8.9521,9.0201,9.1095,9.121,9.1402,9.1902,9.2979,9.3912,9.445,9.5249,9.5788,9.5788,9.4989,0.0,0.0,9.3056,9.2556,9.271,9.1748,9.1441,9.1979,9.1479,9.121,9.121,9.2095,9.221,9.1748,9.2941,9.3758,9.4258,9.5134,9.5826,9.6288,9.6288,9.6288,9.6288,9.6288,9.6288,9.6288,9.6288,9.6288,9.6288,9.6288,9.6288,9.6288,9.6288,9.6288,9.6288,9.6288,9.6288,9.6288,9.6288,9.6288,9.6288,9.6288,9.6288,9.6288,9.6288,9.6288,9.6288,9.6288,9.6288,9.6288,9.6288,9.6288,9.6288,9.6288,9.6288,9.6288,9.6288,9.6288,9.6269,9.6232,9.6098,9.5931,9.5734,9.5353,9.497,9.4545,9.4283,9.3919,9.3401,9.3391,9.328,9.3004,9.2988,9.2988,9.2988,9.2988,9.2988,9.2988,9.2988,9.2988,9.2988,9.2988,9.2988,7.1366,7.2537,7.3537,7.4481,7.6325,7.8615,8.1585,8.3567,8.4562,8.3783,8.5542,8.7033,8.6466,8.7697,8.9056,8.9893,9.0009,9.0316,9.1095,9.121,9.1248,9.1325,9.271,9.371,9.371,9.4489,9.4951,9.4874,9.4066,0.0,0.0,9.2402,9.2018,9.1248,9.121,9.121,9.121,9.121,9.1248,9.1325,9.221,9.2633,9.2787,9.4296,9.5027,9.5181,9.5942,9.6288,9.6288,9.6288,9.6288,9.6288,9.6288,9.6288,9.6288,9.6288,9.6288,9.6288,9.6288,9.6288,9.6288,9.6288,9.6288,9.6288,9.6288,9.6288,9.6288,9.6288,9.6288,9.6288,9.6288,9.6288,9.6288,9.6288,9.6288,9.6288,9.6288,9.6288,9.6288,9.6288,9.6288,9.6288,9.6288,9.6288,9.6288,9.6288,9.6279,9.6232,9.6098,9.5941,9.5734,9.5391,9.492,9.4508,9.4119,9.3837,9.3519,9.3227,9.3211,9.313,9.3004,9.2988,9.2988,9.2988,9.2988,9.2988,9.2988,9.2988,9.2988,9.2988,9.2988,9.2988,7.2447,7.3368,7.4396,7.6093,7.9352,8.2416,8.3724,8.4773,8.5618,8.6049,8.6716,8.7571,8.8771,8.9341,8.994,9.0787,9.0932,9.097,9.1171,9.121,9.1441,9.2133,9.3095,9.371,9.371,9.4489,9.472,9.4027,0.0,0.0,9.2518,9.1864,9.1402,9.121,9.121,9.121,9.121,9.121,9.1556,0.0,9.3056,9.3796,9.4489,9.4835,9.5365,9.6019,9.6211,9.6288,9.6288,9.6288,9.6288,9.6288,9.6288,9.6288,9.6288,9.6288,9.6288,9.6288,9.6288,9.6288,9.6288,9.6288,9.6288,9.6288,9.6288,9.6288,9.6288,9.6288,9.6288,9.6288,9.6288,9.6288,9.6288,9.6288,9.6288,9.6288,9.6288,9.6288,9.6288,9.6288,9.6288,9.6288,9.6288,9.6288,9.6288,9.6288,9.6222,9.6098,9.5951,9.5691,9.5402,9.5119,9.4585,9.4161,9.3946,9.3709,9.3432,9.3227,9.3211,9.313,9.3004,9.2988,9.2988,9.2988,9.2988,9.2988,9.2988,9.2988,9.2988,9.2988,9.2988,9.2988,7.2546,7.3866,7.557,7.8653,8.1355,8.3488,8.4269,8.5361,8.6441,8.7273,8.76,8.817,8.9568,9.0187,9.0663,9.1133,9.121,9.121,9.121,9.121,9.1518,9.2402,9.2864,9.3287,9.3672,9.3749,9.3595,9.3172,9.2364,9.1864,9.1864,9.1441,9.121,9.121,9.121,9.121,9.121,9.1595,9.2056,9.2518,9.3758,9.4797,9.5634,9.5634,9.5865,9.6288,9.6288,9.6288,9.6288,9.6288,9.6288,9.6288,9.6288,9.6288,9.6288,9.6288,9.6288,9.6288,9.6288,9.6288,9.6288,9.6288,9.6288,9.6288,9.6288,9.6288,9.6288,9.6288,9.6288,9.6288,9.6288,9.6288,9.6288,9.6288,9.6288,9.6288,9.6288,9.6288,9.6288,9.6288,9.6288,9.6288,9.6288,9.6288,9.6288,9.6288,9.6203,9.6029,9.5738,9.5398,9.502,9.4612,9.409,9.3695,9.3581,9.337,9.3216,9.3098,9.3082,9.3086,9.2988,9.2988,9.2988,9.2988,9.2988,9.2988,9.2988,9.2988,9.2988,9.2988,9.2988,9.2988,7.2521,7.4446,7.692,8.11,8.2604,8.3286,8.4289,8.5702,8.7022,8.7893,8.8366,8.891,8.9828,9.0648,9.121,9.121,9.121,9.121,9.121,9.121,9.1518,9.2402,9.2479,9.2749,9.3441,9.2903,9.2441,9.2287,9.1595,9.121,9.121,9.121,9.121,9.121,9.121,9.121,9.121,9.2056,9.2556,9.271,9.4412,9.5595,9.6288,9.6288,9.6288,9.6288,9.6288,9.6288,9.6288,9.6288,9.6288,9.6288,9.6288,9.6288,9.6288,9.6288,9.6288,9.6288,9.6288,9.6288,9.6288,9.6288,9.6288,9.6288,9.6288,9.6288,9.6288,9.6288,9.6288,9.6288,9.6288,9.6288,9.6288,9.6288,9.6288,9.6288,9.6288,9.6288,9.6288,9.6288,9.6288,9.6288,9.6288,9.6288,9.6288,9.6288,9.6136,9.59,9.5495,9.5091,9.4626,9.4119,9.3635,9.3317,9.3227,9.3086,9.2988,9.2988,9.2988,9.2988,9.2988,9.2988,9.2988,9.2988,9.2988,9.2988,9.2988,9.2988,9.2988,9.2988,9.2988,9.2988,7.3361,7.5773,7.8463,8.1843,8.2768,8.3264,8.4947,8.6084,8.71,8.8127,8.9025,8.9866,9.0673,9.1024,9.121,9.121,9.121,9.121,9.121,9.121,9.1518,9.2402,9.2479,9.2556,9.2633,9.2556,9.2172,9.1441,9.1287,9.121,9.121,9.121,9.121,9.121,9.121,9.121,9.121,9.2056,9.2864,9.3557,9.5288,9.6172,9.6288,9.6288,9.6288,9.6288,9.6288,9.6288,9.6288,9.6288,9.6288,9.6288,9.6288,9.6288,9.6288,9.6288,9.6288,9.6288,9.6288,9.6288,9.6288,9.6288,9.6288,9.6288,9.6288,9.6288,9.6288,9.6288,9.6288,9.6288,9.6288,9.6288,9.6288,9.6288,9.6288,9.6288,9.6288,9.6288,9.6288,9.6288,9.6288,9.6288,9.6288,9.6288,9.6288,9.6288,9.6009,9.5653,9.5372,9.4756,9.4249,9.3946,9.3504,9.3227,9.3211,9.3086,9.2988,9.2988,9.2988,9.2988,9.2988,9.2988,9.2988,9.2988,9.2988,9.2988,9.2988,9.2988,9.2988,9.2988,9.2988,9.2988,7.3792,7.6142,7.8428,8.1161,8.2173,8.2857,8.4138,8.5888,8.7356,8.7895,8.9177,9.0349,9.0839,9.0925,9.0906,9.081,9.0887,9.0925,9.0925,9.1018,9.1399,9.2283,9.2021,9.1979,9.2441,9.2056,9.1595,9.1248,9.121,9.121,9.121,9.121,9.121,9.121,9.121,9.1441,9.1902,9.2749,9.3826,9.5172,9.5942,9.6288,9.6288,9.6288,9.6288,9.6288,9.6288,9.6288,9.6288,9.6288,9.6288,9.6288,9.6288,9.6288,9.6288,9.6288,9.6288,9.6288,9.6288,9.6288,9.6288,9.6288,9.6288,9.6288,9.6288,9.6288,9.6288,9.6288,9.6288,9.6288,9.6288,9.6288,9.6288,9.6288,9.6288,9.6288,9.6288,9.6288,9.6288,9.6288,9.6288,9.6269,9.6213,9.6203,9.6127,9.6009,9.5723,9.5387,9.5069,9.4454,9.3961,9.3709,9.3322,9.3103,9.3103,9.3037,9.2988,9.2988,9.2988,9.2988,9.2988,9.2988,9.2988,9.2988,9.2988,9.2988,9.2988,9.2988,9.2988,9.2988,9.2988,9.2988,7.3938,7.5901,7.77,8.0015,8.1067,8.1885,8.318,8.5212,8.6955,8.7523,8.8945,9.0165,9.0489,9.0569,9.0558,9.0415,9.0457,9.0558,9.0589,9.0751,9.1126,9.1864,9.1458,9.1414,9.2095,9.1595,9.121,9.121,9.121,9.121,9.121,9.121,9.121,9.121,9.121,9.1633,9.2479,9.3518,9.4788,9.6288,9.6288,9.6288,9.6288,9.6288,9.6288,9.6288,9.6288,9.6288,9.6288,9.6288,9.6288,9.6288,9.6288,9.6288,9.6288,9.6288,9.6288,9.6288,9.6288,9.6288,9.6288,9.6288,9.6288,9.6288,9.6288,9.6288,9.6288,9.6288,9.6288,9.6288,9.6288,9.6288,9.6288,9.6288,9.6288,9.6288,9.6288,9.6288,9.6288,9.6288,9.6288,9.6251,9.6117,9.6078,9.5951,9.5685,9.5471,9.5155,9.4741,9.4175,9.3732,9.3432,9.3167,9.2988,9.2988,9.2988,9.2988,9.2988,9.2988,9.2988,9.2988,9.2988,9.2988,9.2988,9.2988,9.2988,9.2988,9.2988,9.2988,9.2988,9.2988,9.2988,7.3937,7.5068,7.6346,7.8637,7.935,8.011,8.2644,8.4117,8.5425,8.716,8.8193,8.8971,8.9477,8.9976,9.0285,9.0125,9.0114,9.0197,9.0318,9.0436,9.062,9.0934,9.101,9.1064,9.124,9.1248,9.121,9.121,9.121,9.121,9.121,9.121,9.121,9.121,9.121,9.1633,9.2479,9.4104,9.5412,9.6288,9.6288,9.6288,9.6288,9.6288,9.6288,9.6288,9.6288,9.6288,9.6288,9.6288,9.6288,9.6288,9.6288,9.6288,9.6288,9.6288,9.6288,9.6288,9.6288,9.6288,9.6288,9.6288,9.6288,9.6288,9.6288,9.6288,9.6288,9.6288,9.6288,9.6288,9.6288,9.6288,9.6288,9.6288,9.6288,9.6288,9.6288,9.6288,9.6288,9.6288,9.6288,9.6251,9.6117,9.5981,9.5839,9.5566,9.5224,9.4832,9.4397,9.3969,9.3587,9.3259,9.3103,9.2988,9.2988,9.2988,9.2988,9.2988,9.2988,9.2988,9.2988,9.2988,9.2988,9.2988,9.2988,9.2988,9.2988,9.2988,9.2988,9.2988,9.2988,9.2988,7.3683,7.4688,7.5701,7.6968,7.8129,7.9153,8.0104,8.1921,8.3728,8.4896,8.5889,8.6869,8.8001,8.9035,8.9654,8.9426,8.9528,8.9691,8.9813,9.0152,9.0457,9.0749,9.0915,9.1064,9.1201,9.121,9.121,9.121,9.121,9.121,9.121,9.121,9.121,9.121,9.121,9.1864,9.3249,9.498,9.598,9.6288,9.6288,9.6288,9.6288,9.6288,9.6288,9.6288,9.6288,9.6288,9.6288,9.6288,9.6288,9.6288,9.6288,9.6288,9.6288,9.6288,9.6288,9.6288,9.6288,9.6288,9.6288,9.6288,9.6288,9.6288,9.6288,9.6288,9.6288,9.6288,9.6288,9.6288,9.6288,9.6288,9.6288,9.6288,9.6241,9.6155,9.6155,9.6241,9.6269,9.6203,9.6155,9.6078,9.5835,9.5659,9.5471,9.5105,9.4703,9.4328,9.4076,9.3657,9.3338,9.3227,9.3086,9.2988,9.2988,9.2988,9.2988,9.2988,9.2988,9.2988,9.2988,9.2988,9.2988,9.2988,9.2988,9.2988,9.2988,9.2988,9.2988,9.2988,9.2988,9.2988,7.3413,7.42,7.4823,7.5556,7.6564,7.7536,7.8096,7.982,8.1623,8.2695,8.39,8.5187,8.6705,8.7867,8.8658,8.879,8.9061,8.924,8.9425,8.9837,9.0252,9.0589,9.0848,9.1028,9.1192,9.121,9.121,9.121,9.121,0.0,9.121,9.121,9.121,9.121,9.1479,9.2287,9.3672,9.5134,9.6019,9.6288,9.6288,9.6288,9.6288,9.6288,9.6288,9.6288,9.6288,9.6288,9.6288,9.6288,9.6288,9.6288,9.6288,9.6288,9.6288,9.6288,9.6288,9.6288,9.6288,9.6288,9.6288,9.6288,9.6288,9.6288,9.6288,9.6288,9.6288,9.6288,9.6288,9.6288,9.6288,9.6288,9.6288,9.6288,9.6213,9.6088,9.6058,9.6068,9.6078,9.5971,9.59,9.5766,9.5493,9.531,9.5082,9.4715,9.4287,9.3961,9.3777,9.3411,9.3179,9.313,9.3054,9.2988,9.2988,9.2988,9.2988,9.2988,9.2988,9.2988,9.2988,9.2988,9.2988,9.2988,9.2988,9.2988,9.2988,9.2988,9.2988,9.2988,9.2988,9.2988,0.0,0.0,0.0,7.4415,7.4666,7.5204,7.6869,7.7944,7.9132,8.0776,8.2383,8.3971,8.5543,8.6483,8.7347,8.8264,8.8613,8.8865,8.917,8.9541,8.9982,9.0426,9.0749,9.0992,9.1192,9.121,9.121,9.121,9.121,9.121,9.121,9.121,9.121,9.121,9.2056,9.2903,9.3672,9.4566,9.5451,9.6288,9.6288,9.6288,9.6288,9.6288,9.6288,9.6288,9.6288,9.6288,9.6288,9.6288,9.6288,9.6288,9.6288,9.6288,9.6288,9.6288,9.6288,9.6288,9.6288,9.6288,9.6288,9.6288,9.6288,9.6288,9.6288,9.6288,9.6288,9.6288,9.6288,9.6288,9.6288,9.6288,9.6288,9.6288,9.6213,9.6068,9.592,9.5759,9.5674,9.5674,9.545,9.5245,9.5191,9.4946,9.4676,9.4431,9.4085,9.3777,9.3532,9.3306,9.313,9.3004,9.2988,9.2988,9.2988,9.2988,9.2988,9.2988,9.2988,9.2988,9.2988,9.2988,9.2988,9.2988,9.2988,9.2988,9.2988,9.2988,9.2988,9.2988,9.2988,9.2988,7.2221,0.0,0.0,0.0,0.0,0.0,7.5222,7.6489,7.7856,7.8898,8.0386,8.2009,8.364,8.4592,8.5425,8.6289,8.763,8.8627,8.8828,8.9412,8.9947,9.0318,9.0661,9.0992,9.1192,9.121,9.121,0.0,9.121,9.121,9.121,9.121,9.121,9.121,9.2056,9.2903,9.3672,9.4566,9.5451,9.6288,9.6288,9.6288,9.6288,9.6288,9.6288,9.6288,9.6288,9.6288,9.6288,9.6288,9.6288,9.6288,9.6288,9.6288,9.6288,9.6288,9.6288,9.6288,9.6288,9.6288,9.6288,9.6288,9.6288,9.6288,9.6288,9.6288,9.6288,9.6288,9.6288,9.6288,9.6288,9.6288,9.6288,9.6288,9.6117,9.59,9.5664,9.5387,9.5239,9.5321,9.5067,9.4819,9.4599,9.4328,9.4113,9.3911,9.3596,9.3385,9.3291,9.3167,9.3037,9.3004,9.2988,9.2988,9.2988,9.2988,9.2988,9.2988,9.2988,9.2988,9.2988,9.2988,9.2988,9.2988,9.2988,9.2988,9.2988,9.2988,9.2988,9.2988,9.2988,9.2988,7.1806,7.2648,7.3344,7.341,0.0,0.0,7.4091,7.5355,7.6692,7.7175,7.8847,8.0691,8.2377,8.3388,8.4361,8.5499,8.6735,8.7715,8.8152,8.8686,8.93,9.008,9.0464,9.0779,9.1066,9.1082,9.1127,9.1201,9.121,9.121,9.121,9.121,9.121,9.121,9.171,9.2518,9.3672,9.422,9.5095,9.6288,9.6288,9.6288,9.6288,9.6288,9.6288,9.6288,9.6288,9.6288,9.6288,9.6288,9.6288,9.6288,9.6288,9.6288,9.6288,9.6288,9.6288,9.6288,9.6288,9.6288,9.6288,9.6288,9.6288,9.6288,9.6288,9.6288,9.6288,9.6288,9.6288,9.6288,9.6288,9.6288,9.6269,9.6232,9.5991,9.5738,9.55,9.5117,9.4832,9.4819,9.4599,9.4291,9.409,9.3881,9.3725,9.3633,9.3385,9.3211,9.3211,9.3103,9.2988,9.2988,9.2988,9.2988,9.2988,9.2988,9.2988,9.2988,9.2988,9.2988,9.2988,9.2988,9.2988,9.2988,9.2988,9.2988,9.2988,9.2988,9.2988,9.2988,9.2988,9.2988,7.1741,7.2582,0.0,0.0,0.0,0.0,7.3385,7.4574,7.5689,7.5689,7.7584,7.9739,8.13,8.2344,8.3487,8.5,8.5582,8.6228,8.7216,8.7619,8.8229,8.9495,8.9939,9.0311,9.0694,9.0867,9.1046,9.1183,9.1201,9.121,9.121,9.121,9.121,9.121,9.121,9.1979,9.3557,9.3557,9.4441,9.6172,9.6172,9.6211,9.6288,9.6288,9.6288,9.6288,9.6288,9.6288,9.6288,9.6288,9.6288,9.6288,9.6288,9.6288,9.6288,9.6288,9.6288,9.6288,9.6288,9.6288,9.6288,9.6288,9.6288,9.6288,9.6288,9.6288,9.6288,9.6288,9.6288,9.6288,9.6288,9.6279,9.6241,9.6107,9.587,9.5626,9.5379,9.4933,9.4503,9.4287,9.4033,9.3852,9.3702,9.3572,9.3485,9.347,9.3306,9.3195,9.3179,9.3086,9.2988,9.2988,9.2988,9.2988,9.2988,9.2988,9.2988,9.2988,9.2988,9.2988,9.2988,9.2988,9.2988,9.2988,9.2988,9.2988,9.2988,9.2988,9.2988,9.2988,9.2988,9.2988,0.0,0.0,0.0,0.0,0.0,0.0,7.3385,7.4128,7.4834,7.4834,7.6284,7.7881,7.8847,7.9777,8.073,8.1699,8.2599,8.3905,8.6087,8.6782,8.7223,8.7475,8.8504,8.9283,8.9575,9.0416,9.0944,9.1046,9.1127,9.121,9.121,9.121,9.121,9.121,9.121,9.171,9.271,9.271,9.3595,9.5258,9.5258,9.5634,9.6288,9.6288,9.6288,9.6288,9.6288,9.6288,9.6288,9.6288,9.6288,9.6288,9.6288,9.6288,9.6288,9.6288,9.6288,9.6288,9.6288,9.6288,9.6288,9.6288,9.6288,9.6288,9.6288,9.6288,9.6288,9.6288,9.6288,9.6288,9.6288,9.6222,9.6107,9.5961,9.5702,9.5368,9.5008,9.4663,9.4335,9.3881,9.3747,9.374,9.3709,9.3609,9.3454,9.3275,9.3227,9.3163,9.3054,9.3004,9.2988,9.2988,9.2988,9.2988,9.2988,9.2988,9.2988,9.2988,9.2988,9.2988,9.2988,9.2988,9.2988,9.2988,9.2988,9.2988,9.2988,9.2988,9.2988,9.2988,9.2988,9.2988,0.0,0.0,0.0,7.3333,0.0,0.0,0.0,7.4017,7.4612,7.4612,7.5578,7.6692,7.7547,7.8505,7.9474,8.0281,8.1652,8.3008,8.4199,8.532,8.6198,8.6755,8.7448,8.8036,8.839,8.9377,9.029,9.0962,9.1118,9.121,9.121,9.121,9.121,9.121,9.121,9.1633,9.2479,9.2903,9.3758,9.5027,9.5451,9.5865,9.6288,9.6288,9.6288,9.6288,9.6288,9.6288,9.6288,9.6288,9.6288,9.6288,9.6288,9.6288,9.6288,9.6288,9.6288,9.6288,9.6288,9.6288,9.6288,9.6288,9.6288,9.6288,9.6288,9.6288,9.6288,9.6288,9.6251,9.6213,9.6213,9.6058,9.5859,9.5691,9.5341,9.4995,9.4754,9.4407,9.4099,9.3977,9.3889,9.3822,9.364,9.3548,9.347,9.3354,9.3259,9.3179,9.3098,9.3054,9.2988,9.2988,9.2988,9.2988,9.2988,9.2988,9.2988,9.2988,9.2988,9.2988,9.2988,9.2988,9.2988,9.2988,9.2988,9.2988,9.2988,9.2988,9.2988,9.2988,9.2988,9.2988,0.0,0.0,0.0,0.0,0.0,7.3346,0.0,0.0,0.0,7.4351,7.4909,7.5615,7.6469,7.7354,7.8271,7.9229,8.0887,8.2067,0.0,8.3437,0.0,8.5995,8.6428,8.6782,8.7132,8.8221,8.9335,9.0396,9.0754,9.0941,9.0941,9.1133,9.121,9.121,9.121,9.1633,9.2479,9.3133,9.3989,9.5027,9.5711,9.6134,9.6288,9.6288,9.6288,9.6288,9.6288,9.6288,9.6288,9.6288,9.6288,9.6288,9.6288,9.6288,9.6288,9.6288,9.6288,9.6288,9.6288,9.6288,9.6288,9.6288,9.6288,9.6288,9.6288,9.6288,9.6279,9.626,9.6146,9.6058,9.5981,9.5807,9.5533,9.5333,9.4958,9.4638,9.453,9.4213,9.3998,9.4165,9.4131,9.3956,9.3656,9.3594,9.3579,9.3548,9.337,9.3243,9.3211,9.3103,9.2988,9.2988,9.2988,9.2988,9.2988,9.2988,9.2988,9.2988,9.2988,9.2988,9.2988,9.2988,9.2988,9.2988,9.2988,9.2988,9.2988,9.2988,9.2988,9.2988,9.2988,9.2988,0.0,0.0,0.0,0.0,7.3225,0.0,0.0,0.0,7.3534,7.3534,0.0,7.3906,7.4723,0.0,0.0,7.7316,7.8587,7.9578,8.0276,8.1304,8.2519,8.3964,8.5016,8.5738,8.5901,8.723,8.8277,8.8586,8.9498,9.0047,9.0047,9.0778,9.121,9.121,9.121,9.1633,9.2479,9.2595,9.3441,9.4989,9.5104,9.5557,9.6288,9.6288,9.6288,9.6288,9.6288,9.6288,9.6288,9.6288,9.6288,9.6288,9.6288,9.6288,9.6288,9.6288,9.6288,9.6288,9.6288,9.6288,9.6288,9.6288,9.6288,9.6288,9.6288,9.6288,9.6269,9.6136,9.6039,9.588,9.5642,9.5398,9.5191,9.4933,9.465,9.4418,9.4265,9.4194,9.4165,9.418,9.4165,9.4146,9.3971,9.3941,9.3897,9.3694,9.3579,9.3423,9.3227,9.3103,9.2988,9.2988,9.2988,9.2988,9.2988,9.2988,9.2988,9.2988,9.2988,9.2988,9.2988,9.2988,9.2988,9.2988,9.2988,9.2988,9.2988,9.2988,9.2988,9.2988,9.2988,9.2988,0.0,0.0,0.0,0.0,0.0,0.0,7.3278,0.0,7.3199,0.0,0.0,0.0,0.0,0.0,0.0,0.0,7.7511,7.8887,0.0,0.0,8.1741,8.2442,0.0,0.0,8.516,8.6045,8.7063,8.826,8.8874,8.9402,8.9893,9.0239,9.0663,9.1171,9.121,9.1364,9.1748,9.271,9.3557,9.4258,9.5249,9.5942,9.6288,9.6288,9.6288,9.6288,9.6288,9.6288,9.6288,9.6288,9.6288,9.6288,9.6288,9.6288,9.6288,9.6288,9.6288,9.6288,9.6288,9.6288,9.6288,9.6288,9.6288,9.6288,9.6288,9.6241,9.6136,9.6,9.5807,9.5522,9.5233,9.5007,9.4767,9.4451,9.4287,9.4213,9.4194,9.4213,9.4297,9.4418,9.4431,9.439,9.425,9.4117,9.3971,9.3897,9.3671,9.347,9.337,9.3167,9.2988,9.2988,9.2988,9.2988,9.2988,9.2988,9.2988,9.2988,9.2988,9.2988,9.2988,9.2988,9.2988,9.2988,9.2988,9.2988,9.2988,9.2988,9.2988,9.2988,9.2988,9.2988,7.4041,0.0,0.0,0.0,0.0,0.0,0.0,0.0,0.0,0.0,0.0,0.0,0.0,0.0,0.0,0.0,0.0,7.8124,0.0,7.9801,0.0,0.0,0.0,0.0,0.0,8.4947,8.5829,8.7523,8.8097,8.8594,8.9162,8.9663,9.0201,9.0816,9.1095,9.1325,9.1556,9.2979,9.3826,9.4066,9.5595,9.6288,9.6288,9.6288,9.6288,9.6288,9.6288,9.6288,9.6288,9.6288,9.6288,9.6288,9.6288,9.6288,9.6288,9.6288,9.6288,9.6288,9.6288,9.6288,9.6288,9.6288,9.6288,9.6279,9.6251,9.6194,9.6068,9.5859,9.5615,9.531,9.4933,9.469,9.4503,9.4213,9.4161,9.4269,9.4362,9.4476,9.4599,9.4742,9.478,9.4702,9.4608,9.4236,9.3948,9.3941,9.364,9.3423,9.3423,9.3167,9.2988,9.2988,9.2988,9.2988,9.2988,9.2988,9.2988,9.2988,9.2988,9.2988,9.2988,9.2988,9.2988,9.2988,9.2988,9.2988,9.2988,9.2988,9.2988,9.2988,9.2988,9.2988,0.0,0.0,0.0,7.432,0.0,0.0,0.0,0.0,7.3158,0.0,0.0,0.0,0.0,0.0,0.0,0.0,0.0,0.0,0.0,0.0,0.0,0.0,0.0,0.0,0.0,8.4022,8.4681,8.5705,8.6832,8.744,8.7478,8.9017,8.9893,8.9932,9.074,9.1595,9.2441,9.3287,9.4134,9.4989,9.5865,9.6288,9.6288,9.6288,9.6288,9.6288,9.6288,9.6288,9.6288,9.6288,9.6288,9.6288,9.6288,9.6288,9.6288,9.6288,9.6288,9.6288,9.6288,9.6288,9.6288,9.6288,9.6288,9.6269,9.6136,9.6098,9.6039,9.5708,9.552,9.5274,9.4741,9.4583,9.454,9.425,9.4404,9.4597,9.4754,9.4983,9.5203,9.5257,9.5224,9.5131,9.4996,9.437,9.3866,9.374,9.3432,9.3211,9.3211,9.3103,9.2988,9.2988,9.2988,9.2988,9.2988,9.2988,9.2988,9.2988,9.2988,9.2988,9.2988,9.2988,9.2988,9.2988,9.2988,9.2988,9.2988,9.2988,9.2988,9.2988,9.2988,9.2988,0.0,0.0,7.4794,7.5022,0.0,0.0,0.0,0.0,0.0,0.0,0.0,0.0,0.0,0.0,0.0,0.0,0.0,0.0,0.0,0.0,0.0,0.0,0.0,0.0,0.0,0.0,8.3155,8.4125,8.4626,8.5363,8.6478,8.7085,8.8162,8.9855,9.0201,9.074,9.1633,9.3018,9.3835,9.4181,9.5595,9.6288,9.6288,9.6288,9.6288,9.6288,9.6288,9.6288,9.6288,9.6288,9.6288,9.6288,9.6288,9.6288,9.6288,9.6288,9.6288,9.6288,9.6288,9.6288,9.6288,9.6288,9.6288,9.6269,9.6127,9.6049,9.589,9.5549,9.5298,9.5033,9.457,9.454,9.4557,9.4424,9.469,9.5021,9.5129,9.5353,9.55,9.5516,9.5402,9.5227,9.4921,9.4435,9.405,9.3852,9.3587,9.3338,9.3227,9.3103,9.2988,9.2988,9.2988,9.2988,9.2988,9.2988,9.2988,9.2988,9.2988,9.2988,9.2988,9.3508,9.3768,9.3768,9.4325,9.4325,9.3768,9.3768,9.3508,9.2988,9.2988,9.2988,7.7536,7.6828,0.0,7.6264,7.5517,0.0,7.4487,0.0,0.0,0.0,0.0,0.0,0.0,0.0,0.0,0.0,0.0,0.0,0.0,7.7879,0.0,0.0,0.0,0.0,0.0,8.2011,8.2442,8.3338,8.3506,8.4063,0.0,0.0,8.6855,8.8509,8.9171,8.9902,9.074,9.2402,9.3403,9.371,9.548,9.6288,9.6288,9.6288,9.6288,9.6288,9.6288,9.6288,9.6288,9.6288,9.6288,9.6288,9.6288,9.6288,9.6288,9.6288,9.6288,9.6288,9.6288,9.6288,9.6288,9.6288,9.6288,9.6269,9.6127,9.5991,9.5839,9.5493,9.5239,9.4983,9.4623,9.4663,9.4806,9.4768,9.5081,9.5387,9.5473,9.5685,9.5828,9.5804,9.5626,9.5402,9.5008,9.4597,9.4222,9.3807,9.3557,9.3344,9.3146,9.3054,9.2988,9.2988,9.2988,9.2988,9.2988,9.2988,9.2988,9.2988,9.2988,9.2988,9.2988,9.3768,9.4214,9.4214,9.4994,9.4994,9.4214,9.4214,9.3768,9.2988,9.2988,9.2988]}]]